<?xml version="1.0" encoding="UTF-8" standalone="no" ?>
<gpx xmlns="http://www.topografix.com/GPX/1/1" xmlns:xsi="http://www.w3.org/2001/XMLSchema-instance" xsi:schemaLocation="http://www.topografix.com/GPX/1/1 http://www.topografix.com/GPX/1/1/gpx.xsd" version="1.1" creator="VisuGPX - https://www.visugpx.com">
  <metadata>
    <name>VTT Perso</name>
    <desc><![CDATA[Sortie VTT Perso dans Bouconne]]></desc>
  </metadata>
  <trk>
    <name><![CDATA[20130316VTTPERSO]]></name>
    <trkseg>
      <trkpt lat="43.65848" lon="1.19207">
        <ele>162.090439</ele>
        <time>2013-03-16T14:19:29Z</time>
      </trkpt>
      <trkpt lat="43.65846" lon="1.19206">
        <ele>162.246475</ele>
        <time>2013-03-16T14:19:30Z</time>
      </trkpt>
      <trkpt lat="43.65841" lon="1.19208">
        <ele>162.408829</ele>
        <time>2013-03-16T14:19:35Z</time>
      </trkpt>
      <trkpt lat="43.65832" lon="1.19216">
        <ele>162.553223</ele>
        <time>2013-03-16T14:19:45Z</time>
      </trkpt>
      <trkpt lat="43.65817" lon="1.19217">
        <ele>163.606613</ele>
        <time>2013-03-16T14:19:53Z</time>
      </trkpt>
      <trkpt lat="43.65815" lon="1.19217">
        <ele>163.725616</ele>
        <time>2013-03-16T14:19:54Z</time>
      </trkpt>
      <trkpt lat="43.6581" lon="1.19198">
        <ele>165.623245</ele>
        <time>2013-03-16T14:20:03Z</time>
      </trkpt>
      <trkpt lat="43.65802" lon="1.19192">
        <ele>167.162125</ele>
        <time>2013-03-16T14:20:13Z</time>
      </trkpt>
      <trkpt lat="43.65798" lon="1.19188">
        <ele>168.129608</ele>
        <time>2013-03-16T14:20:19Z</time>
      </trkpt>
      <trkpt lat="43.65796" lon="1.19186">
        <ele>168.680298</ele>
        <time>2013-03-16T14:20:21Z</time>
      </trkpt>
      <trkpt lat="43.65783" lon="1.19178">
        <ele>170.821243</ele>
        <time>2013-03-16T14:20:31Z</time>
      </trkpt>
      <trkpt lat="43.65756" lon="1.19172">
        <ele>173.536255</ele>
        <time>2013-03-16T14:20:42Z</time>
      </trkpt>
      <trkpt lat="43.65746" lon="1.19168">
        <ele>174.778503</ele>
        <time>2013-03-16T14:20:50Z</time>
      </trkpt>
      <trkpt lat="43.65733" lon="1.19161">
        <ele>176.300552</ele>
        <time>2013-03-16T14:21:00Z</time>
      </trkpt>
      <trkpt lat="43.65727" lon="1.19158">
        <ele>177.000076</ele>
        <time>2013-03-16T14:21:05Z</time>
      </trkpt>
      <trkpt lat="43.65716" lon="1.19153">
        <ele>178.237305</ele>
        <time>2013-03-16T14:21:14Z</time>
      </trkpt>
      <trkpt lat="43.65697" lon="1.19142">
        <ele>180.524887</ele>
        <time>2013-03-16T14:21:29Z</time>
      </trkpt>
      <trkpt lat="43.65677" lon="1.1913">
        <ele>181.437469</ele>
        <time>2013-03-16T14:21:45Z</time>
      </trkpt>
      <trkpt lat="43.65658" lon="1.19122">
        <ele>182.188278</ele>
        <time>2013-03-16T14:22:00Z</time>
      </trkpt>
      <trkpt lat="43.65636" lon="1.19112">
        <ele>184.007004</ele>
        <time>2013-03-16T14:22:16Z</time>
      </trkpt>
      <trkpt lat="43.65615" lon="1.19101">
        <ele>186.393173</ele>
        <time>2013-03-16T14:22:31Z</time>
      </trkpt>
      <trkpt lat="43.65592" lon="1.19091">
        <ele>189.422394</ele>
        <time>2013-03-16T14:22:48Z</time>
      </trkpt>
      <trkpt lat="43.65568" lon="1.19083">
        <ele>192.515915</ele>
        <time>2013-03-16T14:23:05Z</time>
      </trkpt>
      <trkpt lat="43.65545" lon="1.19077">
        <ele>194.422348</ele>
        <time>2013-03-16T14:23:21Z</time>
      </trkpt>
      <trkpt lat="43.65534" lon="1.19075">
        <ele>195.227753</ele>
        <time>2013-03-16T14:23:30Z</time>
      </trkpt>
      <trkpt lat="43.65521" lon="1.19072">
        <ele>196.229996</ele>
        <time>2013-03-16T14:23:40Z</time>
      </trkpt>
      <trkpt lat="43.65512" lon="1.1907">
        <ele>196.925003</ele>
        <time>2013-03-16T14:23:47Z</time>
      </trkpt>
      <trkpt lat="43.65491" lon="1.19065">
        <ele>198.570007</ele>
        <time>2013-03-16T14:24:01Z</time>
      </trkpt>
      <trkpt lat="43.65477" lon="1.19059">
        <ele>199.985001</ele>
        <time>2013-03-16T14:24:11Z</time>
      </trkpt>
      <trkpt lat="43.65472" lon="1.19057">
        <ele>200.667084</ele>
        <time>2013-03-16T14:24:15Z</time>
      </trkpt>
      <trkpt lat="43.65463" lon="1.19053">
        <ele>201.903305</ele>
        <time>2013-03-16T14:24:22Z</time>
      </trkpt>
      <trkpt lat="43.65458" lon="1.19051">
        <ele>202.526123</ele>
        <time>2013-03-16T14:24:26Z</time>
      </trkpt>
      <trkpt lat="43.65452" lon="1.19049">
        <ele>203.21376</ele>
        <time>2013-03-16T14:24:30Z</time>
      </trkpt>
      <trkpt lat="43.65446" lon="1.19046">
        <ele>204.168045</ele>
        <time>2013-03-16T14:24:35Z</time>
      </trkpt>
      <trkpt lat="43.65424" lon="1.19041">
        <ele>206.829193</ele>
        <time>2013-03-16T14:24:51Z</time>
      </trkpt>
      <trkpt lat="43.65415" lon="1.19038">
        <ele>208.279388</ele>
        <time>2013-03-16T14:24:58Z</time>
      </trkpt>
      <trkpt lat="43.65394" lon="1.19033">
        <ele>211.447006</ele>
        <time>2013-03-16T14:25:13Z</time>
      </trkpt>
      <trkpt lat="43.65372" lon="1.19026">
        <ele>214.2285</ele>
        <time>2013-03-16T14:25:29Z</time>
      </trkpt>
      <trkpt lat="43.65351" lon="1.1902">
        <ele>216.710007</ele>
        <time>2013-03-16T14:25:45Z</time>
      </trkpt>
      <trkpt lat="43.65336" lon="1.19017">
        <ele>217.846878</ele>
        <time>2013-03-16T14:25:56Z</time>
      </trkpt>
      <trkpt lat="43.6533" lon="1.19016">
        <ele>218.347504</ele>
        <time>2013-03-16T14:26:00Z</time>
      </trkpt>
      <trkpt lat="43.65302" lon="1.19009">
        <ele>220.393753</ele>
        <time>2013-03-16T14:26:14Z</time>
      </trkpt>
      <trkpt lat="43.65278" lon="1.19004">
        <ele>221.965744</ele>
        <time>2013-03-16T14:26:27Z</time>
      </trkpt>
      <trkpt lat="43.65255" lon="1.19003">
        <ele>222.994919</ele>
        <time>2013-03-16T14:26:38Z</time>
      </trkpt>
      <trkpt lat="43.65217" lon="1.19">
        <ele>223.478745</ele>
        <time>2013-03-16T14:26:52Z</time>
      </trkpt>
      <trkpt lat="43.65176" lon="1.18985">
        <ele>223.891205</ele>
        <time>2013-03-16T14:27:04Z</time>
      </trkpt>
      <trkpt lat="43.65135" lon="1.18969">
        <ele>224.897491</ele>
        <time>2013-03-16T14:27:14Z</time>
      </trkpt>
      <trkpt lat="43.6513" lon="1.18968">
        <ele>224.922501</ele>
        <time>2013-03-16T14:27:15Z</time>
      </trkpt>
      <trkpt lat="43.6509" lon="1.18967">
        <ele>224.271332</ele>
        <time>2013-03-16T14:27:24Z</time>
      </trkpt>
      <trkpt lat="43.65086" lon="1.18967">
        <ele>224.173279</ele>
        <time>2013-03-16T14:27:25Z</time>
      </trkpt>
      <trkpt lat="43.65039" lon="1.18966">
        <ele>224.832199</ele>
        <time>2013-03-16T14:27:35Z</time>
      </trkpt>
      <trkpt lat="43.65035" lon="1.18965">
        <ele>224.972168</ele>
        <time>2013-03-16T14:27:36Z</time>
      </trkpt>
      <trkpt lat="43.6503" lon="1.18966">
        <ele>225.041382</ele>
        <time>2013-03-16T14:27:37Z</time>
      </trkpt>
      <trkpt lat="43.65026" lon="1.18966">
        <ele>225.081726</ele>
        <time>2013-03-16T14:27:38Z</time>
      </trkpt>
      <trkpt lat="43.65023" lon="1.18967">
        <ele>225.211182</ele>
        <time>2013-03-16T14:27:39Z</time>
      </trkpt>
      <trkpt lat="43.65018" lon="1.18967">
        <ele>225.38736</ele>
        <time>2013-03-16T14:27:40Z</time>
      </trkpt>
      <trkpt lat="43.64999" lon="1.18969">
        <ele>226.124649</ele>
        <time>2013-03-16T14:27:44Z</time>
      </trkpt>
      <trkpt lat="43.64978" lon="1.18976">
        <ele>226.845642</ele>
        <time>2013-03-16T14:27:47Z</time>
      </trkpt>
      <trkpt lat="43.64973" lon="1.18979">
        <ele>226.921646</ele>
        <time>2013-03-16T14:27:48Z</time>
      </trkpt>
      <trkpt lat="43.64968" lon="1.18983">
        <ele>226.973999</ele>
        <time>2013-03-16T14:27:49Z</time>
      </trkpt>
      <trkpt lat="43.64963" lon="1.18988">
        <ele>227.031265</ele>
        <time>2013-03-16T14:27:50Z</time>
      </trkpt>
      <trkpt lat="43.64959" lon="1.18993">
        <ele>227.125961</ele>
        <time>2013-03-16T14:27:51Z</time>
      </trkpt>
      <trkpt lat="43.64954" lon="1.18996">
        <ele>227.303009</ele>
        <time>2013-03-16T14:27:52Z</time>
      </trkpt>
      <trkpt lat="43.64948" lon="1.18997">
        <ele>227.519379</ele>
        <time>2013-03-16T14:27:53Z</time>
      </trkpt>
      <trkpt lat="43.64943" lon="1.18997">
        <ele>227.741302</ele>
        <time>2013-03-16T14:27:54Z</time>
      </trkpt>
      <trkpt lat="43.64938" lon="1.18997">
        <ele>227.961868</ele>
        <time>2013-03-16T14:27:55Z</time>
      </trkpt>
      <trkpt lat="43.64874" lon="1.18993">
        <ele>229.399994</ele>
        <time>2013-03-16T14:28:10Z</time>
      </trkpt>
      <trkpt lat="43.64811" lon="1.19005">
        <ele>230.794998</ele>
        <time>2013-03-16T14:28:26Z</time>
      </trkpt>
      <trkpt lat="43.64736" lon="1.19028">
        <ele>231</ele>
        <time>2013-03-16T14:28:46Z</time>
      </trkpt>
      <trkpt lat="43.64667" lon="1.19036">
        <ele>231</ele>
        <time>2013-03-16T14:29:04Z</time>
      </trkpt>
      <trkpt lat="43.64593" lon="1.19061">
        <ele>231</ele>
        <time>2013-03-16T14:29:25Z</time>
      </trkpt>
      <trkpt lat="43.6454" lon="1.19073">
        <ele>231.37825</ele>
        <time>2013-03-16T14:29:40Z</time>
      </trkpt>
      <trkpt lat="43.64475" lon="1.19076">
        <ele>232.122787</ele>
        <time>2013-03-16T14:29:58Z</time>
      </trkpt>
      <trkpt lat="43.64396" lon="1.19096">
        <ele>231.992584</ele>
        <time>2013-03-16T14:30:16Z</time>
      </trkpt>
      <trkpt lat="43.64302" lon="1.19102">
        <ele>230.737503</ele>
        <time>2013-03-16T14:30:34Z</time>
      </trkpt>
      <trkpt lat="43.64258" lon="1.191">
        <ele>229.934952</ele>
        <time>2013-03-16T14:30:43Z</time>
      </trkpt>
      <trkpt lat="43.64253" lon="1.191">
        <ele>230.057953</ele>
        <time>2013-03-16T14:30:44Z</time>
      </trkpt>
      <trkpt lat="43.64249" lon="1.19101">
        <ele>230.187012</ele>
        <time>2013-03-16T14:30:45Z</time>
      </trkpt>
      <trkpt lat="43.64245" lon="1.19104">
        <ele>230.336456</ele>
        <time>2013-03-16T14:30:46Z</time>
      </trkpt>
      <trkpt lat="43.64243" lon="1.19108">
        <ele>230.488983</ele>
        <time>2013-03-16T14:30:47Z</time>
      </trkpt>
      <trkpt lat="43.6424" lon="1.19112">
        <ele>230.607239</ele>
        <time>2013-03-16T14:30:48Z</time>
      </trkpt>
      <trkpt lat="43.64237" lon="1.19115">
        <ele>230.706604</ele>
        <time>2013-03-16T14:30:49Z</time>
      </trkpt>
      <trkpt lat="43.64198" lon="1.19162">
        <ele>231</ele>
        <time>2013-03-16T14:31:04Z</time>
      </trkpt>
      <trkpt lat="43.64167" lon="1.19196">
        <ele>231.512985</ele>
        <time>2013-03-16T14:31:16Z</time>
      </trkpt>
      <trkpt lat="43.64148" lon="1.19218">
        <ele>231.9095</ele>
        <time>2013-03-16T14:31:23Z</time>
      </trkpt>
      <trkpt lat="43.64145" lon="1.19221">
        <ele>231.939407</ele>
        <time>2013-03-16T14:31:24Z</time>
      </trkpt>
      <trkpt lat="43.64122" lon="1.19244">
        <ele>231.966125</ele>
        <time>2013-03-16T14:31:32Z</time>
      </trkpt>
      <trkpt lat="43.6412" lon="1.19248">
        <ele>231.944931</ele>
        <time>2013-03-16T14:31:33Z</time>
      </trkpt>
      <trkpt lat="43.64102" lon="1.19273">
        <ele>231.593201</ele>
        <time>2013-03-16T14:31:40Z</time>
      </trkpt>
      <trkpt lat="43.64071" lon="1.19305">
        <ele>231</ele>
        <time>2013-03-16T14:31:51Z</time>
      </trkpt>
      <trkpt lat="43.64023" lon="1.19368">
        <ele>230.589996</ele>
        <time>2013-03-16T14:32:08Z</time>
      </trkpt>
      <trkpt lat="43.63993" lon="1.19418">
        <ele>230</ele>
        <time>2013-03-16T14:32:19Z</time>
      </trkpt>
      <trkpt lat="43.63983" lon="1.19459">
        <ele>229.795807</ele>
        <time>2013-03-16T14:32:28Z</time>
      </trkpt>
      <trkpt lat="43.63981" lon="1.19466">
        <ele>229.731064</ele>
        <time>2013-03-16T14:32:30Z</time>
      </trkpt>
      <trkpt lat="43.6398" lon="1.19469">
        <ele>229.688156</ele>
        <time>2013-03-16T14:32:31Z</time>
      </trkpt>
      <trkpt lat="43.63973" lon="1.19484">
        <ele>229.440506</ele>
        <time>2013-03-16T14:32:35Z</time>
      </trkpt>
      <trkpt lat="43.63968" lon="1.1949">
        <ele>229.285599</ele>
        <time>2013-03-16T14:32:39Z</time>
      </trkpt>
      <trkpt lat="43.63963" lon="1.19508">
        <ele>229.130295</ele>
        <time>2013-03-16T14:32:44Z</time>
      </trkpt>
      <trkpt lat="43.63963" lon="1.19517">
        <ele>229.094421</ele>
        <time>2013-03-16T14:32:47Z</time>
      </trkpt>
      <trkpt lat="43.63964" lon="1.19525">
        <ele>229.077164</ele>
        <time>2013-03-16T14:32:50Z</time>
      </trkpt>
      <trkpt lat="43.63957" lon="1.19548">
        <ele>228.996674</ele>
        <time>2013-03-16T14:32:58Z</time>
      </trkpt>
      <trkpt lat="43.63955" lon="1.19552">
        <ele>228.997772</ele>
        <time>2013-03-16T14:33:00Z</time>
      </trkpt>
      <trkpt lat="43.6395" lon="1.19565">
        <ele>229</ele>
        <time>2013-03-16T14:33:05Z</time>
      </trkpt>
      <trkpt lat="43.63942" lon="1.19599">
        <ele>229</ele>
        <time>2013-03-16T14:33:18Z</time>
      </trkpt>
      <trkpt lat="43.63935" lon="1.19634">
        <ele>229.178955</ele>
        <time>2013-03-16T14:33:28Z</time>
      </trkpt>
      <trkpt lat="43.63939" lon="1.19663">
        <ele>229.330063</ele>
        <time>2013-03-16T14:33:39Z</time>
      </trkpt>
      <trkpt lat="43.63939" lon="1.19676">
        <ele>229.354996</ele>
        <time>2013-03-16T14:33:47Z</time>
      </trkpt>
      <trkpt lat="43.63937" lon="1.19721">
        <ele>229.417496</ele>
        <time>2013-03-16T14:33:59Z</time>
      </trkpt>
      <trkpt lat="43.63936" lon="1.19741">
        <ele>229.755005</ele>
        <time>2013-03-16T14:34:03Z</time>
      </trkpt>
      <trkpt lat="43.63935" lon="1.19744">
        <ele>229.857498</ele>
        <time>2013-03-16T14:34:04Z</time>
      </trkpt>
      <trkpt lat="43.63934" lon="1.19746">
        <ele>229.96875</ele>
        <time>2013-03-16T14:34:05Z</time>
      </trkpt>
      <trkpt lat="43.63933" lon="1.19749">
        <ele>230.072495</ele>
        <time>2013-03-16T14:34:06Z</time>
      </trkpt>
      <trkpt lat="43.63933" lon="1.19752">
        <ele>230.182495</ele>
        <time>2013-03-16T14:34:07Z</time>
      </trkpt>
      <trkpt lat="43.63933" lon="1.19755">
        <ele>230.289993</ele>
        <time>2013-03-16T14:34:08Z</time>
      </trkpt>
      <trkpt lat="43.63932" lon="1.19759">
        <ele>230.410004</ele>
        <time>2013-03-16T14:34:09Z</time>
      </trkpt>
      <trkpt lat="43.63931" lon="1.19761">
        <ele>230.496246</ele>
        <time>2013-03-16T14:34:10Z</time>
      </trkpt>
      <trkpt lat="43.63925" lon="1.19795">
        <ele>231.711243</ele>
        <time>2013-03-16T14:34:21Z</time>
      </trkpt>
      <trkpt lat="43.63913" lon="1.19838">
        <ele>232.680008</ele>
        <time>2013-03-16T14:34:34Z</time>
      </trkpt>
      <trkpt lat="43.6391" lon="1.1985">
        <ele>232.905624</ele>
        <time>2013-03-16T14:34:38Z</time>
      </trkpt>
      <trkpt lat="43.63908" lon="1.19851">
        <ele>232.91188</ele>
        <time>2013-03-16T14:34:39Z</time>
      </trkpt>
      <trkpt lat="43.63907" lon="1.19849">
        <ele>232.88063</ele>
        <time>2013-03-16T14:34:40Z</time>
      </trkpt>
      <trkpt lat="43.63907" lon="1.19846">
        <ele>232.830627</ele>
        <time>2013-03-16T14:34:41Z</time>
      </trkpt>
      <trkpt lat="43.63906" lon="1.19842">
        <ele>232.771881</ele>
        <time>2013-03-16T14:34:42Z</time>
      </trkpt>
      <trkpt lat="43.63877" lon="1.19799">
        <ele>232.069382</ele>
        <time>2013-03-16T14:34:54Z</time>
      </trkpt>
      <trkpt lat="43.63874" lon="1.19796">
        <ele>232.021881</ele>
        <time>2013-03-16T14:34:55Z</time>
      </trkpt>
      <trkpt lat="43.63872" lon="1.19792">
        <ele>231.944</ele>
        <time>2013-03-16T14:34:56Z</time>
      </trkpt>
      <trkpt lat="43.63867" lon="1.1978">
        <ele>231.75502</ele>
        <time>2013-03-16T14:35:04Z</time>
      </trkpt>
      <trkpt lat="43.63863" lon="1.19779">
        <ele>231.75238</ele>
        <time>2013-03-16T14:35:10Z</time>
      </trkpt>
      <trkpt lat="43.63862" lon="1.19778">
        <ele>231.747162</ele>
        <time>2013-03-16T14:35:11Z</time>
      </trkpt>
      <trkpt lat="43.63855" lon="1.19774">
        <ele>231.746399</ele>
        <time>2013-03-16T14:35:19Z</time>
      </trkpt>
      <trkpt lat="43.63851" lon="1.1977">
        <ele>231.726929</ele>
        <time>2013-03-16T14:35:20Z</time>
      </trkpt>
      <trkpt lat="43.63847" lon="1.19765">
        <ele>231.725967</ele>
        <time>2013-03-16T14:35:21Z</time>
      </trkpt>
      <trkpt lat="43.63842" lon="1.19762">
        <ele>231.756577</ele>
        <time>2013-03-16T14:35:22Z</time>
      </trkpt>
      <trkpt lat="43.63837" lon="1.1976">
        <ele>231.802841</ele>
        <time>2013-03-16T14:35:23Z</time>
      </trkpt>
      <trkpt lat="43.63804" lon="1.19743">
        <ele>232</ele>
        <time>2013-03-16T14:35:33Z</time>
      </trkpt>
      <trkpt lat="43.63803" lon="1.19739">
        <ele>232</ele>
        <time>2013-03-16T14:35:34Z</time>
      </trkpt>
      <trkpt lat="43.63803" lon="1.19736">
        <ele>232</ele>
        <time>2013-03-16T14:35:35Z</time>
      </trkpt>
      <trkpt lat="43.63804" lon="1.19732">
        <ele>231.976868</ele>
        <time>2013-03-16T14:35:36Z</time>
      </trkpt>
      <trkpt lat="43.63805" lon="1.19728">
        <ele>231.936142</ele>
        <time>2013-03-16T14:35:37Z</time>
      </trkpt>
      <trkpt lat="43.63807" lon="1.19725">
        <ele>231.890976</ele>
        <time>2013-03-16T14:35:38Z</time>
      </trkpt>
      <trkpt lat="43.6381" lon="1.19716">
        <ele>231.774246</ele>
        <time>2013-03-16T14:35:40Z</time>
      </trkpt>
      <trkpt lat="43.6381" lon="1.19711">
        <ele>231.718765</ele>
        <time>2013-03-16T14:35:41Z</time>
      </trkpt>
      <trkpt lat="43.63809" lon="1.19707">
        <ele>231.675308</ele>
        <time>2013-03-16T14:35:42Z</time>
      </trkpt>
      <trkpt lat="43.63809" lon="1.19704">
        <ele>231.639099</ele>
        <time>2013-03-16T14:35:43Z</time>
      </trkpt>
      <trkpt lat="43.63807" lon="1.197">
        <ele>231.61412</ele>
        <time>2013-03-16T14:35:44Z</time>
      </trkpt>
      <trkpt lat="43.63805" lon="1.19697">
        <ele>231.599182</ele>
        <time>2013-03-16T14:35:45Z</time>
      </trkpt>
      <trkpt lat="43.63802" lon="1.1969">
        <ele>231.569427</ele>
        <time>2013-03-16T14:35:47Z</time>
      </trkpt>
      <trkpt lat="43.63801" lon="1.19686">
        <ele>231.554886</ele>
        <time>2013-03-16T14:35:48Z</time>
      </trkpt>
      <trkpt lat="43.638" lon="1.19683">
        <ele>231.546967</ele>
        <time>2013-03-16T14:35:49Z</time>
      </trkpt>
      <trkpt lat="43.63799" lon="1.1968">
        <ele>231.533829</ele>
        <time>2013-03-16T14:35:50Z</time>
      </trkpt>
      <trkpt lat="43.63798" lon="1.19676">
        <ele>231.518692</ele>
        <time>2013-03-16T14:35:51Z</time>
      </trkpt>
      <trkpt lat="43.63797" lon="1.19672">
        <ele>231.50737</ele>
        <time>2013-03-16T14:35:52Z</time>
      </trkpt>
      <trkpt lat="43.63785" lon="1.19636">
        <ele>231.317947</ele>
        <time>2013-03-16T14:36:02Z</time>
      </trkpt>
      <trkpt lat="43.63784" lon="1.19632">
        <ele>231.27713</ele>
        <time>2013-03-16T14:36:03Z</time>
      </trkpt>
      <trkpt lat="43.63784" lon="1.19629">
        <ele>231.235397</ele>
        <time>2013-03-16T14:36:04Z</time>
      </trkpt>
      <trkpt lat="43.63766" lon="1.19583">
        <ele>231</ele>
        <time>2013-03-16T14:36:15Z</time>
      </trkpt>
      <trkpt lat="43.63739" lon="1.19537">
        <ele>230.956055</ele>
        <time>2013-03-16T14:36:27Z</time>
      </trkpt>
      <trkpt lat="43.637" lon="1.19487">
        <ele>231</ele>
        <time>2013-03-16T14:36:40Z</time>
      </trkpt>
      <trkpt lat="43.63679" lon="1.19466">
        <ele>231</ele>
        <time>2013-03-16T14:36:46Z</time>
      </trkpt>
      <trkpt lat="43.63674" lon="1.19464">
        <ele>231</ele>
        <time>2013-03-16T14:36:47Z</time>
      </trkpt>
      <trkpt lat="43.63644" lon="1.19458">
        <ele>231</ele>
        <time>2013-03-16T14:36:53Z</time>
      </trkpt>
      <trkpt lat="43.63639" lon="1.19458">
        <ele>231</ele>
        <time>2013-03-16T14:36:54Z</time>
      </trkpt>
      <trkpt lat="43.63628" lon="1.19461">
        <ele>231.235001</ele>
        <time>2013-03-16T14:36:56Z</time>
      </trkpt>
      <trkpt lat="43.63623" lon="1.19463">
        <ele>231.352493</ele>
        <time>2013-03-16T14:36:57Z</time>
      </trkpt>
      <trkpt lat="43.63617" lon="1.19465">
        <ele>231.467499</ele>
        <time>2013-03-16T14:36:58Z</time>
      </trkpt>
      <trkpt lat="43.63608" lon="1.19471">
        <ele>231.6875</ele>
        <time>2013-03-16T14:37:00Z</time>
      </trkpt>
      <trkpt lat="43.63603" lon="1.19473">
        <ele>231.797501</ele>
        <time>2013-03-16T14:37:01Z</time>
      </trkpt>
      <trkpt lat="43.63594" lon="1.19478">
        <ele>231.990005</ele>
        <time>2013-03-16T14:37:03Z</time>
      </trkpt>
      <trkpt lat="43.6359" lon="1.19482">
        <ele>232</ele>
        <time>2013-03-16T14:37:04Z</time>
      </trkpt>
      <trkpt lat="43.63586" lon="1.19486">
        <ele>232</ele>
        <time>2013-03-16T14:37:05Z</time>
      </trkpt>
      <trkpt lat="43.63569" lon="1.19507">
        <ele>232</ele>
        <time>2013-03-16T14:37:10Z</time>
      </trkpt>
      <trkpt lat="43.63566" lon="1.19512">
        <ele>232</ele>
        <time>2013-03-16T14:37:11Z</time>
      </trkpt>
      <trkpt lat="43.63557" lon="1.19533">
        <ele>232</ele>
        <time>2013-03-16T14:37:15Z</time>
      </trkpt>
      <trkpt lat="43.63551" lon="1.19542">
        <ele>232</ele>
        <time>2013-03-16T14:37:17Z</time>
      </trkpt>
      <trkpt lat="43.63547" lon="1.19546">
        <ele>232</ele>
        <time>2013-03-16T14:37:18Z</time>
      </trkpt>
      <trkpt lat="43.63541" lon="1.19554">
        <ele>232</ele>
        <time>2013-03-16T14:37:20Z</time>
      </trkpt>
      <trkpt lat="43.63538" lon="1.19557">
        <ele>232</ele>
        <time>2013-03-16T14:37:21Z</time>
      </trkpt>
      <trkpt lat="43.63534" lon="1.19561">
        <ele>232</ele>
        <time>2013-03-16T14:37:22Z</time>
      </trkpt>
      <trkpt lat="43.63531" lon="1.19564">
        <ele>232</ele>
        <time>2013-03-16T14:37:23Z</time>
      </trkpt>
      <trkpt lat="43.63528" lon="1.19568">
        <ele>232</ele>
        <time>2013-03-16T14:37:24Z</time>
      </trkpt>
      <trkpt lat="43.6349" lon="1.19619">
        <ele>232.364243</ele>
        <time>2013-03-16T14:37:37Z</time>
      </trkpt>
      <trkpt lat="43.63455" lon="1.19655">
        <ele>233</ele>
        <time>2013-03-16T14:37:47Z</time>
      </trkpt>
      <trkpt lat="43.63436" lon="1.19675">
        <ele>233</ele>
        <time>2013-03-16T14:37:52Z</time>
      </trkpt>
      <trkpt lat="43.63412" lon="1.19697">
        <ele>233</ele>
        <time>2013-03-16T14:37:58Z</time>
      </trkpt>
      <trkpt lat="43.63409" lon="1.19701">
        <ele>233</ele>
        <time>2013-03-16T14:37:59Z</time>
      </trkpt>
      <trkpt lat="43.63396" lon="1.19722">
        <ele>233</ele>
        <time>2013-03-16T14:38:03Z</time>
      </trkpt>
      <trkpt lat="43.63394" lon="1.19728">
        <ele>233</ele>
        <time>2013-03-16T14:38:04Z</time>
      </trkpt>
      <trkpt lat="43.63392" lon="1.19733">
        <ele>233</ele>
        <time>2013-03-16T14:38:05Z</time>
      </trkpt>
      <trkpt lat="43.63388" lon="1.19737">
        <ele>233</ele>
        <time>2013-03-16T14:38:06Z</time>
      </trkpt>
      <trkpt lat="43.63385" lon="1.19741">
        <ele>233</ele>
        <time>2013-03-16T14:38:07Z</time>
      </trkpt>
      <trkpt lat="43.63382" lon="1.19746">
        <ele>233.046875</ele>
        <time>2013-03-16T14:38:08Z</time>
      </trkpt>
      <trkpt lat="43.63379" lon="1.1975">
        <ele>233.123123</ele>
        <time>2013-03-16T14:38:09Z</time>
      </trkpt>
      <trkpt lat="43.63376" lon="1.19755">
        <ele>233.193756</ele>
        <time>2013-03-16T14:38:10Z</time>
      </trkpt>
      <trkpt lat="43.63373" lon="1.19759">
        <ele>233.252502</ele>
        <time>2013-03-16T14:38:11Z</time>
      </trkpt>
      <trkpt lat="43.63369" lon="1.19762">
        <ele>233.311249</ele>
        <time>2013-03-16T14:38:12Z</time>
      </trkpt>
      <trkpt lat="43.63362" lon="1.19768">
        <ele>233.394379</ele>
        <time>2013-03-16T14:38:14Z</time>
      </trkpt>
      <trkpt lat="43.63358" lon="1.1977">
        <ele>233.429993</ele>
        <time>2013-03-16T14:38:15Z</time>
      </trkpt>
      <trkpt lat="43.63346" lon="1.19777">
        <ele>233.547501</ele>
        <time>2013-03-16T14:38:18Z</time>
      </trkpt>
      <trkpt lat="43.63342" lon="1.19781">
        <ele>233.59938</ele>
        <time>2013-03-16T14:38:19Z</time>
      </trkpt>
      <trkpt lat="43.63335" lon="1.19788">
        <ele>233.721878</ele>
        <time>2013-03-16T14:38:21Z</time>
      </trkpt>
      <trkpt lat="43.63328" lon="1.19796">
        <ele>233.848755</ele>
        <time>2013-03-16T14:38:23Z</time>
      </trkpt>
      <trkpt lat="43.63324" lon="1.198">
        <ele>233.837585</ele>
        <time>2013-03-16T14:38:24Z</time>
      </trkpt>
      <trkpt lat="43.63311" lon="1.19807">
        <ele>233.643219</ele>
        <time>2013-03-16T14:38:28Z</time>
      </trkpt>
      <trkpt lat="43.63309" lon="1.19811">
        <ele>233.618439</ele>
        <time>2013-03-16T14:38:29Z</time>
      </trkpt>
      <trkpt lat="43.63307" lon="1.19814">
        <ele>233.597214</ele>
        <time>2013-03-16T14:38:30Z</time>
      </trkpt>
      <trkpt lat="43.63305" lon="1.19816">
        <ele>233.573822</ele>
        <time>2013-03-16T14:38:31Z</time>
      </trkpt>
      <trkpt lat="43.63302" lon="1.19819">
        <ele>233.54129</ele>
        <time>2013-03-16T14:38:32Z</time>
      </trkpt>
      <trkpt lat="43.63299" lon="1.1982">
        <ele>233.513321</ele>
        <time>2013-03-16T14:38:33Z</time>
      </trkpt>
      <trkpt lat="43.63296" lon="1.19823">
        <ele>233.486816</ele>
        <time>2013-03-16T14:38:34Z</time>
      </trkpt>
      <trkpt lat="43.63294" lon="1.19825">
        <ele>233.475906</ele>
        <time>2013-03-16T14:38:35Z</time>
      </trkpt>
      <trkpt lat="43.63291" lon="1.19828">
        <ele>233.468323</ele>
        <time>2013-03-16T14:38:36Z</time>
      </trkpt>
      <trkpt lat="43.63288" lon="1.19831">
        <ele>233.466248</ele>
        <time>2013-03-16T14:38:37Z</time>
      </trkpt>
      <trkpt lat="43.63283" lon="1.19835">
        <ele>233.464371</ele>
        <time>2013-03-16T14:38:39Z</time>
      </trkpt>
      <trkpt lat="43.6328" lon="1.19836">
        <ele>233.481247</ele>
        <time>2013-03-16T14:38:40Z</time>
      </trkpt>
      <trkpt lat="43.63277" lon="1.19838">
        <ele>233.504379</ele>
        <time>2013-03-16T14:38:41Z</time>
      </trkpt>
      <trkpt lat="43.63249" lon="1.19842">
        <ele>233.561874</ele>
        <time>2013-03-16T14:38:51Z</time>
      </trkpt>
      <trkpt lat="43.63246" lon="1.19843">
        <ele>233.570618</ele>
        <time>2013-03-16T14:38:52Z</time>
      </trkpt>
      <trkpt lat="43.63243" lon="1.19844">
        <ele>233.588745</ele>
        <time>2013-03-16T14:38:53Z</time>
      </trkpt>
      <trkpt lat="43.6324" lon="1.19845">
        <ele>233.610626</ele>
        <time>2013-03-16T14:38:54Z</time>
      </trkpt>
      <trkpt lat="43.63238" lon="1.19846">
        <ele>233.624374</ele>
        <time>2013-03-16T14:38:55Z</time>
      </trkpt>
      <trkpt lat="43.63235" lon="1.19848">
        <ele>233.65062</ele>
        <time>2013-03-16T14:38:56Z</time>
      </trkpt>
      <trkpt lat="43.63232" lon="1.1985">
        <ele>233.683746</ele>
        <time>2013-03-16T14:38:57Z</time>
      </trkpt>
      <trkpt lat="43.6321" lon="1.19854">
        <ele>233.738129</ele>
        <time>2013-03-16T14:39:04Z</time>
      </trkpt>
      <trkpt lat="43.63208" lon="1.19853">
        <ele>233.72438</ele>
        <time>2013-03-16T14:39:05Z</time>
      </trkpt>
      <trkpt lat="43.63206" lon="1.19852">
        <ele>233.712494</ele>
        <time>2013-03-16T14:39:06Z</time>
      </trkpt>
      <trkpt lat="43.63202" lon="1.1985">
        <ele>233.682495</ele>
        <time>2013-03-16T14:39:08Z</time>
      </trkpt>
      <trkpt lat="43.632" lon="1.1985">
        <ele>233.67688</ele>
        <time>2013-03-16T14:39:09Z</time>
      </trkpt>
      <trkpt lat="43.63199" lon="1.19849">
        <ele>233.663132</ele>
        <time>2013-03-16T14:39:10Z</time>
      </trkpt>
      <trkpt lat="43.63196" lon="1.19848">
        <ele>233.648132</ele>
        <time>2013-03-16T14:39:11Z</time>
      </trkpt>
      <trkpt lat="43.63194" lon="1.19848">
        <ele>233.636246</ele>
        <time>2013-03-16T14:39:12Z</time>
      </trkpt>
      <trkpt lat="43.63169" lon="1.19816">
        <ele>233.569366</ele>
        <time>2013-03-16T14:39:21Z</time>
      </trkpt>
      <trkpt lat="43.63163" lon="1.19807">
        <ele>233.622818</ele>
        <time>2013-03-16T14:39:23Z</time>
      </trkpt>
      <trkpt lat="43.63153" lon="1.19795">
        <ele>233.673706</ele>
        <time>2013-03-16T14:39:26Z</time>
      </trkpt>
      <trkpt lat="43.63141" lon="1.19786">
        <ele>233.670517</ele>
        <time>2013-03-16T14:39:29Z</time>
      </trkpt>
      <trkpt lat="43.63133" lon="1.19779">
        <ele>233.662125</ele>
        <time>2013-03-16T14:39:31Z</time>
      </trkpt>
      <trkpt lat="43.63129" lon="1.19777">
        <ele>233.683167</ele>
        <time>2013-03-16T14:39:32Z</time>
      </trkpt>
      <trkpt lat="43.63126" lon="1.19777">
        <ele>233.728317</ele>
        <time>2013-03-16T14:39:33Z</time>
      </trkpt>
      <trkpt lat="43.63122" lon="1.19779">
        <ele>233.788223</ele>
        <time>2013-03-16T14:39:34Z</time>
      </trkpt>
      <trkpt lat="43.63118" lon="1.19781">
        <ele>233.8358</ele>
        <time>2013-03-16T14:39:35Z</time>
      </trkpt>
      <trkpt lat="43.63115" lon="1.1978">
        <ele>233.86647</ele>
        <time>2013-03-16T14:39:36Z</time>
      </trkpt>
      <trkpt lat="43.63112" lon="1.19779">
        <ele>233.890625</ele>
        <time>2013-03-16T14:39:37Z</time>
      </trkpt>
      <trkpt lat="43.63109" lon="1.19777">
        <ele>233.924118</ele>
        <time>2013-03-16T14:39:38Z</time>
      </trkpt>
      <trkpt lat="43.63106" lon="1.19775">
        <ele>233.959351</ele>
        <time>2013-03-16T14:39:39Z</time>
      </trkpt>
      <trkpt lat="43.63103" lon="1.19773">
        <ele>233.996979</ele>
        <time>2013-03-16T14:39:40Z</time>
      </trkpt>
      <trkpt lat="43.63099" lon="1.1977">
        <ele>234</ele>
        <time>2013-03-16T14:39:41Z</time>
      </trkpt>
      <trkpt lat="43.63095" lon="1.19768">
        <ele>234</ele>
        <time>2013-03-16T14:39:42Z</time>
      </trkpt>
      <trkpt lat="43.63084" lon="1.19757">
        <ele>234</ele>
        <time>2013-03-16T14:39:46Z</time>
      </trkpt>
      <trkpt lat="43.63081" lon="1.19755">
        <ele>234</ele>
        <time>2013-03-16T14:39:47Z</time>
      </trkpt>
      <trkpt lat="43.63052" lon="1.19725">
        <ele>234.112503</ele>
        <time>2013-03-16T14:39:57Z</time>
      </trkpt>
      <trkpt lat="43.63018" lon="1.19712">
        <ele>234.854996</ele>
        <time>2013-03-16T14:40:06Z</time>
      </trkpt>
      <trkpt lat="43.62995" lon="1.19705">
        <ele>235.362503</ele>
        <time>2013-03-16T14:40:12Z</time>
      </trkpt>
      <trkpt lat="43.62993" lon="1.19702">
        <ele>235.414993</ele>
        <time>2013-03-16T14:40:13Z</time>
      </trkpt>
      <trkpt lat="43.62991" lon="1.19699">
        <ele>235.464996</ele>
        <time>2013-03-16T14:40:14Z</time>
      </trkpt>
      <trkpt lat="43.62963" lon="1.19675">
        <ele>236.322495</ele>
        <time>2013-03-16T14:40:23Z</time>
      </trkpt>
      <trkpt lat="43.6296" lon="1.19675">
        <ele>236.383743</ele>
        <time>2013-03-16T14:40:24Z</time>
      </trkpt>
      <trkpt lat="43.62956" lon="1.19675">
        <ele>236.460007</ele>
        <time>2013-03-16T14:40:25Z</time>
      </trkpt>
      <trkpt lat="43.62953" lon="1.19674">
        <ele>236.536255</ele>
        <time>2013-03-16T14:40:26Z</time>
      </trkpt>
      <trkpt lat="43.62951" lon="1.19674">
        <ele>236.608749</ele>
        <time>2013-03-16T14:40:27Z</time>
      </trkpt>
      <trkpt lat="43.62947" lon="1.19674">
        <ele>236.695007</ele>
        <time>2013-03-16T14:40:28Z</time>
      </trkpt>
      <trkpt lat="43.62943" lon="1.19675">
        <ele>236.764374</ele>
        <time>2013-03-16T14:40:29Z</time>
      </trkpt>
      <trkpt lat="43.62939" lon="1.19676">
        <ele>236.814377</ele>
        <time>2013-03-16T14:40:30Z</time>
      </trkpt>
      <trkpt lat="43.62936" lon="1.19679">
        <ele>236.846878</ele>
        <time>2013-03-16T14:40:31Z</time>
      </trkpt>
      <trkpt lat="43.62909" lon="1.19678">
        <ele>237.193756</ele>
        <time>2013-03-16T14:40:39Z</time>
      </trkpt>
      <trkpt lat="43.62905" lon="1.19677">
        <ele>237.222504</ele>
        <time>2013-03-16T14:40:41Z</time>
      </trkpt>
      <trkpt lat="43.62902" lon="1.19675">
        <ele>237.247498</ele>
        <time>2013-03-16T14:40:42Z</time>
      </trkpt>
      <trkpt lat="43.629" lon="1.19673">
        <ele>237.280624</ele>
        <time>2013-03-16T14:40:43Z</time>
      </trkpt>
      <trkpt lat="43.62898" lon="1.19671">
        <ele>237.309998</ele>
        <time>2013-03-16T14:40:44Z</time>
      </trkpt>
      <trkpt lat="43.62896" lon="1.1967">
        <ele>237.336868</ele>
        <time>2013-03-16T14:40:45Z</time>
      </trkpt>
      <trkpt lat="43.62895" lon="1.19668">
        <ele>237.361252</ele>
        <time>2013-03-16T14:40:46Z</time>
      </trkpt>
      <trkpt lat="43.62894" lon="1.19666">
        <ele>237.392502</ele>
        <time>2013-03-16T14:40:47Z</time>
      </trkpt>
      <trkpt lat="43.62891" lon="1.19664">
        <ele>237.428757</ele>
        <time>2013-03-16T14:40:48Z</time>
      </trkpt>
      <trkpt lat="43.62889" lon="1.19662">
        <ele>237.464996</ele>
        <time>2013-03-16T14:40:49Z</time>
      </trkpt>
      <trkpt lat="43.62887" lon="1.1966">
        <ele>237.498123</ele>
        <time>2013-03-16T14:40:50Z</time>
      </trkpt>
      <trkpt lat="43.62884" lon="1.19658">
        <ele>237.533127</ele>
        <time>2013-03-16T14:40:51Z</time>
      </trkpt>
      <trkpt lat="43.62881" lon="1.19656">
        <ele>237.556244</ele>
        <time>2013-03-16T14:40:52Z</time>
      </trkpt>
      <trkpt lat="43.62878" lon="1.19655">
        <ele>237.574997</ele>
        <time>2013-03-16T14:40:53Z</time>
      </trkpt>
      <trkpt lat="43.62876" lon="1.19653">
        <ele>237.603561</ele>
        <time>2013-03-16T14:40:54Z</time>
      </trkpt>
      <trkpt lat="43.62874" lon="1.1965">
        <ele>237.622849</ele>
        <time>2013-03-16T14:40:55Z</time>
      </trkpt>
      <trkpt lat="43.62872" lon="1.19647">
        <ele>237.64003</ele>
        <time>2013-03-16T14:40:56Z</time>
      </trkpt>
      <trkpt lat="43.62869" lon="1.19645">
        <ele>237.62645</ele>
        <time>2013-03-16T14:40:57Z</time>
      </trkpt>
      <trkpt lat="43.62866" lon="1.19642">
        <ele>237.618057</ele>
        <time>2013-03-16T14:40:58Z</time>
      </trkpt>
      <trkpt lat="43.62863" lon="1.19639">
        <ele>237.605515</ele>
        <time>2013-03-16T14:40:59Z</time>
      </trkpt>
      <trkpt lat="43.62861" lon="1.19637">
        <ele>237.579269</ele>
        <time>2013-03-16T14:41:00Z</time>
      </trkpt>
      <trkpt lat="43.62858" lon="1.19635">
        <ele>237.54628</ele>
        <time>2013-03-16T14:41:01Z</time>
      </trkpt>
      <trkpt lat="43.62855" lon="1.19632">
        <ele>237.51059</ele>
        <time>2013-03-16T14:41:02Z</time>
      </trkpt>
      <trkpt lat="43.62852" lon="1.1963">
        <ele>237.468063</ele>
        <time>2013-03-16T14:41:03Z</time>
      </trkpt>
      <trkpt lat="43.62824" lon="1.19606">
        <ele>237</ele>
        <time>2013-03-16T14:41:13Z</time>
      </trkpt>
      <trkpt lat="43.62795" lon="1.19583">
        <ele>237</ele>
        <time>2013-03-16T14:41:22Z</time>
      </trkpt>
      <trkpt lat="43.62788" lon="1.19577">
        <ele>237</ele>
        <time>2013-03-16T14:41:24Z</time>
      </trkpt>
      <trkpt lat="43.62767" lon="1.19561">
        <ele>237</ele>
        <time>2013-03-16T14:41:30Z</time>
      </trkpt>
      <trkpt lat="43.62764" lon="1.19557">
        <ele>237</ele>
        <time>2013-03-16T14:41:31Z</time>
      </trkpt>
      <trkpt lat="43.62761" lon="1.19555">
        <ele>237</ele>
        <time>2013-03-16T14:41:32Z</time>
      </trkpt>
      <trkpt lat="43.62757" lon="1.19554">
        <ele>237</ele>
        <time>2013-03-16T14:41:33Z</time>
      </trkpt>
      <trkpt lat="43.62754" lon="1.19552">
        <ele>237</ele>
        <time>2013-03-16T14:41:34Z</time>
      </trkpt>
      <trkpt lat="43.62751" lon="1.19549">
        <ele>237</ele>
        <time>2013-03-16T14:41:35Z</time>
      </trkpt>
      <trkpt lat="43.62748" lon="1.19547">
        <ele>237</ele>
        <time>2013-03-16T14:41:36Z</time>
      </trkpt>
      <trkpt lat="43.62745" lon="1.19544">
        <ele>237</ele>
        <time>2013-03-16T14:41:37Z</time>
      </trkpt>
      <trkpt lat="43.62742" lon="1.19541">
        <ele>237</ele>
        <time>2013-03-16T14:41:38Z</time>
      </trkpt>
      <trkpt lat="43.62715" lon="1.19518">
        <ele>237</ele>
        <time>2013-03-16T14:41:46Z</time>
      </trkpt>
      <trkpt lat="43.62711" lon="1.19516">
        <ele>237</ele>
        <time>2013-03-16T14:41:47Z</time>
      </trkpt>
      <trkpt lat="43.62708" lon="1.19513">
        <ele>237</ele>
        <time>2013-03-16T14:41:48Z</time>
      </trkpt>
      <trkpt lat="43.62683" lon="1.19505">
        <ele>237</ele>
        <time>2013-03-16T14:41:55Z</time>
      </trkpt>
      <trkpt lat="43.6268" lon="1.19509">
        <ele>237</ele>
        <time>2013-03-16T14:41:56Z</time>
      </trkpt>
      <trkpt lat="43.62679" lon="1.19513">
        <ele>237</ele>
        <time>2013-03-16T14:41:57Z</time>
      </trkpt>
      <trkpt lat="43.62653" lon="1.19567">
        <ele>237</ele>
        <time>2013-03-16T14:42:09Z</time>
      </trkpt>
      <trkpt lat="43.62628" lon="1.19626">
        <ele>237</ele>
        <time>2013-03-16T14:42:21Z</time>
      </trkpt>
      <trkpt lat="43.6262" lon="1.19642">
        <ele>236.875</ele>
        <time>2013-03-16T14:42:24Z</time>
      </trkpt>
      <trkpt lat="43.62601" lon="1.19688">
        <ele>236.133118</ele>
        <time>2013-03-16T14:42:33Z</time>
      </trkpt>
      <trkpt lat="43.62595" lon="1.19703">
        <ele>236</ele>
        <time>2013-03-16T14:42:36Z</time>
      </trkpt>
      <trkpt lat="43.62587" lon="1.19716">
        <ele>236</ele>
        <time>2013-03-16T14:42:39Z</time>
      </trkpt>
      <trkpt lat="43.62583" lon="1.19729">
        <ele>236</ele>
        <time>2013-03-16T14:42:41Z</time>
      </trkpt>
      <trkpt lat="43.6258" lon="1.19735">
        <ele>236</ele>
        <time>2013-03-16T14:42:42Z</time>
      </trkpt>
      <trkpt lat="43.62577" lon="1.19741">
        <ele>236</ele>
        <time>2013-03-16T14:42:43Z</time>
      </trkpt>
      <trkpt lat="43.62575" lon="1.19747">
        <ele>236</ele>
        <time>2013-03-16T14:42:44Z</time>
      </trkpt>
      <trkpt lat="43.62572" lon="1.19752">
        <ele>236</ele>
        <time>2013-03-16T14:42:45Z</time>
      </trkpt>
      <trkpt lat="43.62564" lon="1.19769">
        <ele>235.832504</ele>
        <time>2013-03-16T14:42:48Z</time>
      </trkpt>
      <trkpt lat="43.62562" lon="1.19775">
        <ele>235.715347</ele>
        <time>2013-03-16T14:42:49Z</time>
      </trkpt>
      <trkpt lat="43.62548" lon="1.198">
        <ele>235.227783</ele>
        <time>2013-03-16T14:42:55Z</time>
      </trkpt>
      <trkpt lat="43.62547" lon="1.19804">
        <ele>235.174332</ele>
        <time>2013-03-16T14:42:56Z</time>
      </trkpt>
      <trkpt lat="43.62545" lon="1.19809">
        <ele>235.123611</ele>
        <time>2013-03-16T14:42:57Z</time>
      </trkpt>
      <trkpt lat="43.62543" lon="1.19812">
        <ele>235.086365</ele>
        <time>2013-03-16T14:42:58Z</time>
      </trkpt>
      <trkpt lat="43.62542" lon="1.19814">
        <ele>235.06041</ele>
        <time>2013-03-16T14:42:59Z</time>
      </trkpt>
      <trkpt lat="43.62541" lon="1.19817">
        <ele>235.032974</ele>
        <time>2013-03-16T14:43:00Z</time>
      </trkpt>
      <trkpt lat="43.62528" lon="1.19849">
        <ele>234.559372</ele>
        <time>2013-03-16T14:43:07Z</time>
      </trkpt>
      <trkpt lat="43.62526" lon="1.19854">
        <ele>234.477493</ele>
        <time>2013-03-16T14:43:08Z</time>
      </trkpt>
      <trkpt lat="43.62513" lon="1.19887">
        <ele>234.123718</ele>
        <time>2013-03-16T14:43:15Z</time>
      </trkpt>
      <trkpt lat="43.62497" lon="1.19927">
        <ele>233.810944</ele>
        <time>2013-03-16T14:43:23Z</time>
      </trkpt>
      <trkpt lat="43.62495" lon="1.1993">
        <ele>233.74231</ele>
        <time>2013-03-16T14:43:24Z</time>
      </trkpt>
      <trkpt lat="43.62494" lon="1.19934">
        <ele>233.656433</ele>
        <time>2013-03-16T14:43:25Z</time>
      </trkpt>
      <trkpt lat="43.62491" lon="1.19941">
        <ele>233.467651</ele>
        <time>2013-03-16T14:43:27Z</time>
      </trkpt>
      <trkpt lat="43.62489" lon="1.19945">
        <ele>233.340179</ele>
        <time>2013-03-16T14:43:28Z</time>
      </trkpt>
      <trkpt lat="43.62486" lon="1.19948">
        <ele>233.26329</ele>
        <time>2013-03-16T14:43:29Z</time>
      </trkpt>
      <trkpt lat="43.62483" lon="1.19952">
        <ele>233.204849</ele>
        <time>2013-03-16T14:43:30Z</time>
      </trkpt>
      <trkpt lat="43.62481" lon="1.19955">
        <ele>233.161652</ele>
        <time>2013-03-16T14:43:31Z</time>
      </trkpt>
      <trkpt lat="43.6248" lon="1.19957">
        <ele>233.140182</ele>
        <time>2013-03-16T14:43:32Z</time>
      </trkpt>
      <trkpt lat="43.62479" lon="1.1996">
        <ele>233.106537</ele>
        <time>2013-03-16T14:43:33Z</time>
      </trkpt>
      <trkpt lat="43.62477" lon="1.19963">
        <ele>233.06369</ele>
        <time>2013-03-16T14:43:34Z</time>
      </trkpt>
      <trkpt lat="43.62476" lon="1.19967">
        <ele>233.026657</ele>
        <time>2013-03-16T14:43:35Z</time>
      </trkpt>
      <trkpt lat="43.62475" lon="1.19971">
        <ele>233.004562</ele>
        <time>2013-03-16T14:43:36Z</time>
      </trkpt>
      <trkpt lat="43.62473" lon="1.19975">
        <ele>233.026932</ele>
        <time>2013-03-16T14:43:37Z</time>
      </trkpt>
      <trkpt lat="43.62471" lon="1.19979">
        <ele>233.047318</ele>
        <time>2013-03-16T14:43:38Z</time>
      </trkpt>
      <trkpt lat="43.62468" lon="1.19982">
        <ele>233.068405</ele>
        <time>2013-03-16T14:43:39Z</time>
      </trkpt>
      <trkpt lat="43.62465" lon="1.19984">
        <ele>233.089294</ele>
        <time>2013-03-16T14:43:40Z</time>
      </trkpt>
      <trkpt lat="43.62462" lon="1.19986">
        <ele>233.104752</ele>
        <time>2013-03-16T14:43:41Z</time>
      </trkpt>
      <trkpt lat="43.6246" lon="1.19988">
        <ele>233.11116</ele>
        <time>2013-03-16T14:43:42Z</time>
      </trkpt>
      <trkpt lat="43.62459" lon="1.19992">
        <ele>233.101746</ele>
        <time>2013-03-16T14:43:43Z</time>
      </trkpt>
      <trkpt lat="43.62459" lon="1.19995">
        <ele>233.079163</ele>
        <time>2013-03-16T14:43:44Z</time>
      </trkpt>
      <trkpt lat="43.6246" lon="1.19999">
        <ele>233.054947</ele>
        <time>2013-03-16T14:43:45Z</time>
      </trkpt>
      <trkpt lat="43.6246" lon="1.20002">
        <ele>233.034805</ele>
        <time>2013-03-16T14:43:46Z</time>
      </trkpt>
      <trkpt lat="43.6246" lon="1.20006">
        <ele>233.017624</ele>
        <time>2013-03-16T14:43:47Z</time>
      </trkpt>
      <trkpt lat="43.62459" lon="1.20009">
        <ele>233.011673</ele>
        <time>2013-03-16T14:43:48Z</time>
      </trkpt>
      <trkpt lat="43.62457" lon="1.20013">
        <ele>233.111877</ele>
        <time>2013-03-16T14:43:49Z</time>
      </trkpt>
      <trkpt lat="43.62455" lon="1.20017">
        <ele>233.215576</ele>
        <time>2013-03-16T14:43:50Z</time>
      </trkpt>
      <trkpt lat="43.62454" lon="1.20021">
        <ele>233.304092</ele>
        <time>2013-03-16T14:43:51Z</time>
      </trkpt>
      <trkpt lat="43.62452" lon="1.20025">
        <ele>233.356766</ele>
        <time>2013-03-16T14:43:52Z</time>
      </trkpt>
      <trkpt lat="43.62447" lon="1.20033">
        <ele>233.423645</ele>
        <time>2013-03-16T14:43:54Z</time>
      </trkpt>
      <trkpt lat="43.62444" lon="1.20037">
        <ele>233.410065</ele>
        <time>2013-03-16T14:43:55Z</time>
      </trkpt>
      <trkpt lat="43.62442" lon="1.20042">
        <ele>233.39563</ele>
        <time>2013-03-16T14:43:56Z</time>
      </trkpt>
      <trkpt lat="43.6244" lon="1.20046">
        <ele>233.379974</ele>
        <time>2013-03-16T14:43:57Z</time>
      </trkpt>
      <trkpt lat="43.62439" lon="1.20051">
        <ele>233.342026</ele>
        <time>2013-03-16T14:43:58Z</time>
      </trkpt>
      <trkpt lat="43.62437" lon="1.20055">
        <ele>233.281616</ele>
        <time>2013-03-16T14:43:59Z</time>
      </trkpt>
      <trkpt lat="43.62416" lon="1.20103">
        <ele>232.983231</ele>
        <time>2013-03-16T14:44:09Z</time>
      </trkpt>
      <trkpt lat="43.62397" lon="1.20149">
        <ele>232.732224</ele>
        <time>2013-03-16T14:44:20Z</time>
      </trkpt>
      <trkpt lat="43.6238" lon="1.20189">
        <ele>232.39978</ele>
        <time>2013-03-16T14:44:30Z</time>
      </trkpt>
      <trkpt lat="43.62363" lon="1.20222">
        <ele>232.768982</ele>
        <time>2013-03-16T14:44:39Z</time>
      </trkpt>
      <trkpt lat="43.6236" lon="1.20222">
        <ele>232.564087</ele>
        <time>2013-03-16T14:44:40Z</time>
      </trkpt>
      <trkpt lat="43.62357" lon="1.20221">
        <ele>232.271393</ele>
        <time>2013-03-16T14:44:41Z</time>
      </trkpt>
      <trkpt lat="43.62341" lon="1.2021">
        <ele>230.585861</ele>
        <time>2013-03-16T14:44:45Z</time>
      </trkpt>
      <trkpt lat="43.62329" lon="1.202">
        <ele>229.811569</ele>
        <time>2013-03-16T14:44:47Z</time>
      </trkpt>
      <trkpt lat="43.62324" lon="1.20195">
        <ele>229.626404</ele>
        <time>2013-03-16T14:44:48Z</time>
      </trkpt>
      <trkpt lat="43.62318" lon="1.20191">
        <ele>229.615952</ele>
        <time>2013-03-16T14:44:49Z</time>
      </trkpt>
      <trkpt lat="43.62308" lon="1.20183">
        <ele>229.644806</ele>
        <time>2013-03-16T14:44:51Z</time>
      </trkpt>
      <trkpt lat="43.62279" lon="1.20159">
        <ele>230.668747</ele>
        <time>2013-03-16T14:45:01Z</time>
      </trkpt>
      <trkpt lat="43.62257" lon="1.2014">
        <ele>231.775009</ele>
        <time>2013-03-16T14:45:10Z</time>
      </trkpt>
      <trkpt lat="43.62246" lon="1.20131">
        <ele>232.612396</ele>
        <time>2013-03-16T14:45:14Z</time>
      </trkpt>
      <trkpt lat="43.62244" lon="1.20129">
        <ele>232.859131</ele>
        <time>2013-03-16T14:45:15Z</time>
      </trkpt>
      <trkpt lat="43.62242" lon="1.20126">
        <ele>233.128998</ele>
        <time>2013-03-16T14:45:16Z</time>
      </trkpt>
      <trkpt lat="43.62239" lon="1.20123">
        <ele>233.40126</ele>
        <time>2013-03-16T14:45:17Z</time>
      </trkpt>
      <trkpt lat="43.62236" lon="1.20121">
        <ele>233.645172</ele>
        <time>2013-03-16T14:45:18Z</time>
      </trkpt>
      <trkpt lat="43.62233" lon="1.20119">
        <ele>233.860733</ele>
        <time>2013-03-16T14:45:19Z</time>
      </trkpt>
      <trkpt lat="43.62208" lon="1.20097">
        <ele>235.617996</ele>
        <time>2013-03-16T14:45:28Z</time>
      </trkpt>
      <trkpt lat="43.62179" lon="1.20074">
        <ele>236.634018</ele>
        <time>2013-03-16T14:45:37Z</time>
      </trkpt>
      <trkpt lat="43.62175" lon="1.20071">
        <ele>236.722641</ele>
        <time>2013-03-16T14:45:38Z</time>
      </trkpt>
      <trkpt lat="43.62146" lon="1.20045">
        <ele>237.162689</ele>
        <time>2013-03-16T14:45:48Z</time>
      </trkpt>
      <trkpt lat="43.62136" lon="1.20038">
        <ele>237.2043</ele>
        <time>2013-03-16T14:45:51Z</time>
      </trkpt>
      <trkpt lat="43.62132" lon="1.20036">
        <ele>237.216003</ele>
        <time>2013-03-16T14:45:52Z</time>
      </trkpt>
      <trkpt lat="43.62128" lon="1.20034">
        <ele>237.219452</ele>
        <time>2013-03-16T14:45:53Z</time>
      </trkpt>
      <trkpt lat="43.62125" lon="1.20031">
        <ele>237.206009</ele>
        <time>2013-03-16T14:45:54Z</time>
      </trkpt>
      <trkpt lat="43.62122" lon="1.20029">
        <ele>237.188675</ele>
        <time>2013-03-16T14:45:55Z</time>
      </trkpt>
      <trkpt lat="43.62119" lon="1.20026">
        <ele>237.161072</ele>
        <time>2013-03-16T14:45:56Z</time>
      </trkpt>
      <trkpt lat="43.62115" lon="1.20023">
        <ele>237.119736</ele>
        <time>2013-03-16T14:45:57Z</time>
      </trkpt>
      <trkpt lat="43.62107" lon="1.2002">
        <ele>237.058624</ele>
        <time>2013-03-16T14:46:00Z</time>
      </trkpt>
      <trkpt lat="43.62105" lon="1.20023">
        <ele>237.089096</ele>
        <time>2013-03-16T14:46:01Z</time>
      </trkpt>
      <trkpt lat="43.62103" lon="1.20028">
        <ele>237.132477</ele>
        <time>2013-03-16T14:46:02Z</time>
      </trkpt>
      <trkpt lat="43.621" lon="1.20032">
        <ele>237.167938</ele>
        <time>2013-03-16T14:46:03Z</time>
      </trkpt>
      <trkpt lat="43.62098" lon="1.20036">
        <ele>237.197998</ele>
        <time>2013-03-16T14:46:04Z</time>
      </trkpt>
      <trkpt lat="43.62074" lon="1.20081">
        <ele>237.05484</ele>
        <time>2013-03-16T14:46:15Z</time>
      </trkpt>
      <trkpt lat="43.62056" lon="1.20122">
        <ele>236.645004</ele>
        <time>2013-03-16T14:46:26Z</time>
      </trkpt>
      <trkpt lat="43.62043" lon="1.20155">
        <ele>236.261795</ele>
        <time>2013-03-16T14:46:33Z</time>
      </trkpt>
      <trkpt lat="43.62041" lon="1.2016">
        <ele>236.207016</ele>
        <time>2013-03-16T14:46:34Z</time>
      </trkpt>
      <trkpt lat="43.62016" lon="1.20215">
        <ele>234.923141</ele>
        <time>2013-03-16T14:46:46Z</time>
      </trkpt>
      <trkpt lat="43.62001" lon="1.20248">
        <ele>233.050629</ele>
        <time>2013-03-16T14:46:52Z</time>
      </trkpt>
      <trkpt lat="43.61997" lon="1.20255">
        <ele>232.682373</ele>
        <time>2013-03-16T14:46:53Z</time>
      </trkpt>
      <trkpt lat="43.61985" lon="1.20282">
        <ele>231.493881</ele>
        <time>2013-03-16T14:46:56Z</time>
      </trkpt>
      <trkpt lat="43.6198" lon="1.20292">
        <ele>231.381683</ele>
        <time>2013-03-16T14:46:57Z</time>
      </trkpt>
      <trkpt lat="43.61976" lon="1.20302">
        <ele>231.391968</ele>
        <time>2013-03-16T14:46:58Z</time>
      </trkpt>
      <trkpt lat="43.61973" lon="1.20309">
        <ele>231.467148</ele>
        <time>2013-03-16T14:46:59Z</time>
      </trkpt>
      <trkpt lat="43.6197" lon="1.20316">
        <ele>231.568069</ele>
        <time>2013-03-16T14:47:00Z</time>
      </trkpt>
      <trkpt lat="43.61967" lon="1.20321">
        <ele>231.667618</ele>
        <time>2013-03-16T14:47:01Z</time>
      </trkpt>
      <trkpt lat="43.61966" lon="1.20327">
        <ele>231.711655</ele>
        <time>2013-03-16T14:47:02Z</time>
      </trkpt>
      <trkpt lat="43.61964" lon="1.20331">
        <ele>231.753845</ele>
        <time>2013-03-16T14:47:03Z</time>
      </trkpt>
      <trkpt lat="43.61961" lon="1.20334">
        <ele>231.886032</ele>
        <time>2013-03-16T14:47:04Z</time>
      </trkpt>
      <trkpt lat="43.61958" lon="1.20335">
        <ele>232.109161</ele>
        <time>2013-03-16T14:47:05Z</time>
      </trkpt>
      <trkpt lat="43.61955" lon="1.20335">
        <ele>232.405853</ele>
        <time>2013-03-16T14:47:06Z</time>
      </trkpt>
      <trkpt lat="43.61951" lon="1.20334">
        <ele>232.736801</ele>
        <time>2013-03-16T14:47:07Z</time>
      </trkpt>
      <trkpt lat="43.61948" lon="1.20332">
        <ele>233.063477</ele>
        <time>2013-03-16T14:47:08Z</time>
      </trkpt>
      <trkpt lat="43.61911" lon="1.20303">
        <ele>235.244995</ele>
        <time>2013-03-16T14:47:20Z</time>
      </trkpt>
      <trkpt lat="43.61875" lon="1.20271">
        <ele>236</ele>
        <time>2013-03-16T14:47:33Z</time>
      </trkpt>
      <trkpt lat="43.61835" lon="1.20237">
        <ele>236</ele>
        <time>2013-03-16T14:47:45Z</time>
      </trkpt>
      <trkpt lat="43.61816" lon="1.2022">
        <ele>236</ele>
        <time>2013-03-16T14:47:50Z</time>
      </trkpt>
      <trkpt lat="43.61812" lon="1.20217">
        <ele>236</ele>
        <time>2013-03-16T14:47:51Z</time>
      </trkpt>
      <trkpt lat="43.61795" lon="1.20203">
        <ele>236</ele>
        <time>2013-03-16T14:47:56Z</time>
      </trkpt>
      <trkpt lat="43.61792" lon="1.20202">
        <ele>236</ele>
        <time>2013-03-16T14:47:57Z</time>
      </trkpt>
      <trkpt lat="43.61789" lon="1.20204">
        <ele>236</ele>
        <time>2013-03-16T14:47:58Z</time>
      </trkpt>
      <trkpt lat="43.61786" lon="1.20207">
        <ele>236</ele>
        <time>2013-03-16T14:47:59Z</time>
      </trkpt>
      <trkpt lat="43.61783" lon="1.2021">
        <ele>236</ele>
        <time>2013-03-16T14:48:00Z</time>
      </trkpt>
      <trkpt lat="43.61781" lon="1.20214">
        <ele>236</ele>
        <time>2013-03-16T14:48:01Z</time>
      </trkpt>
      <trkpt lat="43.61766" lon="1.20246">
        <ele>236</ele>
        <time>2013-03-16T14:48:08Z</time>
      </trkpt>
      <trkpt lat="43.61764" lon="1.2025">
        <ele>236</ele>
        <time>2013-03-16T14:48:09Z</time>
      </trkpt>
      <trkpt lat="43.61755" lon="1.20266">
        <ele>236</ele>
        <time>2013-03-16T14:48:13Z</time>
      </trkpt>
      <trkpt lat="43.61753" lon="1.2027">
        <ele>236</ele>
        <time>2013-03-16T14:48:14Z</time>
      </trkpt>
      <trkpt lat="43.61751" lon="1.20275">
        <ele>236</ele>
        <time>2013-03-16T14:48:15Z</time>
      </trkpt>
      <trkpt lat="43.6175" lon="1.20279">
        <ele>236</ele>
        <time>2013-03-16T14:48:16Z</time>
      </trkpt>
      <trkpt lat="43.61748" lon="1.20284">
        <ele>236</ele>
        <time>2013-03-16T14:48:17Z</time>
      </trkpt>
      <trkpt lat="43.61747" lon="1.20289">
        <ele>236</ele>
        <time>2013-03-16T14:48:18Z</time>
      </trkpt>
      <trkpt lat="43.6173" lon="1.20326">
        <ele>236</ele>
        <time>2013-03-16T14:48:26Z</time>
      </trkpt>
      <trkpt lat="43.61727" lon="1.20331">
        <ele>236</ele>
        <time>2013-03-16T14:48:27Z</time>
      </trkpt>
      <trkpt lat="43.61726" lon="1.20336">
        <ele>235.987228</ele>
        <time>2013-03-16T14:48:28Z</time>
      </trkpt>
      <trkpt lat="43.61715" lon="1.20366">
        <ele>236</ele>
        <time>2013-03-16T14:48:34Z</time>
      </trkpt>
      <trkpt lat="43.61713" lon="1.20372">
        <ele>236</ele>
        <time>2013-03-16T14:48:35Z</time>
      </trkpt>
      <trkpt lat="43.61698" lon="1.204">
        <ele>236.033234</ele>
        <time>2013-03-16T14:48:41Z</time>
      </trkpt>
      <trkpt lat="43.61697" lon="1.20406">
        <ele>236.073578</ele>
        <time>2013-03-16T14:48:42Z</time>
      </trkpt>
      <trkpt lat="43.61694" lon="1.20411">
        <ele>236.118423</ele>
        <time>2013-03-16T14:48:43Z</time>
      </trkpt>
      <trkpt lat="43.61693" lon="1.20415">
        <ele>236.162872</ele>
        <time>2013-03-16T14:48:44Z</time>
      </trkpt>
      <trkpt lat="43.61691" lon="1.20419">
        <ele>236.210983</ele>
        <time>2013-03-16T14:48:45Z</time>
      </trkpt>
      <trkpt lat="43.61689" lon="1.20423">
        <ele>236.2715</ele>
        <time>2013-03-16T14:48:46Z</time>
      </trkpt>
      <trkpt lat="43.61686" lon="1.20428">
        <ele>236.350113</ele>
        <time>2013-03-16T14:48:47Z</time>
      </trkpt>
      <trkpt lat="43.61684" lon="1.20434">
        <ele>236.443954</ele>
        <time>2013-03-16T14:48:48Z</time>
      </trkpt>
      <trkpt lat="43.61682" lon="1.20439">
        <ele>236.541092</ele>
        <time>2013-03-16T14:48:49Z</time>
      </trkpt>
      <trkpt lat="43.61657" lon="1.20499">
        <ele>236.664993</ele>
        <time>2013-03-16T14:49:00Z</time>
      </trkpt>
      <trkpt lat="43.61652" lon="1.2051">
        <ele>236.557495</ele>
        <time>2013-03-16T14:49:02Z</time>
      </trkpt>
      <trkpt lat="43.61649" lon="1.20515">
        <ele>236.5</ele>
        <time>2013-03-16T14:49:03Z</time>
      </trkpt>
      <trkpt lat="43.61641" lon="1.2053">
        <ele>236.029373</ele>
        <time>2013-03-16T14:49:06Z</time>
      </trkpt>
      <trkpt lat="43.61638" lon="1.20535">
        <ele>235.807343</ele>
        <time>2013-03-16T14:49:07Z</time>
      </trkpt>
      <trkpt lat="43.61635" lon="1.20539">
        <ele>235.606125</ele>
        <time>2013-03-16T14:49:08Z</time>
      </trkpt>
      <trkpt lat="43.61631" lon="1.20541">
        <ele>235.434631</ele>
        <time>2013-03-16T14:49:09Z</time>
      </trkpt>
      <trkpt lat="43.61627" lon="1.20541">
        <ele>235.317505</ele>
        <time>2013-03-16T14:49:10Z</time>
      </trkpt>
      <trkpt lat="43.61623" lon="1.2054">
        <ele>235.102493</ele>
        <time>2013-03-16T14:49:11Z</time>
      </trkpt>
      <trkpt lat="43.6162" lon="1.20537">
        <ele>234.972504</ele>
        <time>2013-03-16T14:49:12Z</time>
      </trkpt>
      <trkpt lat="43.61617" lon="1.20535">
        <ele>234.860001</ele>
        <time>2013-03-16T14:49:13Z</time>
      </trkpt>
      <trkpt lat="43.61614" lon="1.20533">
        <ele>234.727493</ele>
        <time>2013-03-16T14:49:14Z</time>
      </trkpt>
      <trkpt lat="43.61611" lon="1.20532">
        <ele>234.587494</ele>
        <time>2013-03-16T14:49:15Z</time>
      </trkpt>
      <trkpt lat="43.61609" lon="1.2053">
        <ele>234.492493</ele>
        <time>2013-03-16T14:49:16Z</time>
      </trkpt>
      <trkpt lat="43.61607" lon="1.20528">
        <ele>234.391251</ele>
        <time>2013-03-16T14:49:17Z</time>
      </trkpt>
      <trkpt lat="43.61603" lon="1.20526">
        <ele>234.182495</ele>
        <time>2013-03-16T14:49:20Z</time>
      </trkpt>
      <trkpt lat="43.61601" lon="1.20527">
        <ele>234.080002</ele>
        <time>2013-03-16T14:49:21Z</time>
      </trkpt>
      <trkpt lat="43.61596" lon="1.20525">
        <ele>233.791245</ele>
        <time>2013-03-16T14:49:28Z</time>
      </trkpt>
      <trkpt lat="43.61596" lon="1.20523">
        <ele>233.822495</ele>
        <time>2013-03-16T14:49:29Z</time>
      </trkpt>
      <trkpt lat="43.61595" lon="1.20521">
        <ele>233.832504</ele>
        <time>2013-03-16T14:49:30Z</time>
      </trkpt>
      <trkpt lat="43.61593" lon="1.20518">
        <ele>233.757507</ele>
        <time>2013-03-16T14:49:31Z</time>
      </trkpt>
      <trkpt lat="43.61591" lon="1.20517">
        <ele>233.630005</ele>
        <time>2013-03-16T14:49:32Z</time>
      </trkpt>
      <trkpt lat="43.61589" lon="1.20516">
        <ele>233.479996</ele>
        <time>2013-03-16T14:49:33Z</time>
      </trkpt>
      <trkpt lat="43.61587" lon="1.20514">
        <ele>233.315002</ele>
        <time>2013-03-16T14:49:34Z</time>
      </trkpt>
      <trkpt lat="43.61584" lon="1.20512">
        <ele>233.142502</ele>
        <time>2013-03-16T14:49:35Z</time>
      </trkpt>
      <trkpt lat="43.61582" lon="1.2051">
        <ele>232.970001</ele>
        <time>2013-03-16T14:49:36Z</time>
      </trkpt>
      <trkpt lat="43.6155" lon="1.20485">
        <ele>228.755005</ele>
        <time>2013-03-16T14:49:45Z</time>
      </trkpt>
      <trkpt lat="43.61513" lon="1.20452">
        <ele>223.296249</ele>
        <time>2013-03-16T14:49:50Z</time>
      </trkpt>
      <trkpt lat="43.61485" lon="1.20432">
        <ele>218.652496</ele>
        <time>2013-03-16T14:49:53Z</time>
      </trkpt>
      <trkpt lat="43.61456" lon="1.20406">
        <ele>214.409378</ele>
        <time>2013-03-16T14:49:56Z</time>
      </trkpt>
      <trkpt lat="43.61447" lon="1.20399">
        <ele>213.156006</ele>
        <time>2013-03-16T14:49:57Z</time>
      </trkpt>
      <trkpt lat="43.61422" lon="1.20378">
        <ele>210.403961</ele>
        <time>2013-03-16T14:50:03Z</time>
      </trkpt>
      <trkpt lat="43.61414" lon="1.20374">
        <ele>209.606949</ele>
        <time>2013-03-16T14:50:12Z</time>
      </trkpt>
      <trkpt lat="43.61409" lon="1.20375">
        <ele>209.144745</ele>
        <time>2013-03-16T14:50:19Z</time>
      </trkpt>
      <trkpt lat="43.61407" lon="1.20376">
        <ele>209.009888</ele>
        <time>2013-03-16T14:50:20Z</time>
      </trkpt>
      <trkpt lat="43.61405" lon="1.20376">
        <ele>208.79512</ele>
        <time>2013-03-16T14:50:22Z</time>
      </trkpt>
      <trkpt lat="43.614" lon="1.20375">
        <ele>208.396255</ele>
        <time>2013-03-16T14:50:29Z</time>
      </trkpt>
      <trkpt lat="43.61399" lon="1.20374">
        <ele>208.367493</ele>
        <time>2013-03-16T14:50:30Z</time>
      </trkpt>
      <trkpt lat="43.61398" lon="1.20372">
        <ele>208.332504</ele>
        <time>2013-03-16T14:50:31Z</time>
      </trkpt>
      <trkpt lat="43.61397" lon="1.20371">
        <ele>208.296875</ele>
        <time>2013-03-16T14:50:32Z</time>
      </trkpt>
      <trkpt lat="43.61395" lon="1.20369">
        <ele>208.274994</ele>
        <time>2013-03-16T14:50:33Z</time>
      </trkpt>
      <trkpt lat="43.61394" lon="1.20367">
        <ele>208.269379</ele>
        <time>2013-03-16T14:50:34Z</time>
      </trkpt>
      <trkpt lat="43.61394" lon="1.20366">
        <ele>208.256882</ele>
        <time>2013-03-16T14:50:35Z</time>
      </trkpt>
      <trkpt lat="43.61392" lon="1.20364">
        <ele>208.233124</ele>
        <time>2013-03-16T14:50:36Z</time>
      </trkpt>
      <trkpt lat="43.6139" lon="1.20362">
        <ele>208.189377</ele>
        <time>2013-03-16T14:50:37Z</time>
      </trkpt>
      <trkpt lat="43.61389" lon="1.2036">
        <ele>208.132492</ele>
        <time>2013-03-16T14:50:38Z</time>
      </trkpt>
      <trkpt lat="43.61387" lon="1.20358">
        <ele>208.075623</ele>
        <time>2013-03-16T14:50:39Z</time>
      </trkpt>
      <trkpt lat="43.61384" lon="1.20356">
        <ele>207.993744</ele>
        <time>2013-03-16T14:50:40Z</time>
      </trkpt>
      <trkpt lat="43.61381" lon="1.20353">
        <ele>207.903122</ele>
        <time>2013-03-16T14:50:41Z</time>
      </trkpt>
      <trkpt lat="43.61354" lon="1.20332">
        <ele>207.098755</ele>
        <time>2013-03-16T14:50:50Z</time>
      </trkpt>
      <trkpt lat="43.61331" lon="1.20311">
        <ele>207.186447</ele>
        <time>2013-03-16T14:50:59Z</time>
      </trkpt>
      <trkpt lat="43.61295" lon="1.20286">
        <ele>208.403336</ele>
        <time>2013-03-16T14:51:10Z</time>
      </trkpt>
      <trkpt lat="43.61274" lon="1.20269">
        <ele>210.277573</ele>
        <time>2013-03-16T14:51:20Z</time>
      </trkpt>
      <trkpt lat="43.61254" lon="1.20255">
        <ele>212.222488</ele>
        <time>2013-03-16T14:51:29Z</time>
      </trkpt>
      <trkpt lat="43.61233" lon="1.20236">
        <ele>214.771332</ele>
        <time>2013-03-16T14:51:39Z</time>
      </trkpt>
      <trkpt lat="43.61212" lon="1.20216">
        <ele>217.740005</ele>
        <time>2013-03-16T14:51:51Z</time>
      </trkpt>
      <trkpt lat="43.61192" lon="1.20202">
        <ele>220.213745</ele>
        <time>2013-03-16T14:52:02Z</time>
      </trkpt>
      <trkpt lat="43.6119" lon="1.20201">
        <ele>220.459991</ele>
        <time>2013-03-16T14:52:03Z</time>
      </trkpt>
      <trkpt lat="43.61188" lon="1.20199">
        <ele>220.701874</ele>
        <time>2013-03-16T14:52:04Z</time>
      </trkpt>
      <trkpt lat="43.61186" lon="1.20197">
        <ele>220.97937</ele>
        <time>2013-03-16T14:52:05Z</time>
      </trkpt>
      <trkpt lat="43.61159" lon="1.20175">
        <ele>223.516891</ele>
        <time>2013-03-16T14:52:19Z</time>
      </trkpt>
      <trkpt lat="43.6114" lon="1.20158">
        <ele>225.050003</ele>
        <time>2013-03-16T14:52:30Z</time>
      </trkpt>
      <trkpt lat="43.61112" lon="1.20137">
        <ele>226.636734</ele>
        <time>2013-03-16T14:52:44Z</time>
      </trkpt>
      <trkpt lat="43.61085" lon="1.20115">
        <ele>227.902283</ele>
        <time>2013-03-16T14:52:54Z</time>
      </trkpt>
      <trkpt lat="43.61046" lon="1.20082">
        <ele>230.9599</ele>
        <time>2013-03-16T14:53:09Z</time>
      </trkpt>
      <trkpt lat="43.61024" lon="1.20063">
        <ele>231.579376</ele>
        <time>2013-03-16T14:53:18Z</time>
      </trkpt>
      <trkpt lat="43.60994" lon="1.20037">
        <ele>232.011246</ele>
        <time>2013-03-16T14:53:30Z</time>
      </trkpt>
      <trkpt lat="43.60956" lon="1.20007">
        <ele>232.516251</ele>
        <time>2013-03-16T14:53:44Z</time>
      </trkpt>
      <trkpt lat="43.60946" lon="1.20003">
        <ele>232.579376</ele>
        <time>2013-03-16T14:53:48Z</time>
      </trkpt>
      <trkpt lat="43.60942" lon="1.20004">
        <ele>232.559998</ele>
        <time>2013-03-16T14:53:49Z</time>
      </trkpt>
      <trkpt lat="43.60939" lon="1.20006">
        <ele>232.533127</ele>
        <time>2013-03-16T14:53:50Z</time>
      </trkpt>
      <trkpt lat="43.60935" lon="1.20007">
        <ele>232.524994</ele>
        <time>2013-03-16T14:53:51Z</time>
      </trkpt>
      <trkpt lat="43.60931" lon="1.20006">
        <ele>232.54187</ele>
        <time>2013-03-16T14:53:52Z</time>
      </trkpt>
      <trkpt lat="43.60928" lon="1.20004">
        <ele>232.570618</ele>
        <time>2013-03-16T14:53:53Z</time>
      </trkpt>
      <trkpt lat="43.60925" lon="1.20002">
        <ele>232.607498</ele>
        <time>2013-03-16T14:53:54Z</time>
      </trkpt>
      <trkpt lat="43.60885" lon="1.19972">
        <ele>233.063004</ele>
        <time>2013-03-16T14:54:07Z</time>
      </trkpt>
      <trkpt lat="43.60846" lon="1.19939">
        <ele>232.914963</ele>
        <time>2013-03-16T14:54:18Z</time>
      </trkpt>
      <trkpt lat="43.60815" lon="1.19913">
        <ele>233.070007</ele>
        <time>2013-03-16T14:54:28Z</time>
      </trkpt>
      <trkpt lat="43.60795" lon="1.19896">
        <ele>232.991257</ele>
        <time>2013-03-16T14:54:34Z</time>
      </trkpt>
      <trkpt lat="43.60792" lon="1.19893">
        <ele>232.971878</ele>
        <time>2013-03-16T14:54:35Z</time>
      </trkpt>
      <trkpt lat="43.6075" lon="1.19858">
        <ele>232.258743</ele>
        <time>2013-03-16T14:54:47Z</time>
      </trkpt>
      <trkpt lat="43.60729" lon="1.19842">
        <ele>231.350006</ele>
        <time>2013-03-16T14:54:51Z</time>
      </trkpt>
      <trkpt lat="43.60723" lon="1.19837">
        <ele>231.080002</ele>
        <time>2013-03-16T14:54:52Z</time>
      </trkpt>
      <trkpt lat="43.60716" lon="1.19832">
        <ele>230.600006</ele>
        <time>2013-03-16T14:54:53Z</time>
      </trkpt>
      <trkpt lat="43.60638" lon="1.19769">
        <ele>225.781387</ele>
        <time>2013-03-16T14:55:04Z</time>
      </trkpt>
      <trkpt lat="43.60632" lon="1.19764">
        <ele>225.712845</ele>
        <time>2013-03-16T14:55:05Z</time>
      </trkpt>
      <trkpt lat="43.60613" lon="1.1975">
        <ele>226.461349</ele>
        <time>2013-03-16T14:55:09Z</time>
      </trkpt>
      <trkpt lat="43.60605" lon="1.19742">
        <ele>227.139893</ele>
        <time>2013-03-16T14:55:11Z</time>
      </trkpt>
      <trkpt lat="43.60601" lon="1.19738">
        <ele>227.512375</ele>
        <time>2013-03-16T14:55:12Z</time>
      </trkpt>
      <trkpt lat="43.60597" lon="1.19735">
        <ele>227.826248</ele>
        <time>2013-03-16T14:55:13Z</time>
      </trkpt>
      <trkpt lat="43.60569" lon="1.19713">
        <ele>229.38031</ele>
        <time>2013-03-16T14:55:23Z</time>
      </trkpt>
      <trkpt lat="43.60546" lon="1.19693">
        <ele>230.399536</ele>
        <time>2013-03-16T14:55:34Z</time>
      </trkpt>
      <trkpt lat="43.60516" lon="1.19671">
        <ele>230.052505</ele>
        <time>2013-03-16T14:55:46Z</time>
      </trkpt>
      <trkpt lat="43.60509" lon="1.19664">
        <ele>229.872498</ele>
        <time>2013-03-16T14:55:48Z</time>
      </trkpt>
      <trkpt lat="43.60506" lon="1.19658">
        <ele>229.838745</ele>
        <time>2013-03-16T14:55:49Z</time>
      </trkpt>
      <trkpt lat="43.60505" lon="1.19651">
        <ele>229.896255</ele>
        <time>2013-03-16T14:55:50Z</time>
      </trkpt>
      <trkpt lat="43.60506" lon="1.19646">
        <ele>230.026245</ele>
        <time>2013-03-16T14:55:51Z</time>
      </trkpt>
      <trkpt lat="43.60508" lon="1.19642">
        <ele>230.17688</ele>
        <time>2013-03-16T14:55:52Z</time>
      </trkpt>
      <trkpt lat="43.6051" lon="1.19638">
        <ele>230.326248</ele>
        <time>2013-03-16T14:55:53Z</time>
      </trkpt>
      <trkpt lat="43.60526" lon="1.19597">
        <ele>231.460007</ele>
        <time>2013-03-16T14:56:05Z</time>
      </trkpt>
      <trkpt lat="43.60541" lon="1.19565">
        <ele>232.067505</ele>
        <time>2013-03-16T14:56:15Z</time>
      </trkpt>
      <trkpt lat="43.60564" lon="1.19509">
        <ele>233.273743</ele>
        <time>2013-03-16T14:56:29Z</time>
      </trkpt>
      <trkpt lat="43.60565" lon="1.19498">
        <ele>233.481247</ele>
        <time>2013-03-16T14:56:32Z</time>
      </trkpt>
      <trkpt lat="43.60563" lon="1.19494">
        <ele>233.493118</ele>
        <time>2013-03-16T14:56:33Z</time>
      </trkpt>
      <trkpt lat="43.6056" lon="1.19492">
        <ele>233.473755</ele>
        <time>2013-03-16T14:56:34Z</time>
      </trkpt>
      <trkpt lat="43.60558" lon="1.19489">
        <ele>233.452499</ele>
        <time>2013-03-16T14:56:35Z</time>
      </trkpt>
      <trkpt lat="43.60556" lon="1.19487">
        <ele>233.402496</ele>
        <time>2013-03-16T14:56:36Z</time>
      </trkpt>
      <trkpt lat="43.60553" lon="1.19485">
        <ele>233.357498</ele>
        <time>2013-03-16T14:56:37Z</time>
      </trkpt>
      <trkpt lat="43.60551" lon="1.19482">
        <ele>233.309998</ele>
        <time>2013-03-16T14:56:38Z</time>
      </trkpt>
      <trkpt lat="43.60549" lon="1.1948">
        <ele>233.259995</ele>
        <time>2013-03-16T14:56:39Z</time>
      </trkpt>
      <trkpt lat="43.60546" lon="1.19478">
        <ele>233.202499</ele>
        <time>2013-03-16T14:56:40Z</time>
      </trkpt>
      <trkpt lat="43.60544" lon="1.19476">
        <ele>233.139999</ele>
        <time>2013-03-16T14:56:41Z</time>
      </trkpt>
      <trkpt lat="43.60532" lon="1.19466">
        <ele>232.677505</ele>
        <time>2013-03-16T14:56:45Z</time>
      </trkpt>
      <trkpt lat="43.60528" lon="1.19463">
        <ele>232.384995</ele>
        <time>2013-03-16T14:56:46Z</time>
      </trkpt>
      <trkpt lat="43.60523" lon="1.19459">
        <ele>232.047501</ele>
        <time>2013-03-16T14:56:47Z</time>
      </trkpt>
      <trkpt lat="43.60518" lon="1.19455">
        <ele>231.702499</ele>
        <time>2013-03-16T14:56:48Z</time>
      </trkpt>
      <trkpt lat="43.60512" lon="1.1945">
        <ele>231.335007</ele>
        <time>2013-03-16T14:56:49Z</time>
      </trkpt>
      <trkpt lat="43.60491" lon="1.19431">
        <ele>229.950195</ele>
        <time>2013-03-16T14:56:52Z</time>
      </trkpt>
      <trkpt lat="43.60484" lon="1.19424">
        <ele>229.109024</ele>
        <time>2013-03-16T14:56:53Z</time>
      </trkpt>
      <trkpt lat="43.60467" lon="1.19412">
        <ele>227.143066</ele>
        <time>2013-03-16T14:56:55Z</time>
      </trkpt>
      <trkpt lat="43.60383" lon="1.19344">
        <ele>219.525269</ele>
        <time>2013-03-16T14:57:05Z</time>
      </trkpt>
      <trkpt lat="43.60348" lon="1.19314">
        <ele>219.960556</ele>
        <time>2013-03-16T14:57:10Z</time>
      </trkpt>
      <trkpt lat="43.60333" lon="1.19302">
        <ele>220.949997</ele>
        <time>2013-03-16T14:57:13Z</time>
      </trkpt>
      <trkpt lat="43.60329" lon="1.19297">
        <ele>221.330811</ele>
        <time>2013-03-16T14:57:14Z</time>
      </trkpt>
      <trkpt lat="43.60325" lon="1.19293">
        <ele>221.61763</ele>
        <time>2013-03-16T14:57:15Z</time>
      </trkpt>
      <trkpt lat="43.6032" lon="1.1929">
        <ele>221.851395</ele>
        <time>2013-03-16T14:57:16Z</time>
      </trkpt>
      <trkpt lat="43.60316" lon="1.19287">
        <ele>222.03952</ele>
        <time>2013-03-16T14:57:17Z</time>
      </trkpt>
      <trkpt lat="43.60312" lon="1.19284">
        <ele>222.228134</ele>
        <time>2013-03-16T14:57:18Z</time>
      </trkpt>
      <trkpt lat="43.60308" lon="1.19281">
        <ele>222.332504</ele>
        <time>2013-03-16T14:57:19Z</time>
      </trkpt>
      <trkpt lat="43.60303" lon="1.19278">
        <ele>222.379379</ele>
        <time>2013-03-16T14:57:20Z</time>
      </trkpt>
      <trkpt lat="43.60255" lon="1.19241">
        <ele>222.44043</ele>
        <time>2013-03-16T14:57:31Z</time>
      </trkpt>
      <trkpt lat="43.60251" lon="1.19237">
        <ele>222.196564</ele>
        <time>2013-03-16T14:57:32Z</time>
      </trkpt>
      <trkpt lat="43.60227" lon="1.19218">
        <ele>220.543854</ele>
        <time>2013-03-16T14:57:37Z</time>
      </trkpt>
      <trkpt lat="43.60217" lon="1.19209">
        <ele>219.889999</ele>
        <time>2013-03-16T14:57:39Z</time>
      </trkpt>
      <trkpt lat="43.60214" lon="1.19203">
        <ele>219.720001</ele>
        <time>2013-03-16T14:57:40Z</time>
      </trkpt>
      <trkpt lat="43.60212" lon="1.19197">
        <ele>219.645004</ele>
        <time>2013-03-16T14:57:41Z</time>
      </trkpt>
      <trkpt lat="43.60211" lon="1.19192">
        <ele>219.589996</ele>
        <time>2013-03-16T14:57:42Z</time>
      </trkpt>
      <trkpt lat="43.60208" lon="1.19187">
        <ele>219.5</ele>
        <time>2013-03-16T14:57:43Z</time>
      </trkpt>
      <trkpt lat="43.60205" lon="1.19182">
        <ele>219.369995</ele>
        <time>2013-03-16T14:57:44Z</time>
      </trkpt>
      <trkpt lat="43.60202" lon="1.19178">
        <ele>219.205002</ele>
        <time>2013-03-16T14:57:45Z</time>
      </trkpt>
      <trkpt lat="43.60198" lon="1.19174">
        <ele>219.044998</ele>
        <time>2013-03-16T14:57:46Z</time>
      </trkpt>
      <trkpt lat="43.60187" lon="1.19164">
        <ele>218.550003</ele>
        <time>2013-03-16T14:57:49Z</time>
      </trkpt>
      <trkpt lat="43.60183" lon="1.19164">
        <ele>218.384995</ele>
        <time>2013-03-16T14:57:50Z</time>
      </trkpt>
      <trkpt lat="43.60173" lon="1.19179">
        <ele>218.009003</ele>
        <time>2013-03-16T14:57:56Z</time>
      </trkpt>
      <trkpt lat="43.60171" lon="1.19183">
        <ele>218.015198</ele>
        <time>2013-03-16T14:57:57Z</time>
      </trkpt>
      <trkpt lat="43.60157" lon="1.19214">
        <ele>217.83139</ele>
        <time>2013-03-16T14:58:04Z</time>
      </trkpt>
      <trkpt lat="43.60153" lon="1.1923">
        <ele>217.671646</ele>
        <time>2013-03-16T14:58:10Z</time>
      </trkpt>
      <trkpt lat="43.6016" lon="1.19239">
        <ele>217.726135</ele>
        <time>2013-03-16T14:58:15Z</time>
      </trkpt>
      <trkpt lat="43.60163" lon="1.19245">
        <ele>217.756744</ele>
        <time>2013-03-16T14:58:17Z</time>
      </trkpt>
      <trkpt lat="43.60165" lon="1.19259">
        <ele>217.625626</ele>
        <time>2013-03-16T14:58:22Z</time>
      </trkpt>
      <trkpt lat="43.60162" lon="1.19274">
        <ele>217.308746</ele>
        <time>2013-03-16T14:58:28Z</time>
      </trkpt>
      <trkpt lat="43.60159" lon="1.19294">
        <ele>216.921875</ele>
        <time>2013-03-16T14:58:36Z</time>
      </trkpt>
      <trkpt lat="43.60156" lon="1.19303">
        <ele>216.702499</ele>
        <time>2013-03-16T14:58:40Z</time>
      </trkpt>
      <trkpt lat="43.60139" lon="1.19305">
        <ele>216.293747</ele>
        <time>2013-03-16T14:58:50Z</time>
      </trkpt>
      <trkpt lat="43.60137" lon="1.19304">
        <ele>216.279373</ele>
        <time>2013-03-16T14:58:52Z</time>
      </trkpt>
      <trkpt lat="43.60137" lon="1.19289">
        <ele>216.518127</ele>
        <time>2013-03-16T14:59:00Z</time>
      </trkpt>
      <trkpt lat="43.60132" lon="1.19275">
        <ele>216.627502</ele>
        <time>2013-03-16T14:59:05Z</time>
      </trkpt>
      <trkpt lat="43.60125" lon="1.19251">
        <ele>217.130005</ele>
        <time>2013-03-16T14:59:13Z</time>
      </trkpt>
      <trkpt lat="43.60122" lon="1.19236">
        <ele>217.462311</ele>
        <time>2013-03-16T14:59:18Z</time>
      </trkpt>
      <trkpt lat="43.60122" lon="1.19215">
        <ele>217.867523</ele>
        <time>2013-03-16T14:59:28Z</time>
      </trkpt>
      <trkpt lat="43.6012" lon="1.19206">
        <ele>218.118973</ele>
        <time>2013-03-16T15:00:01Z</time>
      </trkpt>
      <trkpt lat="43.6012" lon="1.19205">
        <ele>218.134995</ele>
        <time>2013-03-16T15:00:14Z</time>
      </trkpt>
      <trkpt lat="43.6012" lon="1.19204">
        <ele>218.152176</ele>
        <time>2013-03-16T15:00:46Z</time>
      </trkpt>
      <trkpt lat="43.60119" lon="1.19204">
        <ele>218.201843</ele>
        <time>2013-03-16T15:02:01Z</time>
      </trkpt>
      <trkpt lat="43.60119" lon="1.19199">
        <ele>218.28775</ele>
        <time>2013-03-16T15:15:19Z</time>
      </trkpt>
      <trkpt lat="43.60117" lon="1.19204">
        <ele>218.272842</ele>
        <time>2013-03-16T15:15:28Z</time>
      </trkpt>
      <trkpt lat="43.60118" lon="1.19206">
        <ele>218.192398</ele>
        <time>2013-03-16T15:15:31Z</time>
      </trkpt>
      <trkpt lat="43.60116" lon="1.1921">
        <ele>218.171188</ele>
        <time>2013-03-16T15:15:38Z</time>
      </trkpt>
      <trkpt lat="43.60109" lon="1.19216">
        <ele>218.325638</ele>
        <time>2013-03-16T15:15:48Z</time>
      </trkpt>
      <trkpt lat="43.60102" lon="1.19221">
        <ele>218.430389</ele>
        <time>2013-03-16T15:15:54Z</time>
      </trkpt>
      <trkpt lat="43.60098" lon="1.19233">
        <ele>218.256546</ele>
        <time>2013-03-16T15:16:00Z</time>
      </trkpt>
      <trkpt lat="43.6009" lon="1.19244">
        <ele>218.130371</ele>
        <time>2013-03-16T15:16:10Z</time>
      </trkpt>
      <trkpt lat="43.60089" lon="1.19246">
        <ele>218.099457</ele>
        <time>2013-03-16T15:16:11Z</time>
      </trkpt>
      <trkpt lat="43.60083" lon="1.19256">
        <ele>217.875</ele>
        <time>2013-03-16T15:16:16Z</time>
      </trkpt>
      <trkpt lat="43.60074" lon="1.1926">
        <ele>217.751251</ele>
        <time>2013-03-16T15:16:21Z</time>
      </trkpt>
      <trkpt lat="43.60067" lon="1.19267">
        <ele>217.520004</ele>
        <time>2013-03-16T15:16:27Z</time>
      </trkpt>
      <trkpt lat="43.60059" lon="1.19287">
        <ele>216.877502</ele>
        <time>2013-03-16T15:16:37Z</time>
      </trkpt>
      <trkpt lat="43.60049" lon="1.19295">
        <ele>216.645004</ele>
        <time>2013-03-16T15:16:43Z</time>
      </trkpt>
      <trkpt lat="43.60038" lon="1.19293">
        <ele>216.738129</ele>
        <time>2013-03-16T15:16:49Z</time>
      </trkpt>
      <trkpt lat="43.60029" lon="1.1929">
        <ele>216.910248</ele>
        <time>2013-03-16T15:16:55Z</time>
      </trkpt>
      <trkpt lat="43.60017" lon="1.19279">
        <ele>217.471893</ele>
        <time>2013-03-16T15:17:06Z</time>
      </trkpt>
      <trkpt lat="43.60014" lon="1.19274">
        <ele>217.733948</ele>
        <time>2013-03-16T15:17:15Z</time>
      </trkpt>
      <trkpt lat="43.6001" lon="1.19268">
        <ele>218.03389</ele>
        <time>2013-03-16T15:17:20Z</time>
      </trkpt>
      <trkpt lat="43.60008" lon="1.19264">
        <ele>218.270416</ele>
        <time>2013-03-16T15:17:23Z</time>
      </trkpt>
      <trkpt lat="43.6" lon="1.1926">
        <ele>218.621323</ele>
        <time>2013-03-16T15:17:32Z</time>
      </trkpt>
      <trkpt lat="43.59992" lon="1.19255">
        <ele>218.866501</ele>
        <time>2013-03-16T15:17:38Z</time>
      </trkpt>
      <trkpt lat="43.5998" lon="1.19241">
        <ele>219.5</ele>
        <time>2013-03-16T15:17:48Z</time>
      </trkpt>
      <trkpt lat="43.59964" lon="1.19242">
        <ele>219.0625</ele>
        <time>2013-03-16T15:17:54Z</time>
      </trkpt>
      <trkpt lat="43.59935" lon="1.19249">
        <ele>218.014999</ele>
        <time>2013-03-16T15:17:59Z</time>
      </trkpt>
      <trkpt lat="43.59929" lon="1.19248">
        <ele>217.946198</ele>
        <time>2013-03-16T15:18:00Z</time>
      </trkpt>
      <trkpt lat="43.59923" lon="1.19245">
        <ele>217.912354</ele>
        <time>2013-03-16T15:18:01Z</time>
      </trkpt>
      <trkpt lat="43.59881" lon="1.19223">
        <ele>217.784546</ele>
        <time>2013-03-16T15:18:08Z</time>
      </trkpt>
      <trkpt lat="43.59877" lon="1.19219">
        <ele>217.786636</ele>
        <time>2013-03-16T15:18:09Z</time>
      </trkpt>
      <trkpt lat="43.59874" lon="1.19215">
        <ele>217.830627</ele>
        <time>2013-03-16T15:18:10Z</time>
      </trkpt>
      <trkpt lat="43.59873" lon="1.19211">
        <ele>217.945541</ele>
        <time>2013-03-16T15:18:11Z</time>
      </trkpt>
      <trkpt lat="43.59872" lon="1.19206">
        <ele>218.084366</ele>
        <time>2013-03-16T15:18:12Z</time>
      </trkpt>
      <trkpt lat="43.59872" lon="1.19202">
        <ele>218.220108</ele>
        <time>2013-03-16T15:18:13Z</time>
      </trkpt>
      <trkpt lat="43.59873" lon="1.192">
        <ele>218.359985</ele>
        <time>2013-03-16T15:18:14Z</time>
      </trkpt>
      <trkpt lat="43.59874" lon="1.19197">
        <ele>218.516922</ele>
        <time>2013-03-16T15:18:15Z</time>
      </trkpt>
      <trkpt lat="43.59875" lon="1.19194">
        <ele>218.663544</ele>
        <time>2013-03-16T15:18:16Z</time>
      </trkpt>
      <trkpt lat="43.59876" lon="1.19192">
        <ele>218.802933</ele>
        <time>2013-03-16T15:18:17Z</time>
      </trkpt>
      <trkpt lat="43.59877" lon="1.1919">
        <ele>218.926666</ele>
        <time>2013-03-16T15:18:18Z</time>
      </trkpt>
      <trkpt lat="43.59878" lon="1.19188">
        <ele>219.08847</ele>
        <time>2013-03-16T15:18:19Z</time>
      </trkpt>
      <trkpt lat="43.59889" lon="1.19155">
        <ele>221.428207</ele>
        <time>2013-03-16T15:18:30Z</time>
      </trkpt>
      <trkpt lat="43.59896" lon="1.1912">
        <ele>223.842499</ele>
        <time>2013-03-16T15:18:42Z</time>
      </trkpt>
      <trkpt lat="43.59899" lon="1.19099">
        <ele>225.112503</ele>
        <time>2013-03-16T15:18:50Z</time>
      </trkpt>
      <trkpt lat="43.599" lon="1.19097">
        <ele>225.337494</ele>
        <time>2013-03-16T15:18:51Z</time>
      </trkpt>
      <trkpt lat="43.59901" lon="1.19094">
        <ele>225.558121</ele>
        <time>2013-03-16T15:18:52Z</time>
      </trkpt>
      <trkpt lat="43.599" lon="1.19084">
        <ele>225.955627</ele>
        <time>2013-03-16T15:18:57Z</time>
      </trkpt>
      <trkpt lat="43.59865" lon="1.19073">
        <ele>223.398132</ele>
        <time>2013-03-16T15:19:09Z</time>
      </trkpt>
      <trkpt lat="43.59871" lon="1.19053">
        <ele>225.134705</ele>
        <time>2013-03-16T15:19:18Z</time>
      </trkpt>
      <trkpt lat="43.59876" lon="1.19042">
        <ele>226.058945</ele>
        <time>2013-03-16T15:19:23Z</time>
      </trkpt>
      <trkpt lat="43.5988" lon="1.19032">
        <ele>226.822968</ele>
        <time>2013-03-16T15:19:28Z</time>
      </trkpt>
      <trkpt lat="43.59886" lon="1.19017">
        <ele>227.822891</ele>
        <time>2013-03-16T15:19:36Z</time>
      </trkpt>
      <trkpt lat="43.59886" lon="1.1901">
        <ele>228.167603</ele>
        <time>2013-03-16T15:19:42Z</time>
      </trkpt>
      <trkpt lat="43.59892" lon="1.18993">
        <ele>229.090149</ele>
        <time>2013-03-16T15:19:55Z</time>
      </trkpt>
      <trkpt lat="43.59901" lon="1.18969">
        <ele>230.236664</ele>
        <time>2013-03-16T15:20:07Z</time>
      </trkpt>
      <trkpt lat="43.59909" lon="1.18954">
        <ele>231.313217</ele>
        <time>2013-03-16T15:20:15Z</time>
      </trkpt>
      <trkpt lat="43.59913" lon="1.18947">
        <ele>231.913254</ele>
        <time>2013-03-16T15:20:19Z</time>
      </trkpt>
      <trkpt lat="43.59927" lon="1.18914">
        <ele>234.725632</ele>
        <time>2013-03-16T15:20:35Z</time>
      </trkpt>
      <trkpt lat="43.59945" lon="1.18875">
        <ele>238.025024</ele>
        <time>2013-03-16T15:20:50Z</time>
      </trkpt>
      <trkpt lat="43.59966" lon="1.18822">
        <ele>239.886246</ele>
        <time>2013-03-16T15:21:06Z</time>
      </trkpt>
      <trkpt lat="43.59992" lon="1.18766">
        <ele>241.881882</ele>
        <time>2013-03-16T15:21:23Z</time>
      </trkpt>
      <trkpt lat="43.60002" lon="1.18741">
        <ele>242.294373</ele>
        <time>2013-03-16T15:21:31Z</time>
      </trkpt>
      <trkpt lat="43.59993" lon="1.18731">
        <ele>242.458755</ele>
        <time>2013-03-16T15:21:35Z</time>
      </trkpt>
      <trkpt lat="43.59942" lon="1.1869">
        <ele>241.279999</ele>
        <time>2013-03-16T15:21:50Z</time>
      </trkpt>
      <trkpt lat="43.59932" lon="1.18681">
        <ele>241.558746</ele>
        <time>2013-03-16T15:21:53Z</time>
      </trkpt>
      <trkpt lat="43.59928" lon="1.18678">
        <ele>241.657501</ele>
        <time>2013-03-16T15:21:54Z</time>
      </trkpt>
      <trkpt lat="43.59911" lon="1.18659">
        <ele>242.273743</ele>
        <time>2013-03-16T15:22:00Z</time>
      </trkpt>
      <trkpt lat="43.59912" lon="1.18656">
        <ele>242.396255</ele>
        <time>2013-03-16T15:22:01Z</time>
      </trkpt>
      <trkpt lat="43.59936" lon="1.186">
        <ele>244.069901</ele>
        <time>2013-03-16T15:22:13Z</time>
      </trkpt>
      <trkpt lat="43.59938" lon="1.18595">
        <ele>244.244049</ele>
        <time>2013-03-16T15:22:14Z</time>
      </trkpt>
      <trkpt lat="43.59965" lon="1.1853">
        <ele>246.073761</ele>
        <time>2013-03-16T15:22:29Z</time>
      </trkpt>
      <trkpt lat="43.59991" lon="1.18473">
        <ele>246.570801</ele>
        <time>2013-03-16T15:22:45Z</time>
      </trkpt>
      <trkpt lat="43.60012" lon="1.1843">
        <ele>246.740402</ele>
        <time>2013-03-16T15:22:56Z</time>
      </trkpt>
      <trkpt lat="43.60027" lon="1.18393">
        <ele>246.259003</ele>
        <time>2013-03-16T15:23:04Z</time>
      </trkpt>
      <trkpt lat="43.60042" lon="1.18363">
        <ele>244.981506</ele>
        <time>2013-03-16T15:23:10Z</time>
      </trkpt>
      <trkpt lat="43.60044" lon="1.18358">
        <ele>244.694717</ele>
        <time>2013-03-16T15:23:11Z</time>
      </trkpt>
      <trkpt lat="43.60047" lon="1.18353">
        <ele>244.4086</ele>
        <time>2013-03-16T15:23:12Z</time>
      </trkpt>
      <trkpt lat="43.60049" lon="1.18347">
        <ele>244.098373</ele>
        <time>2013-03-16T15:23:13Z</time>
      </trkpt>
      <trkpt lat="43.60052" lon="1.18342">
        <ele>243.824203</ele>
        <time>2013-03-16T15:23:14Z</time>
      </trkpt>
      <trkpt lat="43.60053" lon="1.18335">
        <ele>243.59552</ele>
        <time>2013-03-16T15:23:15Z</time>
      </trkpt>
      <trkpt lat="43.60055" lon="1.18329">
        <ele>243.334763</ele>
        <time>2013-03-16T15:23:16Z</time>
      </trkpt>
      <trkpt lat="43.60057" lon="1.18323">
        <ele>243.069382</ele>
        <time>2013-03-16T15:23:17Z</time>
      </trkpt>
      <trkpt lat="43.6006" lon="1.18317">
        <ele>242.887497</ele>
        <time>2013-03-16T15:23:18Z</time>
      </trkpt>
      <trkpt lat="43.60062" lon="1.18311">
        <ele>242.690002</ele>
        <time>2013-03-16T15:23:19Z</time>
      </trkpt>
      <trkpt lat="43.60078" lon="1.18269">
        <ele>241.596878</ele>
        <time>2013-03-16T15:23:26Z</time>
      </trkpt>
      <trkpt lat="43.6008" lon="1.18264">
        <ele>241.543121</ele>
        <time>2013-03-16T15:23:27Z</time>
      </trkpt>
      <trkpt lat="43.60081" lon="1.18258">
        <ele>241.506882</ele>
        <time>2013-03-16T15:23:28Z</time>
      </trkpt>
      <trkpt lat="43.60082" lon="1.18253">
        <ele>241.527496</ele>
        <time>2013-03-16T15:23:29Z</time>
      </trkpt>
      <trkpt lat="43.60083" lon="1.18247">
        <ele>241.543121</ele>
        <time>2013-03-16T15:23:30Z</time>
      </trkpt>
      <trkpt lat="43.60084" lon="1.18243">
        <ele>241.54187</ele>
        <time>2013-03-16T15:23:31Z</time>
      </trkpt>
      <trkpt lat="43.60084" lon="1.18238">
        <ele>241.538116</ele>
        <time>2013-03-16T15:23:32Z</time>
      </trkpt>
      <trkpt lat="43.60085" lon="1.18234">
        <ele>241.516876</ele>
        <time>2013-03-16T15:23:33Z</time>
      </trkpt>
      <trkpt lat="43.60086" lon="1.18229">
        <ele>241.512497</ele>
        <time>2013-03-16T15:23:34Z</time>
      </trkpt>
      <trkpt lat="43.60088" lon="1.18225">
        <ele>241.456879</ele>
        <time>2013-03-16T15:23:35Z</time>
      </trkpt>
      <trkpt lat="43.60089" lon="1.1822">
        <ele>241.353745</ele>
        <time>2013-03-16T15:23:36Z</time>
      </trkpt>
      <trkpt lat="43.60091" lon="1.18215">
        <ele>241.314377</ele>
        <time>2013-03-16T15:23:37Z</time>
      </trkpt>
      <trkpt lat="43.60091" lon="1.1821">
        <ele>241.356247</ele>
        <time>2013-03-16T15:23:38Z</time>
      </trkpt>
      <trkpt lat="43.60091" lon="1.18205">
        <ele>241.410629</ele>
        <time>2013-03-16T15:23:39Z</time>
      </trkpt>
      <trkpt lat="43.60092" lon="1.182">
        <ele>241.477295</ele>
        <time>2013-03-16T15:23:40Z</time>
      </trkpt>
      <trkpt lat="43.60092" lon="1.18195">
        <ele>241.613083</ele>
        <time>2013-03-16T15:23:41Z</time>
      </trkpt>
      <trkpt lat="43.60091" lon="1.1819">
        <ele>241.781082</ele>
        <time>2013-03-16T15:23:42Z</time>
      </trkpt>
      <trkpt lat="43.60086" lon="1.1815">
        <ele>243.775314</ele>
        <time>2013-03-16T15:23:53Z</time>
      </trkpt>
      <trkpt lat="43.60084" lon="1.1814">
        <ele>244.43074</ele>
        <time>2013-03-16T15:23:56Z</time>
      </trkpt>
      <trkpt lat="43.60083" lon="1.18136">
        <ele>244.557968</ele>
        <time>2013-03-16T15:23:57Z</time>
      </trkpt>
      <trkpt lat="43.6008" lon="1.1812">
        <ele>245.371979</ele>
        <time>2013-03-16T15:24:02Z</time>
      </trkpt>
      <trkpt lat="43.6008" lon="1.18104">
        <ele>245.623337</ele>
        <time>2013-03-16T15:24:07Z</time>
      </trkpt>
      <trkpt lat="43.60082" lon="1.18094">
        <ele>245.493164</ele>
        <time>2013-03-16T15:24:10Z</time>
      </trkpt>
      <trkpt lat="43.60077" lon="1.18041">
        <ele>246.564499</ele>
        <time>2013-03-16T15:24:22Z</time>
      </trkpt>
      <trkpt lat="43.60072" lon="1.18011">
        <ele>247.041748</ele>
        <time>2013-03-16T15:24:29Z</time>
      </trkpt>
      <trkpt lat="43.60056" lon="1.17992">
        <ele>248.852188</ele>
        <time>2013-03-16T15:24:36Z</time>
      </trkpt>
      <trkpt lat="43.60054" lon="1.17986">
        <ele>249.062256</ele>
        <time>2013-03-16T15:24:38Z</time>
      </trkpt>
      <trkpt lat="43.60045" lon="1.17963">
        <ele>250.259003</ele>
        <time>2013-03-16T15:24:46Z</time>
      </trkpt>
      <trkpt lat="43.60037" lon="1.17933">
        <ele>251.302505</ele>
        <time>2013-03-16T15:24:56Z</time>
      </trkpt>
      <trkpt lat="43.60031" lon="1.17905">
        <ele>252.282501</ele>
        <time>2013-03-16T15:25:06Z</time>
      </trkpt>
      <trkpt lat="43.60029" lon="1.17889">
        <ele>252.451477</ele>
        <time>2013-03-16T15:25:11Z</time>
      </trkpt>
      <trkpt lat="43.60027" lon="1.17877">
        <ele>252.336945</ele>
        <time>2013-03-16T15:25:22Z</time>
      </trkpt>
      <trkpt lat="43.60026" lon="1.17869">
        <ele>252.252502</ele>
        <time>2013-03-16T15:25:38Z</time>
      </trkpt>
      <trkpt lat="43.60022" lon="1.17862">
        <ele>252.644684</ele>
        <time>2013-03-16T15:26:18Z</time>
      </trkpt>
      <trkpt lat="43.60014" lon="1.17851">
        <ele>253.566559</ele>
        <time>2013-03-16T15:26:24Z</time>
      </trkpt>
      <trkpt lat="43.60009" lon="1.17838">
        <ele>254.099854</ele>
        <time>2013-03-16T15:26:29Z</time>
      </trkpt>
      <trkpt lat="43.60005" lon="1.17825">
        <ele>254.549179</ele>
        <time>2013-03-16T15:26:34Z</time>
      </trkpt>
      <trkpt lat="43.6" lon="1.17817">
        <ele>255.125107</ele>
        <time>2013-03-16T15:26:39Z</time>
      </trkpt>
      <trkpt lat="43.59999" lon="1.17817">
        <ele>255.36026</ele>
        <time>2013-03-16T15:26:41Z</time>
      </trkpt>
      <trkpt lat="43.59995" lon="1.17806">
        <ele>255.685745</ele>
        <time>2013-03-16T15:26:51Z</time>
      </trkpt>
      <trkpt lat="43.59991" lon="1.17799">
        <ele>256.105408</ele>
        <time>2013-03-16T15:26:55Z</time>
      </trkpt>
      <trkpt lat="43.59984" lon="1.17781">
        <ele>256.782013</ele>
        <time>2013-03-16T15:27:05Z</time>
      </trkpt>
      <trkpt lat="43.59974" lon="1.17762">
        <ele>257.491241</ele>
        <time>2013-03-16T15:27:14Z</time>
      </trkpt>
      <trkpt lat="43.59975" lon="1.1772">
        <ele>256.711243</ele>
        <time>2013-03-16T15:27:28Z</time>
      </trkpt>
      <trkpt lat="43.59976" lon="1.17712">
        <ele>256.433746</ele>
        <time>2013-03-16T15:27:31Z</time>
      </trkpt>
      <trkpt lat="43.59967" lon="1.17706">
        <ele>257.352966</ele>
        <time>2013-03-16T15:27:41Z</time>
      </trkpt>
      <trkpt lat="43.5996" lon="1.17709">
        <ele>258.138123</ele>
        <time>2013-03-16T15:27:45Z</time>
      </trkpt>
      <trkpt lat="43.59942" lon="1.17692">
        <ele>259.934082</ele>
        <time>2013-03-16T15:27:57Z</time>
      </trkpt>
      <trkpt lat="43.59921" lon="1.17678">
        <ele>261.832153</ele>
        <time>2013-03-16T15:28:08Z</time>
      </trkpt>
      <trkpt lat="43.59912" lon="1.17672">
        <ele>262.597473</ele>
        <time>2013-03-16T15:28:12Z</time>
      </trkpt>
      <trkpt lat="43.5989" lon="1.17652">
        <ele>264.827179</ele>
        <time>2013-03-16T15:28:25Z</time>
      </trkpt>
      <trkpt lat="43.59864" lon="1.17631">
        <ele>267.160004</ele>
        <time>2013-03-16T15:28:39Z</time>
      </trkpt>
      <trkpt lat="43.59844" lon="1.17613">
        <ele>268.950012</ele>
        <time>2013-03-16T15:28:50Z</time>
      </trkpt>
      <trkpt lat="43.59816" lon="1.17592">
        <ele>270.204987</ele>
        <time>2013-03-16T15:29:04Z</time>
      </trkpt>
      <trkpt lat="43.59791" lon="1.17573">
        <ele>270.855011</ele>
        <time>2013-03-16T15:29:17Z</time>
      </trkpt>
      <trkpt lat="43.59771" lon="1.17558">
        <ele>270.412506</ele>
        <time>2013-03-16T15:29:28Z</time>
      </trkpt>
      <trkpt lat="43.59773" lon="1.1755">
        <ele>270.452515</ele>
        <time>2013-03-16T15:29:38Z</time>
      </trkpt>
      <trkpt lat="43.59773" lon="1.17549">
        <ele>270.457489</ele>
        <time>2013-03-16T15:29:53Z</time>
      </trkpt>
      <trkpt lat="43.59776" lon="1.17542">
        <ele>270.524994</ele>
        <time>2013-03-16T15:29:57Z</time>
      </trkpt>
      <trkpt lat="43.59789" lon="1.17497">
        <ele>270.631409</ele>
        <time>2013-03-16T15:30:10Z</time>
      </trkpt>
      <trkpt lat="43.59798" lon="1.17433">
        <ele>271.511261</ele>
        <time>2013-03-16T15:30:25Z</time>
      </trkpt>
      <trkpt lat="43.59816" lon="1.17401">
        <ele>272</ele>
        <time>2013-03-16T15:30:34Z</time>
      </trkpt>
      <trkpt lat="43.59852" lon="1.17373">
        <ele>271.718048</ele>
        <time>2013-03-16T15:30:45Z</time>
      </trkpt>
      <trkpt lat="43.59866" lon="1.17357">
        <ele>271.670166</ele>
        <time>2013-03-16T15:30:49Z</time>
      </trkpt>
      <trkpt lat="43.59885" lon="1.17324">
        <ele>272.471252</ele>
        <time>2013-03-16T15:30:57Z</time>
      </trkpt>
      <trkpt lat="43.59889" lon="1.17324">
        <ele>272.47876</ele>
        <time>2013-03-16T15:30:58Z</time>
      </trkpt>
      <trkpt lat="43.59892" lon="1.17325">
        <ele>272.433746</ele>
        <time>2013-03-16T15:30:59Z</time>
      </trkpt>
      <trkpt lat="43.59895" lon="1.17328">
        <ele>272.357513</ele>
        <time>2013-03-16T15:31:00Z</time>
      </trkpt>
      <trkpt lat="43.59899" lon="1.1733">
        <ele>272.267487</ele>
        <time>2013-03-16T15:31:01Z</time>
      </trkpt>
      <trkpt lat="43.59902" lon="1.17334">
        <ele>272.158752</ele>
        <time>2013-03-16T15:31:02Z</time>
      </trkpt>
      <trkpt lat="43.59924" lon="1.17353">
        <ele>271.313599</ele>
        <time>2013-03-16T15:31:07Z</time>
      </trkpt>
      <trkpt lat="43.5993" lon="1.17357">
        <ele>271.057587</ele>
        <time>2013-03-16T15:31:08Z</time>
      </trkpt>
      <trkpt lat="43.5998" lon="1.17398">
        <ele>267.858124</ele>
        <time>2013-03-16T15:31:17Z</time>
      </trkpt>
      <trkpt lat="43.59986" lon="1.17403">
        <ele>267.309998</ele>
        <time>2013-03-16T15:31:18Z</time>
      </trkpt>
      <trkpt lat="43.60009" lon="1.17421">
        <ele>265.105011</ele>
        <time>2013-03-16T15:31:22Z</time>
      </trkpt>
      <trkpt lat="43.60014" lon="1.17424">
        <ele>264.619995</ele>
        <time>2013-03-16T15:31:23Z</time>
      </trkpt>
      <trkpt lat="43.6002" lon="1.17429">
        <ele>264.054993</ele>
        <time>2013-03-16T15:31:24Z</time>
      </trkpt>
      <trkpt lat="43.60064" lon="1.17461">
        <ele>259.06131</ele>
        <time>2013-03-16T15:31:31Z</time>
      </trkpt>
      <trkpt lat="43.60069" lon="1.17461">
        <ele>259.020233</ele>
        <time>2013-03-16T15:31:32Z</time>
      </trkpt>
      <trkpt lat="43.60072" lon="1.17459">
        <ele>259.220581</ele>
        <time>2013-03-16T15:31:33Z</time>
      </trkpt>
      <trkpt lat="43.60074" lon="1.17456">
        <ele>259.524048</ele>
        <time>2013-03-16T15:31:34Z</time>
      </trkpt>
      <trkpt lat="43.60076" lon="1.17451">
        <ele>259.840973</ele>
        <time>2013-03-16T15:31:35Z</time>
      </trkpt>
      <trkpt lat="43.60076" lon="1.17446">
        <ele>260.108765</ele>
        <time>2013-03-16T15:31:36Z</time>
      </trkpt>
      <trkpt lat="43.60076" lon="1.17443">
        <ele>260.302032</ele>
        <time>2013-03-16T15:31:37Z</time>
      </trkpt>
      <trkpt lat="43.60077" lon="1.1744">
        <ele>260.45575</ele>
        <time>2013-03-16T15:31:38Z</time>
      </trkpt>
      <trkpt lat="43.60077" lon="1.17437">
        <ele>260.624939</ele>
        <time>2013-03-16T15:31:39Z</time>
      </trkpt>
      <trkpt lat="43.60078" lon="1.17434">
        <ele>260.814026</ele>
        <time>2013-03-16T15:31:40Z</time>
      </trkpt>
      <trkpt lat="43.60079" lon="1.1743">
        <ele>261.020966</ele>
        <time>2013-03-16T15:31:41Z</time>
      </trkpt>
      <trkpt lat="43.6008" lon="1.17426">
        <ele>261.221069</ele>
        <time>2013-03-16T15:31:42Z</time>
      </trkpt>
      <trkpt lat="43.6008" lon="1.17423">
        <ele>261.40509</ele>
        <time>2013-03-16T15:31:43Z</time>
      </trkpt>
      <trkpt lat="43.6008" lon="1.17419">
        <ele>261.584808</ele>
        <time>2013-03-16T15:31:44Z</time>
      </trkpt>
      <trkpt lat="43.60082" lon="1.17412">
        <ele>261.897858</ele>
        <time>2013-03-16T15:31:47Z</time>
      </trkpt>
      <trkpt lat="43.60086" lon="1.17409">
        <ele>262.019958</ele>
        <time>2013-03-16T15:31:49Z</time>
      </trkpt>
      <trkpt lat="43.60087" lon="1.17409">
        <ele>262.016235</ele>
        <time>2013-03-16T15:31:50Z</time>
      </trkpt>
      <trkpt lat="43.60088" lon="1.1741">
        <ele>261.967834</ele>
        <time>2013-03-16T15:31:51Z</time>
      </trkpt>
      <trkpt lat="43.6009" lon="1.17411">
        <ele>261.9133</ele>
        <time>2013-03-16T15:31:52Z</time>
      </trkpt>
      <trkpt lat="43.60094" lon="1.17412">
        <ele>261.846344</ele>
        <time>2013-03-16T15:31:55Z</time>
      </trkpt>
      <trkpt lat="43.60094" lon="1.17409">
        <ele>261.928223</ele>
        <time>2013-03-16T15:32:00Z</time>
      </trkpt>
      <trkpt lat="43.60091" lon="1.17399">
        <ele>262.358887</ele>
        <time>2013-03-16T15:32:06Z</time>
      </trkpt>
      <trkpt lat="43.60102" lon="1.17355">
        <ele>264.078094</ele>
        <time>2013-03-16T15:32:17Z</time>
      </trkpt>
      <trkpt lat="43.60104" lon="1.1735">
        <ele>264.268921</ele>
        <time>2013-03-16T15:32:19Z</time>
      </trkpt>
      <trkpt lat="43.60105" lon="1.17337">
        <ele>264.891541</ele>
        <time>2013-03-16T15:32:27Z</time>
      </trkpt>
      <trkpt lat="43.60104" lon="1.17337">
        <ele>264.865692</ele>
        <time>2013-03-16T15:32:29Z</time>
      </trkpt>
      <trkpt lat="43.60104" lon="1.1735">
        <ele>264.291534</ele>
        <time>2013-03-16T15:32:35Z</time>
      </trkpt>
      <trkpt lat="43.601" lon="1.17361">
        <ele>263.787659</ele>
        <time>2013-03-16T15:32:39Z</time>
      </trkpt>
      <trkpt lat="43.60093" lon="1.17358">
        <ele>263.999756</ele>
        <time>2013-03-16T15:32:43Z</time>
      </trkpt>
      <trkpt lat="43.60095" lon="1.17338">
        <ele>264.870331</ele>
        <time>2013-03-16T15:32:52Z</time>
      </trkpt>
      <trkpt lat="43.60093" lon="1.17333">
        <ele>265.039032</ele>
        <time>2013-03-16T15:32:54Z</time>
      </trkpt>
      <trkpt lat="43.60092" lon="1.1731">
        <ele>265.562622</ele>
        <time>2013-03-16T15:33:03Z</time>
      </trkpt>
      <trkpt lat="43.60096" lon="1.17279">
        <ele>266.157196</ele>
        <time>2013-03-16T15:33:14Z</time>
      </trkpt>
      <trkpt lat="43.60098" lon="1.17261">
        <ele>266.466309</ele>
        <time>2013-03-16T15:33:21Z</time>
      </trkpt>
      <trkpt lat="43.60097" lon="1.1725">
        <ele>266.74118</ele>
        <time>2013-03-16T15:33:24Z</time>
      </trkpt>
      <trkpt lat="43.60094" lon="1.17226">
        <ele>267.340637</ele>
        <time>2013-03-16T15:33:30Z</time>
      </trkpt>
      <trkpt lat="43.6009" lon="1.172">
        <ele>268.081573</ele>
        <time>2013-03-16T15:33:36Z</time>
      </trkpt>
      <trkpt lat="43.60079" lon="1.17154">
        <ele>269.532043</ele>
        <time>2013-03-16T15:33:48Z</time>
      </trkpt>
      <trkpt lat="43.60079" lon="1.1715">
        <ele>269.632294</ele>
        <time>2013-03-16T15:33:49Z</time>
      </trkpt>
      <trkpt lat="43.60074" lon="1.17129">
        <ele>270.170319</ele>
        <time>2013-03-16T15:33:55Z</time>
      </trkpt>
      <trkpt lat="43.60065" lon="1.17098">
        <ele>270.829468</ele>
        <time>2013-03-16T15:34:05Z</time>
      </trkpt>
      <trkpt lat="43.60062" lon="1.17051">
        <ele>271.582001</ele>
        <time>2013-03-16T15:34:19Z</time>
      </trkpt>
      <trkpt lat="43.60061" lon="1.17042">
        <ele>271.696198</ele>
        <time>2013-03-16T15:34:22Z</time>
      </trkpt>
      <trkpt lat="43.60063" lon="1.17028">
        <ele>271.999603</ele>
        <time>2013-03-16T15:34:27Z</time>
      </trkpt>
      <trkpt lat="43.60066" lon="1.17014">
        <ele>272.125946</ele>
        <time>2013-03-16T15:34:31Z</time>
      </trkpt>
      <trkpt lat="43.60072" lon="1.16999">
        <ele>272.346924</ele>
        <time>2013-03-16T15:34:35Z</time>
      </trkpt>
      <trkpt lat="43.60085" lon="1.16969">
        <ele>273.010834</ele>
        <time>2013-03-16T15:34:44Z</time>
      </trkpt>
      <trkpt lat="43.60088" lon="1.16959">
        <ele>273.23056</ele>
        <time>2013-03-16T15:34:47Z</time>
      </trkpt>
      <trkpt lat="43.60101" lon="1.16918">
        <ele>274.485413</ele>
        <time>2013-03-16T15:34:59Z</time>
      </trkpt>
      <trkpt lat="43.60112" lon="1.16888">
        <ele>275.855713</ele>
        <time>2013-03-16T15:35:08Z</time>
      </trkpt>
      <trkpt lat="43.60113" lon="1.16881">
        <ele>276.202972</ele>
        <time>2013-03-16T15:35:10Z</time>
      </trkpt>
      <trkpt lat="43.60117" lon="1.1687">
        <ele>276.777039</ele>
        <time>2013-03-16T15:35:14Z</time>
      </trkpt>
      <trkpt lat="43.60118" lon="1.16861">
        <ele>277.144989</ele>
        <time>2013-03-16T15:35:16Z</time>
      </trkpt>
      <trkpt lat="43.60122" lon="1.1681">
        <ele>279.040863</ele>
        <time>2013-03-16T15:35:28Z</time>
      </trkpt>
      <trkpt lat="43.60124" lon="1.16765">
        <ele>280.512512</ele>
        <time>2013-03-16T15:35:39Z</time>
      </trkpt>
      <trkpt lat="43.6012" lon="1.16735">
        <ele>281.658752</ele>
        <time>2013-03-16T15:35:47Z</time>
      </trkpt>
      <trkpt lat="43.60117" lon="1.16706">
        <ele>282.589111</ele>
        <time>2013-03-16T15:35:55Z</time>
      </trkpt>
      <trkpt lat="43.60117" lon="1.16669">
        <ele>283.378693</ele>
        <time>2013-03-16T15:36:04Z</time>
      </trkpt>
      <trkpt lat="43.60116" lon="1.16628">
        <ele>284.117493</ele>
        <time>2013-03-16T15:36:13Z</time>
      </trkpt>
      <trkpt lat="43.6012" lon="1.16592">
        <ele>284.597504</ele>
        <time>2013-03-16T15:36:22Z</time>
      </trkpt>
      <trkpt lat="43.60116" lon="1.16555">
        <ele>284.672485</ele>
        <time>2013-03-16T15:36:32Z</time>
      </trkpt>
      <trkpt lat="43.60116" lon="1.16551">
        <ele>284.6875</ele>
        <time>2013-03-16T15:36:33Z</time>
      </trkpt>
      <trkpt lat="43.60114" lon="1.16495">
        <ele>285.272491</ele>
        <time>2013-03-16T15:36:45Z</time>
      </trkpt>
      <trkpt lat="43.60101" lon="1.16442">
        <ele>285.994354</ele>
        <time>2013-03-16T15:36:56Z</time>
      </trkpt>
      <trkpt lat="43.60098" lon="1.16425">
        <ele>285.905792</ele>
        <time>2013-03-16T15:36:59Z</time>
      </trkpt>
      <trkpt lat="43.60097" lon="1.16419">
        <ele>285.85556</ele>
        <time>2013-03-16T15:37:00Z</time>
      </trkpt>
      <trkpt lat="43.60095" lon="1.16402">
        <ele>285.776459</ele>
        <time>2013-03-16T15:37:03Z</time>
      </trkpt>
      <trkpt lat="43.60095" lon="1.16396">
        <ele>285.766174</ele>
        <time>2013-03-16T15:37:04Z</time>
      </trkpt>
      <trkpt lat="43.60096" lon="1.1639">
        <ele>285.801361</ele>
        <time>2013-03-16T15:37:05Z</time>
      </trkpt>
      <trkpt lat="43.60098" lon="1.16385">
        <ele>285.882141</ele>
        <time>2013-03-16T15:37:06Z</time>
      </trkpt>
      <trkpt lat="43.60099" lon="1.16379">
        <ele>285.981659</ele>
        <time>2013-03-16T15:37:07Z</time>
      </trkpt>
      <trkpt lat="43.60101" lon="1.16374">
        <ele>286.03952</ele>
        <time>2013-03-16T15:37:08Z</time>
      </trkpt>
      <trkpt lat="43.60103" lon="1.16369">
        <ele>286.096893</ele>
        <time>2013-03-16T15:37:09Z</time>
      </trkpt>
      <trkpt lat="43.60104" lon="1.16364">
        <ele>286.148499</ele>
        <time>2013-03-16T15:37:10Z</time>
      </trkpt>
      <trkpt lat="43.60105" lon="1.16358">
        <ele>286.200348</ele>
        <time>2013-03-16T15:37:11Z</time>
      </trkpt>
      <trkpt lat="43.60106" lon="1.16352">
        <ele>286.24234</ele>
        <time>2013-03-16T15:37:12Z</time>
      </trkpt>
      <trkpt lat="43.60106" lon="1.16346">
        <ele>286.278778</ele>
        <time>2013-03-16T15:37:13Z</time>
      </trkpt>
      <trkpt lat="43.60112" lon="1.16298">
        <ele>287.059875</ele>
        <time>2013-03-16T15:37:23Z</time>
      </trkpt>
      <trkpt lat="43.60114" lon="1.16297">
        <ele>287.234924</ele>
        <time>2013-03-16T15:37:24Z</time>
      </trkpt>
      <trkpt lat="43.60117" lon="1.16294">
        <ele>287.439453</ele>
        <time>2013-03-16T15:37:25Z</time>
      </trkpt>
      <trkpt lat="43.60119" lon="1.16292">
        <ele>287.697327</ele>
        <time>2013-03-16T15:37:26Z</time>
      </trkpt>
      <trkpt lat="43.60122" lon="1.1629">
        <ele>287.934479</ele>
        <time>2013-03-16T15:37:27Z</time>
      </trkpt>
      <trkpt lat="43.60125" lon="1.16289">
        <ele>288.214966</ele>
        <time>2013-03-16T15:37:28Z</time>
      </trkpt>
      <trkpt lat="43.60127" lon="1.16288">
        <ele>288.445618</ele>
        <time>2013-03-16T15:37:29Z</time>
      </trkpt>
      <trkpt lat="43.60143" lon="1.16297">
        <ele>289.483551</ele>
        <time>2013-03-16T15:37:34Z</time>
      </trkpt>
      <trkpt lat="43.60144" lon="1.16302">
        <ele>289.361237</ele>
        <time>2013-03-16T15:37:35Z</time>
      </trkpt>
      <trkpt lat="43.60145" lon="1.16307">
        <ele>289.183746</ele>
        <time>2013-03-16T15:37:36Z</time>
      </trkpt>
      <trkpt lat="43.60146" lon="1.16311">
        <ele>289.012512</ele>
        <time>2013-03-16T15:37:37Z</time>
      </trkpt>
      <trkpt lat="43.60149" lon="1.16314">
        <ele>288.859985</ele>
        <time>2013-03-16T15:37:38Z</time>
      </trkpt>
      <trkpt lat="43.60158" lon="1.16319">
        <ele>288.492493</ele>
        <time>2013-03-16T15:37:41Z</time>
      </trkpt>
      <trkpt lat="43.60185" lon="1.1632">
        <ele>287.842499</ele>
        <time>2013-03-16T15:37:49Z</time>
      </trkpt>
      <trkpt lat="43.60199" lon="1.16305">
        <ele>287.55249</ele>
        <time>2013-03-16T15:37:52Z</time>
      </trkpt>
      <trkpt lat="43.60207" lon="1.16296">
        <ele>287.285004</ele>
        <time>2013-03-16T15:37:54Z</time>
      </trkpt>
      <trkpt lat="43.60229" lon="1.1629">
        <ele>286.005005</ele>
        <time>2013-03-16T15:37:58Z</time>
      </trkpt>
      <trkpt lat="43.6025" lon="1.163">
        <ele>284.265015</ele>
        <time>2013-03-16T15:38:01Z</time>
      </trkpt>
      <trkpt lat="43.60282" lon="1.16311">
        <ele>281.731262</ele>
        <time>2013-03-16T15:38:08Z</time>
      </trkpt>
      <trkpt lat="43.60292" lon="1.16323">
        <ele>280.696259</ele>
        <time>2013-03-16T15:38:12Z</time>
      </trkpt>
      <trkpt lat="43.6031" lon="1.16354">
        <ele>278.68811</ele>
        <time>2013-03-16T15:38:17Z</time>
      </trkpt>
      <trkpt lat="43.60339" lon="1.16401">
        <ele>276.090393</ele>
        <time>2013-03-16T15:38:23Z</time>
      </trkpt>
      <trkpt lat="43.60371" lon="1.16442">
        <ele>273.312286</ele>
        <time>2013-03-16T15:38:28Z</time>
      </trkpt>
      <trkpt lat="43.60387" lon="1.16481">
        <ele>271.986877</ele>
        <time>2013-03-16T15:38:32Z</time>
      </trkpt>
      <trkpt lat="43.60393" lon="1.16517">
        <ele>271.129364</ele>
        <time>2013-03-16T15:38:36Z</time>
      </trkpt>
      <trkpt lat="43.60401" lon="1.16537">
        <ele>270.888123</ele>
        <time>2013-03-16T15:38:42Z</time>
      </trkpt>
      <trkpt lat="43.60406" lon="1.16557">
        <ele>270.984985</ele>
        <time>2013-03-16T15:38:47Z</time>
      </trkpt>
      <trkpt lat="43.60405" lon="1.16586">
        <ele>271.491882</ele>
        <time>2013-03-16T15:38:54Z</time>
      </trkpt>
      <trkpt lat="43.60407" lon="1.16592">
        <ele>271.53125</ele>
        <time>2013-03-16T15:38:55Z</time>
      </trkpt>
      <trkpt lat="43.60421" lon="1.1663">
        <ele>271.385956</ele>
        <time>2013-03-16T15:39:03Z</time>
      </trkpt>
      <trkpt lat="43.60425" lon="1.16631">
        <ele>271.103668</ele>
        <time>2013-03-16T15:39:04Z</time>
      </trkpt>
      <trkpt lat="43.60428" lon="1.16632">
        <ele>270.816254</ele>
        <time>2013-03-16T15:39:05Z</time>
      </trkpt>
      <trkpt lat="43.60432" lon="1.16633">
        <ele>270.509552</ele>
        <time>2013-03-16T15:39:06Z</time>
      </trkpt>
      <trkpt lat="43.60436" lon="1.16634">
        <ele>270.15567</ele>
        <time>2013-03-16T15:39:07Z</time>
      </trkpt>
      <trkpt lat="43.6044" lon="1.16635">
        <ele>269.87674</ele>
        <time>2013-03-16T15:39:08Z</time>
      </trkpt>
      <trkpt lat="43.60443" lon="1.16639">
        <ele>269.683167</ele>
        <time>2013-03-16T15:39:09Z</time>
      </trkpt>
      <trkpt lat="43.60446" lon="1.16643">
        <ele>269.425995</ele>
        <time>2013-03-16T15:39:10Z</time>
      </trkpt>
      <trkpt lat="43.60449" lon="1.16648">
        <ele>269.146088</ele>
        <time>2013-03-16T15:39:11Z</time>
      </trkpt>
      <trkpt lat="43.60453" lon="1.16652">
        <ele>268.959412</ele>
        <time>2013-03-16T15:39:12Z</time>
      </trkpt>
      <trkpt lat="43.60457" lon="1.16655">
        <ele>268.679565</ele>
        <time>2013-03-16T15:39:13Z</time>
      </trkpt>
      <trkpt lat="43.60462" lon="1.16658">
        <ele>268.407318</ele>
        <time>2013-03-16T15:39:14Z</time>
      </trkpt>
      <trkpt lat="43.60466" lon="1.16664">
        <ele>268.409485</ele>
        <time>2013-03-16T15:39:15Z</time>
      </trkpt>
      <trkpt lat="43.6047" lon="1.16668">
        <ele>268.360596</ele>
        <time>2013-03-16T15:39:16Z</time>
      </trkpt>
      <trkpt lat="43.60486" lon="1.16692">
        <ele>267.771851</ele>
        <time>2013-03-16T15:39:22Z</time>
      </trkpt>
      <trkpt lat="43.60488" lon="1.16696">
        <ele>267.656677</ele>
        <time>2013-03-16T15:39:23Z</time>
      </trkpt>
      <trkpt lat="43.60503" lon="1.1673">
        <ele>267.478119</ele>
        <time>2013-03-16T15:39:32Z</time>
      </trkpt>
      <trkpt lat="43.60511" lon="1.1674">
        <ele>267.43631</ele>
        <time>2013-03-16T15:39:35Z</time>
      </trkpt>
      <trkpt lat="43.60521" lon="1.16747">
        <ele>267.206512</ele>
        <time>2013-03-16T15:39:37Z</time>
      </trkpt>
      <trkpt lat="43.60532" lon="1.16757">
        <ele>266.752136</ele>
        <time>2013-03-16T15:39:39Z</time>
      </trkpt>
      <trkpt lat="43.60556" lon="1.16797">
        <ele>266.247803</ele>
        <time>2013-03-16T15:39:46Z</time>
      </trkpt>
      <trkpt lat="43.60557" lon="1.16808">
        <ele>266.682373</ele>
        <time>2013-03-16T15:39:48Z</time>
      </trkpt>
      <trkpt lat="43.60567" lon="1.16845">
        <ele>266.994995</ele>
        <time>2013-03-16T15:39:55Z</time>
      </trkpt>
      <trkpt lat="43.60573" lon="1.16857">
        <ele>266.825012</ele>
        <time>2013-03-16T15:39:57Z</time>
      </trkpt>
      <trkpt lat="43.6059" lon="1.16886">
        <ele>265.848755</ele>
        <time>2013-03-16T15:40:03Z</time>
      </trkpt>
      <trkpt lat="43.60598" lon="1.16904">
        <ele>265.35437</ele>
        <time>2013-03-16T15:40:07Z</time>
      </trkpt>
      <trkpt lat="43.60602" lon="1.16938">
        <ele>265.573792</ele>
        <time>2013-03-16T15:40:13Z</time>
      </trkpt>
      <trkpt lat="43.60597" lon="1.16963">
        <ele>266.375061</ele>
        <time>2013-03-16T15:40:21Z</time>
      </trkpt>
      <trkpt lat="43.60602" lon="1.16972">
        <ele>265.80658</ele>
        <time>2013-03-16T15:40:23Z</time>
      </trkpt>
      <trkpt lat="43.60608" lon="1.17016">
        <ele>265.1875</ele>
        <time>2013-03-16T15:40:30Z</time>
      </trkpt>
      <trkpt lat="43.60615" lon="1.17048">
        <ele>264.5</ele>
        <time>2013-03-16T15:40:36Z</time>
      </trkpt>
      <trkpt lat="43.60625" lon="1.1707">
        <ele>263.337494</ele>
        <time>2013-03-16T15:40:40Z</time>
      </trkpt>
      <trkpt lat="43.60643" lon="1.171">
        <ele>262.577637</ele>
        <time>2013-03-16T15:40:45Z</time>
      </trkpt>
      <trkpt lat="43.60662" lon="1.17132">
        <ele>262.510529</ele>
        <time>2013-03-16T15:40:50Z</time>
      </trkpt>
      <trkpt lat="43.60684" lon="1.17181">
        <ele>262.188751</ele>
        <time>2013-03-16T15:40:58Z</time>
      </trkpt>
      <trkpt lat="43.6069" lon="1.17189">
        <ele>261.924988</ele>
        <time>2013-03-16T15:41:00Z</time>
      </trkpt>
      <trkpt lat="43.60695" lon="1.17202">
        <ele>261.747375</ele>
        <time>2013-03-16T15:41:03Z</time>
      </trkpt>
      <trkpt lat="43.60701" lon="1.17213">
        <ele>261.108887</ele>
        <time>2013-03-16T15:41:05Z</time>
      </trkpt>
      <trkpt lat="43.6071" lon="1.17236">
        <ele>259.896729</ele>
        <time>2013-03-16T15:41:09Z</time>
      </trkpt>
      <trkpt lat="43.60724" lon="1.17271">
        <ele>258.540588</ele>
        <time>2013-03-16T15:41:16Z</time>
      </trkpt>
      <trkpt lat="43.60741" lon="1.17289">
        <ele>258.30835</ele>
        <time>2013-03-16T15:41:21Z</time>
      </trkpt>
      <trkpt lat="43.60746" lon="1.17296">
        <ele>258.678101</ele>
        <time>2013-03-16T15:41:23Z</time>
      </trkpt>
      <trkpt lat="43.60783" lon="1.17312">
        <ele>257.774139</ele>
        <time>2013-03-16T15:41:31Z</time>
      </trkpt>
      <trkpt lat="43.60811" lon="1.17338">
        <ele>259.434967</ele>
        <time>2013-03-16T15:41:38Z</time>
      </trkpt>
      <trkpt lat="43.60819" lon="1.17346">
        <ele>259.944916</ele>
        <time>2013-03-16T15:41:40Z</time>
      </trkpt>
      <trkpt lat="43.6084" lon="1.17367">
        <ele>260.483521</ele>
        <time>2013-03-16T15:41:48Z</time>
      </trkpt>
      <trkpt lat="43.60841" lon="1.17367">
        <ele>260.349945</ele>
        <time>2013-03-16T15:42:07Z</time>
      </trkpt>
      <trkpt lat="43.60871" lon="1.17361">
        <ele>256.740265</ele>
        <time>2013-03-16T15:42:14Z</time>
      </trkpt>
      <trkpt lat="43.60892" lon="1.17369">
        <ele>255.142273</ele>
        <time>2013-03-16T15:42:17Z</time>
      </trkpt>
      <trkpt lat="43.60921" lon="1.17387">
        <ele>252.51532</ele>
        <time>2013-03-16T15:42:23Z</time>
      </trkpt>
      <trkpt lat="43.60948" lon="1.17406">
        <ele>253.182007</ele>
        <time>2013-03-16T15:42:31Z</time>
      </trkpt>
      <trkpt lat="43.60966" lon="1.17414">
        <ele>253.351608</ele>
        <time>2013-03-16T15:42:35Z</time>
      </trkpt>
      <trkpt lat="43.60996" lon="1.17431">
        <ele>252.50415</ele>
        <time>2013-03-16T15:42:40Z</time>
      </trkpt>
      <trkpt lat="43.61007" lon="1.17441">
        <ele>251.415863</ele>
        <time>2013-03-16T15:42:42Z</time>
      </trkpt>
      <trkpt lat="43.61036" lon="1.17469">
        <ele>252.325592</ele>
        <time>2013-03-16T15:42:48Z</time>
      </trkpt>
      <trkpt lat="43.61042" lon="1.17482">
        <ele>252.95668</ele>
        <time>2013-03-16T15:42:50Z</time>
      </trkpt>
      <trkpt lat="43.61052" lon="1.17504">
        <ele>253.590286</ele>
        <time>2013-03-16T15:42:55Z</time>
      </trkpt>
      <trkpt lat="43.61061" lon="1.17524">
        <ele>253.598618</ele>
        <time>2013-03-16T15:43:02Z</time>
      </trkpt>
      <trkpt lat="43.61068" lon="1.17539">
        <ele>253.40358</ele>
        <time>2013-03-16T15:43:12Z</time>
      </trkpt>
      <trkpt lat="43.61068" lon="1.17541">
        <ele>253.472778</ele>
        <time>2013-03-16T15:43:14Z</time>
      </trkpt>
      <trkpt lat="43.61072" lon="1.17559">
        <ele>253.754257</ele>
        <time>2013-03-16T15:43:21Z</time>
      </trkpt>
      <trkpt lat="43.61082" lon="1.17603">
        <ele>253.978745</ele>
        <time>2013-03-16T15:43:32Z</time>
      </trkpt>
      <trkpt lat="43.61092" lon="1.17637">
        <ele>254.466049</ele>
        <time>2013-03-16T15:43:39Z</time>
      </trkpt>
      <trkpt lat="43.61098" lon="1.1766">
        <ele>255.549469</ele>
        <time>2013-03-16T15:43:43Z</time>
      </trkpt>
      <trkpt lat="43.611" lon="1.17666">
        <ele>255.746628</ele>
        <time>2013-03-16T15:43:44Z</time>
      </trkpt>
      <trkpt lat="43.61112" lon="1.177">
        <ele>257.264374</ele>
        <time>2013-03-16T15:43:50Z</time>
      </trkpt>
      <trkpt lat="43.61114" lon="1.17706">
        <ele>257.486969</ele>
        <time>2013-03-16T15:43:51Z</time>
      </trkpt>
      <trkpt lat="43.61116" lon="1.17711">
        <ele>257.754883</ele>
        <time>2013-03-16T15:43:52Z</time>
      </trkpt>
      <trkpt lat="43.61134" lon="1.17772">
        <ele>259.052368</ele>
        <time>2013-03-16T15:44:04Z</time>
      </trkpt>
      <trkpt lat="43.61146" lon="1.17815">
        <ele>259.481964</ele>
        <time>2013-03-16T15:44:12Z</time>
      </trkpt>
      <trkpt lat="43.6115" lon="1.17833">
        <ele>259.285645</ele>
        <time>2013-03-16T15:44:15Z</time>
      </trkpt>
      <trkpt lat="43.61151" lon="1.17838">
        <ele>259.305695</ele>
        <time>2013-03-16T15:44:16Z</time>
      </trkpt>
      <trkpt lat="43.61153" lon="1.17843">
        <ele>259.211548</ele>
        <time>2013-03-16T15:44:17Z</time>
      </trkpt>
      <trkpt lat="43.61154" lon="1.17848">
        <ele>259.163177</ele>
        <time>2013-03-16T15:44:18Z</time>
      </trkpt>
      <trkpt lat="43.61155" lon="1.17852">
        <ele>259.181488</ele>
        <time>2013-03-16T15:44:19Z</time>
      </trkpt>
      <trkpt lat="43.61166" lon="1.17893">
        <ele>259.045746</ele>
        <time>2013-03-16T15:44:28Z</time>
      </trkpt>
      <trkpt lat="43.61171" lon="1.17909">
        <ele>259.066315</ele>
        <time>2013-03-16T15:44:32Z</time>
      </trkpt>
      <trkpt lat="43.61171" lon="1.17913">
        <ele>259.158173</ele>
        <time>2013-03-16T15:44:33Z</time>
      </trkpt>
      <trkpt lat="43.61171" lon="1.17916">
        <ele>259.23996</ele>
        <time>2013-03-16T15:44:34Z</time>
      </trkpt>
      <trkpt lat="43.61172" lon="1.17921">
        <ele>259.295349</ele>
        <time>2013-03-16T15:44:35Z</time>
      </trkpt>
      <trkpt lat="43.61174" lon="1.17925">
        <ele>259.284882</ele>
        <time>2013-03-16T15:44:36Z</time>
      </trkpt>
      <trkpt lat="43.61176" lon="1.1793">
        <ele>259.271362</ele>
        <time>2013-03-16T15:44:37Z</time>
      </trkpt>
      <trkpt lat="43.61178" lon="1.17935">
        <ele>259.287506</ele>
        <time>2013-03-16T15:44:38Z</time>
      </trkpt>
      <trkpt lat="43.6118" lon="1.1794">
        <ele>259.331238</ele>
        <time>2013-03-16T15:44:39Z</time>
      </trkpt>
      <trkpt lat="43.61181" lon="1.17944">
        <ele>259.415009</ele>
        <time>2013-03-16T15:44:40Z</time>
      </trkpt>
      <trkpt lat="43.61181" lon="1.17949">
        <ele>259.511261</ele>
        <time>2013-03-16T15:44:41Z</time>
      </trkpt>
      <trkpt lat="43.61182" lon="1.17953">
        <ele>259.597504</ele>
        <time>2013-03-16T15:44:42Z</time>
      </trkpt>
      <trkpt lat="43.61184" lon="1.17958">
        <ele>259.647491</ele>
        <time>2013-03-16T15:44:43Z</time>
      </trkpt>
      <trkpt lat="43.61186" lon="1.17964">
        <ele>259.71875</ele>
        <time>2013-03-16T15:44:44Z</time>
      </trkpt>
      <trkpt lat="43.61189" lon="1.17975">
        <ele>259.856262</ele>
        <time>2013-03-16T15:44:46Z</time>
      </trkpt>
      <trkpt lat="43.61192" lon="1.17981">
        <ele>259.904999</ele>
        <time>2013-03-16T15:44:47Z</time>
      </trkpt>
      <trkpt lat="43.61193" lon="1.17987">
        <ele>259.971252</ele>
        <time>2013-03-16T15:44:48Z</time>
      </trkpt>
      <trkpt lat="43.61195" lon="1.17993">
        <ele>260.029999</ele>
        <time>2013-03-16T15:44:49Z</time>
      </trkpt>
      <trkpt lat="43.61197" lon="1.17999">
        <ele>259.904297</ele>
        <time>2013-03-16T15:44:50Z</time>
      </trkpt>
      <trkpt lat="43.61199" lon="1.18005">
        <ele>259.713287</ele>
        <time>2013-03-16T15:44:51Z</time>
      </trkpt>
      <trkpt lat="43.61201" lon="1.18011">
        <ele>259.527954</ele>
        <time>2013-03-16T15:44:52Z</time>
      </trkpt>
      <trkpt lat="43.61202" lon="1.18017">
        <ele>259.421997</ele>
        <time>2013-03-16T15:44:53Z</time>
      </trkpt>
      <trkpt lat="43.61204" lon="1.18023">
        <ele>259.289124</ele>
        <time>2013-03-16T15:44:54Z</time>
      </trkpt>
      <trkpt lat="43.61205" lon="1.18029">
        <ele>259.245544</ele>
        <time>2013-03-16T15:44:55Z</time>
      </trkpt>
      <trkpt lat="43.61209" lon="1.18042">
        <ele>259.050812</ele>
        <time>2013-03-16T15:44:57Z</time>
      </trkpt>
      <trkpt lat="43.6121" lon="1.18048">
        <ele>259.050964</ele>
        <time>2013-03-16T15:44:58Z</time>
      </trkpt>
      <trkpt lat="43.61213" lon="1.18061">
        <ele>258.981873</ele>
        <time>2013-03-16T15:45:00Z</time>
      </trkpt>
      <trkpt lat="43.61215" lon="1.18067">
        <ele>258.95874</ele>
        <time>2013-03-16T15:45:01Z</time>
      </trkpt>
      <trkpt lat="43.61218" lon="1.18074">
        <ele>258.90686</ele>
        <time>2013-03-16T15:45:02Z</time>
      </trkpt>
      <trkpt lat="43.6122" lon="1.1808">
        <ele>258.845001</ele>
        <time>2013-03-16T15:45:03Z</time>
      </trkpt>
      <trkpt lat="43.61223" lon="1.18087">
        <ele>258.804382</ele>
        <time>2013-03-16T15:45:04Z</time>
      </trkpt>
      <trkpt lat="43.61225" lon="1.18093">
        <ele>258.773132</ele>
        <time>2013-03-16T15:45:05Z</time>
      </trkpt>
      <trkpt lat="43.61226" lon="1.18099">
        <ele>258.766235</ele>
        <time>2013-03-16T15:45:06Z</time>
      </trkpt>
      <trkpt lat="43.61228" lon="1.18106">
        <ele>258.754364</ele>
        <time>2013-03-16T15:45:07Z</time>
      </trkpt>
      <trkpt lat="43.6123" lon="1.18112">
        <ele>258.714996</ele>
        <time>2013-03-16T15:45:08Z</time>
      </trkpt>
      <trkpt lat="43.61232" lon="1.18119">
        <ele>258.625671</ele>
        <time>2013-03-16T15:45:09Z</time>
      </trkpt>
      <trkpt lat="43.61234" lon="1.18126">
        <ele>258.482269</ele>
        <time>2013-03-16T15:45:10Z</time>
      </trkpt>
      <trkpt lat="43.61249" lon="1.18172">
        <ele>257.714996</ele>
        <time>2013-03-16T15:45:17Z</time>
      </trkpt>
      <trkpt lat="43.61253" lon="1.18176">
        <ele>257.559998</ele>
        <time>2013-03-16T15:45:18Z</time>
      </trkpt>
      <trkpt lat="43.61256" lon="1.18181">
        <ele>257.357544</ele>
        <time>2013-03-16T15:45:19Z</time>
      </trkpt>
      <trkpt lat="43.6126" lon="1.18185">
        <ele>257.169922</ele>
        <time>2013-03-16T15:45:20Z</time>
      </trkpt>
      <trkpt lat="43.61263" lon="1.18189">
        <ele>256.989594</ele>
        <time>2013-03-16T15:45:21Z</time>
      </trkpt>
      <trkpt lat="43.61276" lon="1.18201">
        <ele>256.440002</ele>
        <time>2013-03-16T15:45:24Z</time>
      </trkpt>
      <trkpt lat="43.6128" lon="1.18205">
        <ele>256.277191</ele>
        <time>2013-03-16T15:45:25Z</time>
      </trkpt>
      <trkpt lat="43.61284" lon="1.18209">
        <ele>256.121887</ele>
        <time>2013-03-16T15:45:26Z</time>
      </trkpt>
      <trkpt lat="43.61298" lon="1.1822">
        <ele>255.774994</ele>
        <time>2013-03-16T15:45:29Z</time>
      </trkpt>
      <trkpt lat="43.6133" lon="1.18233">
        <ele>255.072495</ele>
        <time>2013-03-16T15:45:35Z</time>
      </trkpt>
      <trkpt lat="43.61335" lon="1.18232">
        <ele>254.949997</ele>
        <time>2013-03-16T15:45:36Z</time>
      </trkpt>
      <trkpt lat="43.61341" lon="1.18229">
        <ele>254.824997</ele>
        <time>2013-03-16T15:45:37Z</time>
      </trkpt>
      <trkpt lat="43.61346" lon="1.18227">
        <ele>254.705002</ele>
        <time>2013-03-16T15:45:38Z</time>
      </trkpt>
      <trkpt lat="43.61351" lon="1.18226">
        <ele>254.610001</ele>
        <time>2013-03-16T15:45:39Z</time>
      </trkpt>
      <trkpt lat="43.61354" lon="1.18226">
        <ele>254.524994</ele>
        <time>2013-03-16T15:45:40Z</time>
      </trkpt>
      <trkpt lat="43.61358" lon="1.18225">
        <ele>254.4375</ele>
        <time>2013-03-16T15:45:41Z</time>
      </trkpt>
      <trkpt lat="43.61362" lon="1.18224">
        <ele>254.357498</ele>
        <time>2013-03-16T15:45:42Z</time>
      </trkpt>
      <trkpt lat="43.61366" lon="1.18223">
        <ele>254.274994</ele>
        <time>2013-03-16T15:45:43Z</time>
      </trkpt>
      <trkpt lat="43.61393" lon="1.18216">
        <ele>253.89505</ele>
        <time>2013-03-16T15:45:49Z</time>
      </trkpt>
      <trkpt lat="43.61408" lon="1.18212">
        <ele>253.740799</ele>
        <time>2013-03-16T15:45:52Z</time>
      </trkpt>
      <trkpt lat="43.61413" lon="1.1821">
        <ele>253.667709</ele>
        <time>2013-03-16T15:45:53Z</time>
      </trkpt>
      <trkpt lat="43.61419" lon="1.18208">
        <ele>253.595032</ele>
        <time>2013-03-16T15:45:54Z</time>
      </trkpt>
      <trkpt lat="43.61424" lon="1.18207">
        <ele>253.513062</ele>
        <time>2013-03-16T15:45:55Z</time>
      </trkpt>
      <trkpt lat="43.61429" lon="1.18205">
        <ele>253.379181</ele>
        <time>2013-03-16T15:45:56Z</time>
      </trkpt>
      <trkpt lat="43.61435" lon="1.18204">
        <ele>253.226395</ele>
        <time>2013-03-16T15:45:57Z</time>
      </trkpt>
      <trkpt lat="43.61441" lon="1.18203">
        <ele>253.063004</ele>
        <time>2013-03-16T15:45:58Z</time>
      </trkpt>
      <trkpt lat="43.61478" lon="1.1819">
        <ele>251.451279</ele>
        <time>2013-03-16T15:46:05Z</time>
      </trkpt>
      <trkpt lat="43.61485" lon="1.18189">
        <ele>251.163071</ele>
        <time>2013-03-16T15:46:06Z</time>
      </trkpt>
      <trkpt lat="43.61531" lon="1.18185">
        <ele>249.009995</ele>
        <time>2013-03-16T15:46:14Z</time>
      </trkpt>
      <trkpt lat="43.61536" lon="1.18183">
        <ele>248.720001</ele>
        <time>2013-03-16T15:46:15Z</time>
      </trkpt>
      <trkpt lat="43.61557" lon="1.18177">
        <ele>247.412506</ele>
        <time>2013-03-16T15:46:19Z</time>
      </trkpt>
      <trkpt lat="43.61562" lon="1.18177">
        <ele>246.952499</ele>
        <time>2013-03-16T15:46:20Z</time>
      </trkpt>
      <trkpt lat="43.61569" lon="1.18178">
        <ele>246.467499</ele>
        <time>2013-03-16T15:46:21Z</time>
      </trkpt>
      <trkpt lat="43.61575" lon="1.18179">
        <ele>245.982498</ele>
        <time>2013-03-16T15:46:22Z</time>
      </trkpt>
      <trkpt lat="43.61581" lon="1.18181">
        <ele>245.557495</ele>
        <time>2013-03-16T15:46:23Z</time>
      </trkpt>
      <trkpt lat="43.61587" lon="1.18184">
        <ele>245.217499</ele>
        <time>2013-03-16T15:46:24Z</time>
      </trkpt>
      <trkpt lat="43.61593" lon="1.18189">
        <ele>245.059998</ele>
        <time>2013-03-16T15:46:25Z</time>
      </trkpt>
      <trkpt lat="43.61597" lon="1.18195">
        <ele>245.087494</ele>
        <time>2013-03-16T15:46:26Z</time>
      </trkpt>
      <trkpt lat="43.61602" lon="1.182">
        <ele>245.042496</ele>
        <time>2013-03-16T15:46:27Z</time>
      </trkpt>
      <trkpt lat="43.61607" lon="1.18204">
        <ele>244.733627</ele>
        <time>2013-03-16T15:46:28Z</time>
      </trkpt>
      <trkpt lat="43.61613" lon="1.18206">
        <ele>244.345703</ele>
        <time>2013-03-16T15:46:29Z</time>
      </trkpt>
      <trkpt lat="43.61619" lon="1.1821">
        <ele>243.998688</ele>
        <time>2013-03-16T15:46:30Z</time>
      </trkpt>
      <trkpt lat="43.61626" lon="1.18214">
        <ele>243.604721</ele>
        <time>2013-03-16T15:46:31Z</time>
      </trkpt>
      <trkpt lat="43.61632" lon="1.18214">
        <ele>243.122299</ele>
        <time>2013-03-16T15:46:32Z</time>
      </trkpt>
      <trkpt lat="43.61636" lon="1.18212">
        <ele>242.522659</ele>
        <time>2013-03-16T15:46:33Z</time>
      </trkpt>
      <trkpt lat="43.61641" lon="1.1821">
        <ele>241.905869</ele>
        <time>2013-03-16T15:46:34Z</time>
      </trkpt>
      <trkpt lat="43.61646" lon="1.18209">
        <ele>241.355637</ele>
        <time>2013-03-16T15:46:35Z</time>
      </trkpt>
      <trkpt lat="43.61651" lon="1.1821">
        <ele>240.975647</ele>
        <time>2013-03-16T15:46:36Z</time>
      </trkpt>
      <trkpt lat="43.61657" lon="1.18211">
        <ele>240.590134</ele>
        <time>2013-03-16T15:46:37Z</time>
      </trkpt>
      <trkpt lat="43.61662" lon="1.18213">
        <ele>240.242966</ele>
        <time>2013-03-16T15:46:38Z</time>
      </trkpt>
      <trkpt lat="43.61667" lon="1.18216">
        <ele>239.997299</ele>
        <time>2013-03-16T15:46:39Z</time>
      </trkpt>
      <trkpt lat="43.6167" lon="1.18219">
        <ele>239.843063</ele>
        <time>2013-03-16T15:46:40Z</time>
      </trkpt>
      <trkpt lat="43.61674" lon="1.18223">
        <ele>239.704346</ele>
        <time>2013-03-16T15:46:41Z</time>
      </trkpt>
      <trkpt lat="43.61677" lon="1.18228">
        <ele>239.634811</ele>
        <time>2013-03-16T15:46:42Z</time>
      </trkpt>
      <trkpt lat="43.6168" lon="1.18234">
        <ele>239.647705</ele>
        <time>2013-03-16T15:46:43Z</time>
      </trkpt>
      <trkpt lat="43.61682" lon="1.1824">
        <ele>239.695389</ele>
        <time>2013-03-16T15:46:44Z</time>
      </trkpt>
      <trkpt lat="43.61684" lon="1.18246">
        <ele>239.816849</ele>
        <time>2013-03-16T15:46:45Z</time>
      </trkpt>
      <trkpt lat="43.61688" lon="1.18266">
        <ele>240.361572</ele>
        <time>2013-03-16T15:46:48Z</time>
      </trkpt>
      <trkpt lat="43.61689" lon="1.18272">
        <ele>240.542084</ele>
        <time>2013-03-16T15:46:49Z</time>
      </trkpt>
      <trkpt lat="43.6169" lon="1.18278">
        <ele>240.678284</ele>
        <time>2013-03-16T15:46:50Z</time>
      </trkpt>
      <trkpt lat="43.61693" lon="1.18285">
        <ele>240.723251</ele>
        <time>2013-03-16T15:46:52Z</time>
      </trkpt>
      <trkpt lat="43.61695" lon="1.18289">
        <ele>240.678497</ele>
        <time>2013-03-16T15:46:53Z</time>
      </trkpt>
      <trkpt lat="43.61697" lon="1.18294">
        <ele>240.689377</ele>
        <time>2013-03-16T15:46:54Z</time>
      </trkpt>
      <trkpt lat="43.61698" lon="1.18299">
        <ele>240.798752</ele>
        <time>2013-03-16T15:46:55Z</time>
      </trkpt>
      <trkpt lat="43.617" lon="1.18302">
        <ele>240.829376</ele>
        <time>2013-03-16T15:46:56Z</time>
      </trkpt>
      <trkpt lat="43.61707" lon="1.18326">
        <ele>241.251251</ele>
        <time>2013-03-16T15:47:01Z</time>
      </trkpt>
      <trkpt lat="43.6171" lon="1.18331">
        <ele>241.147507</ele>
        <time>2013-03-16T15:47:02Z</time>
      </trkpt>
      <trkpt lat="43.61713" lon="1.18337">
        <ele>241.038742</ele>
        <time>2013-03-16T15:47:03Z</time>
      </trkpt>
      <trkpt lat="43.61718" lon="1.18348">
        <ele>241.080002</ele>
        <time>2013-03-16T15:47:05Z</time>
      </trkpt>
      <trkpt lat="43.61719" lon="1.18352">
        <ele>241.205627</ele>
        <time>2013-03-16T15:47:06Z</time>
      </trkpt>
      <trkpt lat="43.61722" lon="1.18356">
        <ele>241.060623</ele>
        <time>2013-03-16T15:47:07Z</time>
      </trkpt>
      <trkpt lat="43.61727" lon="1.1836">
        <ele>240.761856</ele>
        <time>2013-03-16T15:47:08Z</time>
      </trkpt>
      <trkpt lat="43.61731" lon="1.18365">
        <ele>240.464188</ele>
        <time>2013-03-16T15:47:09Z</time>
      </trkpt>
      <trkpt lat="43.61736" lon="1.18369">
        <ele>240.190155</ele>
        <time>2013-03-16T15:47:10Z</time>
      </trkpt>
      <trkpt lat="43.61739" lon="1.18374">
        <ele>240.01062</ele>
        <time>2013-03-16T15:47:11Z</time>
      </trkpt>
      <trkpt lat="43.61742" lon="1.18379">
        <ele>239.939377</ele>
        <time>2013-03-16T15:47:12Z</time>
      </trkpt>
      <trkpt lat="43.61744" lon="1.18384">
        <ele>239.879379</ele>
        <time>2013-03-16T15:47:13Z</time>
      </trkpt>
      <trkpt lat="43.61747" lon="1.18389">
        <ele>239.804367</ele>
        <time>2013-03-16T15:47:14Z</time>
      </trkpt>
      <trkpt lat="43.61748" lon="1.18393">
        <ele>239.785629</ele>
        <time>2013-03-16T15:47:15Z</time>
      </trkpt>
      <trkpt lat="43.6175" lon="1.18397">
        <ele>239.751877</ele>
        <time>2013-03-16T15:47:16Z</time>
      </trkpt>
      <trkpt lat="43.61752" lon="1.18401">
        <ele>239.652496</ele>
        <time>2013-03-16T15:47:17Z</time>
      </trkpt>
      <trkpt lat="43.61755" lon="1.18404">
        <ele>239.401245</ele>
        <time>2013-03-16T15:47:18Z</time>
      </trkpt>
      <trkpt lat="43.61759" lon="1.18406">
        <ele>239.050629</ele>
        <time>2013-03-16T15:47:19Z</time>
      </trkpt>
      <trkpt lat="43.61762" lon="1.1841">
        <ele>238.744995</ele>
        <time>2013-03-16T15:47:20Z</time>
      </trkpt>
      <trkpt lat="43.6177" lon="1.18415">
        <ele>237.987625</ele>
        <time>2013-03-16T15:47:22Z</time>
      </trkpt>
      <trkpt lat="43.61774" lon="1.18418">
        <ele>237.710846</ele>
        <time>2013-03-16T15:47:23Z</time>
      </trkpt>
      <trkpt lat="43.61778" lon="1.1842">
        <ele>237.394943</ele>
        <time>2013-03-16T15:47:24Z</time>
      </trkpt>
      <trkpt lat="43.61781" lon="1.18422">
        <ele>237.148956</ele>
        <time>2013-03-16T15:47:25Z</time>
      </trkpt>
      <trkpt lat="43.61782" lon="1.18424">
        <ele>237.157425</ele>
        <time>2013-03-16T15:47:26Z</time>
      </trkpt>
      <trkpt lat="43.61784" lon="1.18426">
        <ele>237.080765</ele>
        <time>2013-03-16T15:47:27Z</time>
      </trkpt>
      <trkpt lat="43.61786" lon="1.18428">
        <ele>237.038498</ele>
        <time>2013-03-16T15:47:28Z</time>
      </trkpt>
      <trkpt lat="43.61788" lon="1.1843">
        <ele>236.977722</ele>
        <time>2013-03-16T15:47:29Z</time>
      </trkpt>
      <trkpt lat="43.6179" lon="1.18433">
        <ele>236.975464</ele>
        <time>2013-03-16T15:47:30Z</time>
      </trkpt>
      <trkpt lat="43.61792" lon="1.18436">
        <ele>237.047607</ele>
        <time>2013-03-16T15:47:31Z</time>
      </trkpt>
      <trkpt lat="43.61797" lon="1.18444">
        <ele>237.170868</ele>
        <time>2013-03-16T15:47:33Z</time>
      </trkpt>
      <trkpt lat="43.61808" lon="1.18457">
        <ele>236.836441</ele>
        <time>2013-03-16T15:47:36Z</time>
      </trkpt>
      <trkpt lat="43.61823" lon="1.18483">
        <ele>236.524994</ele>
        <time>2013-03-16T15:47:42Z</time>
      </trkpt>
      <trkpt lat="43.61824" lon="1.18486">
        <ele>236.610001</ele>
        <time>2013-03-16T15:47:43Z</time>
      </trkpt>
      <trkpt lat="43.61824" lon="1.18489">
        <ele>236.757492</ele>
        <time>2013-03-16T15:47:44Z</time>
      </trkpt>
      <trkpt lat="43.61824" lon="1.18493">
        <ele>236.982498</ele>
        <time>2013-03-16T15:47:45Z</time>
      </trkpt>
      <trkpt lat="43.61825" lon="1.18497">
        <ele>237.125</ele>
        <time>2013-03-16T15:47:46Z</time>
      </trkpt>
      <trkpt lat="43.61827" lon="1.18502">
        <ele>237.182495</ele>
        <time>2013-03-16T15:47:47Z</time>
      </trkpt>
      <trkpt lat="43.6183" lon="1.18507">
        <ele>237.147507</ele>
        <time>2013-03-16T15:47:48Z</time>
      </trkpt>
      <trkpt lat="43.61836" lon="1.1851">
        <ele>236.65625</ele>
        <time>2013-03-16T15:47:49Z</time>
      </trkpt>
      <trkpt lat="43.61839" lon="1.18514">
        <ele>236.430435</ele>
        <time>2013-03-16T15:47:50Z</time>
      </trkpt>
      <trkpt lat="43.61841" lon="1.18517">
        <ele>236.209808</ele>
        <time>2013-03-16T15:47:51Z</time>
      </trkpt>
      <trkpt lat="43.61844" lon="1.1852">
        <ele>235.998672</ele>
        <time>2013-03-16T15:47:52Z</time>
      </trkpt>
      <trkpt lat="43.61846" lon="1.18523">
        <ele>235.775436</ele>
        <time>2013-03-16T15:47:53Z</time>
      </trkpt>
      <trkpt lat="43.61858" lon="1.18545">
        <ele>234.693756</ele>
        <time>2013-03-16T15:47:58Z</time>
      </trkpt>
      <trkpt lat="43.6186" lon="1.1855">
        <ele>234.538757</ele>
        <time>2013-03-16T15:47:59Z</time>
      </trkpt>
      <trkpt lat="43.61862" lon="1.18555">
        <ele>234.393127</ele>
        <time>2013-03-16T15:48:00Z</time>
      </trkpt>
      <trkpt lat="43.61867" lon="1.18565">
        <ele>234.037506</ele>
        <time>2013-03-16T15:48:02Z</time>
      </trkpt>
      <trkpt lat="43.61869" lon="1.18571">
        <ele>233.99437</ele>
        <time>2013-03-16T15:48:03Z</time>
      </trkpt>
      <trkpt lat="43.61871" lon="1.18578">
        <ele>233.981873</ele>
        <time>2013-03-16T15:48:04Z</time>
      </trkpt>
      <trkpt lat="43.61873" lon="1.18584">
        <ele>233.945007</ele>
        <time>2013-03-16T15:48:05Z</time>
      </trkpt>
      <trkpt lat="43.61875" lon="1.18589">
        <ele>233.830627</ele>
        <time>2013-03-16T15:48:06Z</time>
      </trkpt>
      <trkpt lat="43.61877" lon="1.18594">
        <ele>233.801056</ele>
        <time>2013-03-16T15:48:07Z</time>
      </trkpt>
      <trkpt lat="43.61879" lon="1.186">
        <ele>233.87291</ele>
        <time>2013-03-16T15:48:08Z</time>
      </trkpt>
      <trkpt lat="43.61879" lon="1.18605">
        <ele>233.973755</ele>
        <time>2013-03-16T15:48:09Z</time>
      </trkpt>
      <trkpt lat="43.6188" lon="1.1861">
        <ele>234.048477</ele>
        <time>2013-03-16T15:48:10Z</time>
      </trkpt>
      <trkpt lat="43.61882" lon="1.18616">
        <ele>234.045273</ele>
        <time>2013-03-16T15:48:11Z</time>
      </trkpt>
      <trkpt lat="43.61884" lon="1.18622">
        <ele>234.036194</ele>
        <time>2013-03-16T15:48:12Z</time>
      </trkpt>
      <trkpt lat="43.61885" lon="1.18628">
        <ele>234.033051</ele>
        <time>2013-03-16T15:48:13Z</time>
      </trkpt>
      <trkpt lat="43.61887" lon="1.18635">
        <ele>234.015549</ele>
        <time>2013-03-16T15:48:14Z</time>
      </trkpt>
      <trkpt lat="43.61889" lon="1.18641">
        <ele>233.935776</ele>
        <time>2013-03-16T15:48:15Z</time>
      </trkpt>
      <trkpt lat="43.61891" lon="1.18647">
        <ele>233.851715</ele>
        <time>2013-03-16T15:48:16Z</time>
      </trkpt>
      <trkpt lat="43.61892" lon="1.18653">
        <ele>233.871964</ele>
        <time>2013-03-16T15:48:17Z</time>
      </trkpt>
      <trkpt lat="43.61892" lon="1.1866">
        <ele>233.989075</ele>
        <time>2013-03-16T15:48:18Z</time>
      </trkpt>
      <trkpt lat="43.61893" lon="1.18666">
        <ele>234.008606</ele>
        <time>2013-03-16T15:48:19Z</time>
      </trkpt>
      <trkpt lat="43.61894" lon="1.18672">
        <ele>233.887115</ele>
        <time>2013-03-16T15:48:20Z</time>
      </trkpt>
      <trkpt lat="43.61912" lon="1.18689">
        <ele>231.427795</ele>
        <time>2013-03-16T15:48:26Z</time>
      </trkpt>
      <trkpt lat="43.61924" lon="1.18696">
        <ele>230.055893</ele>
        <time>2013-03-16T15:48:29Z</time>
      </trkpt>
      <trkpt lat="43.61926" lon="1.18702">
        <ele>230.110077</ele>
        <time>2013-03-16T15:48:30Z</time>
      </trkpt>
      <trkpt lat="43.61928" lon="1.18709">
        <ele>230.139389</ele>
        <time>2013-03-16T15:48:31Z</time>
      </trkpt>
      <trkpt lat="43.61929" lon="1.18715">
        <ele>230.154251</ele>
        <time>2013-03-16T15:48:32Z</time>
      </trkpt>
      <trkpt lat="43.61929" lon="1.18726">
        <ele>230.145004</ele>
        <time>2013-03-16T15:48:34Z</time>
      </trkpt>
      <trkpt lat="43.61927" lon="1.18729">
        <ele>230.100006</ele>
        <time>2013-03-16T15:48:35Z</time>
      </trkpt>
      <trkpt lat="43.61925" lon="1.18732">
        <ele>230.052505</ele>
        <time>2013-03-16T15:48:36Z</time>
      </trkpt>
      <trkpt lat="43.61924" lon="1.18737">
        <ele>230.022507</ele>
        <time>2013-03-16T15:48:37Z</time>
      </trkpt>
      <trkpt lat="43.61923" lon="1.18742">
        <ele>230.005005</ele>
        <time>2013-03-16T15:48:38Z</time>
      </trkpt>
      <trkpt lat="43.61923" lon="1.18747">
        <ele>230.007507</ele>
        <time>2013-03-16T15:48:39Z</time>
      </trkpt>
      <trkpt lat="43.61925" lon="1.18752">
        <ele>230.035004</ele>
        <time>2013-03-16T15:48:40Z</time>
      </trkpt>
      <trkpt lat="43.61926" lon="1.18757">
        <ele>230.059998</ele>
        <time>2013-03-16T15:48:41Z</time>
      </trkpt>
      <trkpt lat="43.61927" lon="1.18763">
        <ele>230.077499</ele>
        <time>2013-03-16T15:48:42Z</time>
      </trkpt>
      <trkpt lat="43.61927" lon="1.18769">
        <ele>230.092499</ele>
        <time>2013-03-16T15:48:43Z</time>
      </trkpt>
      <trkpt lat="43.61927" lon="1.18775">
        <ele>230.092499</ele>
        <time>2013-03-16T15:48:44Z</time>
      </trkpt>
      <trkpt lat="43.61927" lon="1.18781">
        <ele>230.089996</ele>
        <time>2013-03-16T15:48:45Z</time>
      </trkpt>
      <trkpt lat="43.61927" lon="1.18787">
        <ele>229.933395</ele>
        <time>2013-03-16T15:48:46Z</time>
      </trkpt>
      <trkpt lat="43.61927" lon="1.18794">
        <ele>229.714233</ele>
        <time>2013-03-16T15:48:47Z</time>
      </trkpt>
      <trkpt lat="43.61925" lon="1.18822">
        <ele>228.774826</ele>
        <time>2013-03-16T15:48:51Z</time>
      </trkpt>
      <trkpt lat="43.61921" lon="1.18843">
        <ele>228.323349</ele>
        <time>2013-03-16T15:48:54Z</time>
      </trkpt>
      <trkpt lat="43.61918" lon="1.18849">
        <ele>228.455994</ele>
        <time>2013-03-16T15:48:55Z</time>
      </trkpt>
      <trkpt lat="43.61915" lon="1.18854">
        <ele>228.585587</ele>
        <time>2013-03-16T15:48:56Z</time>
      </trkpt>
      <trkpt lat="43.61914" lon="1.1886">
        <ele>228.529877</ele>
        <time>2013-03-16T15:48:57Z</time>
      </trkpt>
      <trkpt lat="43.61913" lon="1.18866">
        <ele>228.433746</ele>
        <time>2013-03-16T15:48:58Z</time>
      </trkpt>
      <trkpt lat="43.61912" lon="1.18871">
        <ele>228.407074</ele>
        <time>2013-03-16T15:48:59Z</time>
      </trkpt>
      <trkpt lat="43.61911" lon="1.18876">
        <ele>228.371994</ele>
        <time>2013-03-16T15:49:00Z</time>
      </trkpt>
      <trkpt lat="43.61909" lon="1.18882">
        <ele>228.328598</ele>
        <time>2013-03-16T15:49:01Z</time>
      </trkpt>
      <trkpt lat="43.61894" lon="1.18924">
        <ele>227.765854</ele>
        <time>2013-03-16T15:49:10Z</time>
      </trkpt>
      <trkpt lat="43.61893" lon="1.18929">
        <ele>227.629654</ele>
        <time>2013-03-16T15:49:11Z</time>
      </trkpt>
      <trkpt lat="43.61891" lon="1.18934">
        <ele>227.492371</ele>
        <time>2013-03-16T15:49:12Z</time>
      </trkpt>
      <trkpt lat="43.61884" lon="1.1896">
        <ele>226.471573</ele>
        <time>2013-03-16T15:49:17Z</time>
      </trkpt>
      <trkpt lat="43.61882" lon="1.18966">
        <ele>226.162766</ele>
        <time>2013-03-16T15:49:18Z</time>
      </trkpt>
      <trkpt lat="43.6188" lon="1.18972">
        <ele>225.996185</ele>
        <time>2013-03-16T15:49:19Z</time>
      </trkpt>
      <trkpt lat="43.61878" lon="1.18978">
        <ele>226.019592</ele>
        <time>2013-03-16T15:49:20Z</time>
      </trkpt>
      <trkpt lat="43.61877" lon="1.18985">
        <ele>226.046707</ele>
        <time>2013-03-16T15:49:21Z</time>
      </trkpt>
      <trkpt lat="43.61872" lon="1.19">
        <ele>226.047287</ele>
        <time>2013-03-16T15:49:24Z</time>
      </trkpt>
      <trkpt lat="43.61871" lon="1.19003">
        <ele>226.085281</ele>
        <time>2013-03-16T15:49:25Z</time>
      </trkpt>
      <trkpt lat="43.61868" lon="1.19007">
        <ele>226.137894</ele>
        <time>2013-03-16T15:49:26Z</time>
      </trkpt>
      <trkpt lat="43.61867" lon="1.19011">
        <ele>226.147034</ele>
        <time>2013-03-16T15:49:27Z</time>
      </trkpt>
      <trkpt lat="43.61866" lon="1.19015">
        <ele>226.072922</ele>
        <time>2013-03-16T15:49:28Z</time>
      </trkpt>
      <trkpt lat="43.61864" lon="1.19019">
        <ele>226.066269</ele>
        <time>2013-03-16T15:49:29Z</time>
      </trkpt>
      <trkpt lat="43.61862" lon="1.1902">
        <ele>226.149246</ele>
        <time>2013-03-16T15:49:30Z</time>
      </trkpt>
      <trkpt lat="43.6186" lon="1.19021">
        <ele>226.22699</ele>
        <time>2013-03-16T15:49:31Z</time>
      </trkpt>
      <trkpt lat="43.61859" lon="1.19023">
        <ele>226.236267</ele>
        <time>2013-03-16T15:49:32Z</time>
      </trkpt>
      <trkpt lat="43.61857" lon="1.19026">
        <ele>226.220688</ele>
        <time>2013-03-16T15:49:33Z</time>
      </trkpt>
      <trkpt lat="43.61856" lon="1.19028">
        <ele>226.189194</ele>
        <time>2013-03-16T15:49:34Z</time>
      </trkpt>
      <trkpt lat="43.61856" lon="1.1903">
        <ele>226.12822</ele>
        <time>2013-03-16T15:49:35Z</time>
      </trkpt>
      <trkpt lat="43.61857" lon="1.19032">
        <ele>226.050812</ele>
        <time>2013-03-16T15:49:36Z</time>
      </trkpt>
      <trkpt lat="43.61858" lon="1.19032">
        <ele>225.969193</ele>
        <time>2013-03-16T15:49:37Z</time>
      </trkpt>
      <trkpt lat="43.6186" lon="1.19032">
        <ele>225.915771</ele>
        <time>2013-03-16T15:49:38Z</time>
      </trkpt>
      <trkpt lat="43.61861" lon="1.19032">
        <ele>225.865921</ele>
        <time>2013-03-16T15:49:39Z</time>
      </trkpt>
      <trkpt lat="43.61863" lon="1.19031">
        <ele>225.797089</ele>
        <time>2013-03-16T15:49:40Z</time>
      </trkpt>
      <trkpt lat="43.61865" lon="1.19031">
        <ele>225.706497</ele>
        <time>2013-03-16T15:49:41Z</time>
      </trkpt>
      <trkpt lat="43.61867" lon="1.19032">
        <ele>225.617737</ele>
        <time>2013-03-16T15:49:42Z</time>
      </trkpt>
      <trkpt lat="43.61868" lon="1.19032">
        <ele>225.531586</ele>
        <time>2013-03-16T15:49:43Z</time>
      </trkpt>
      <trkpt lat="43.6187" lon="1.19032">
        <ele>225.458969</ele>
        <time>2013-03-16T15:49:44Z</time>
      </trkpt>
      <trkpt lat="43.61872" lon="1.19031">
        <ele>225.39888</ele>
        <time>2013-03-16T15:49:45Z</time>
      </trkpt>
      <trkpt lat="43.61874" lon="1.19031">
        <ele>225.312927</ele>
        <time>2013-03-16T15:49:46Z</time>
      </trkpt>
      <trkpt lat="43.61876" lon="1.19032">
        <ele>225.223969</ele>
        <time>2013-03-16T15:49:47Z</time>
      </trkpt>
      <trkpt lat="43.61877" lon="1.19033">
        <ele>225.16124</ele>
        <time>2013-03-16T15:49:48Z</time>
      </trkpt>
      <trkpt lat="43.61878" lon="1.19034">
        <ele>225.131821</ele>
        <time>2013-03-16T15:49:49Z</time>
      </trkpt>
      <trkpt lat="43.61878" lon="1.19036">
        <ele>225.100662</ele>
        <time>2013-03-16T15:49:50Z</time>
      </trkpt>
      <trkpt lat="43.61879" lon="1.19038">
        <ele>225.0578</ele>
        <time>2013-03-16T15:49:51Z</time>
      </trkpt>
      <trkpt lat="43.61881" lon="1.1904">
        <ele>225.015442</ele>
        <time>2013-03-16T15:49:52Z</time>
      </trkpt>
      <trkpt lat="43.61883" lon="1.19041">
        <ele>225.126953</ele>
        <time>2013-03-16T15:49:53Z</time>
      </trkpt>
      <trkpt lat="43.61884" lon="1.19042">
        <ele>225.222992</ele>
        <time>2013-03-16T15:49:54Z</time>
      </trkpt>
      <trkpt lat="43.61885" lon="1.19044">
        <ele>225.297684</ele>
        <time>2013-03-16T15:49:55Z</time>
      </trkpt>
      <trkpt lat="43.61885" lon="1.19045">
        <ele>225.275726</ele>
        <time>2013-03-16T15:49:56Z</time>
      </trkpt>
      <trkpt lat="43.61883" lon="1.19046">
        <ele>225.170853</ele>
        <time>2013-03-16T15:49:58Z</time>
      </trkpt>
      <trkpt lat="43.61882" lon="1.19044">
        <ele>225.080521</ele>
        <time>2013-03-16T15:50:00Z</time>
      </trkpt>
      <trkpt lat="43.61882" lon="1.19042">
        <ele>225.055908</ele>
        <time>2013-03-16T15:50:01Z</time>
      </trkpt>
      <trkpt lat="43.61876" lon="1.19031">
        <ele>225.220154</ele>
        <time>2013-03-16T15:50:09Z</time>
      </trkpt>
      <trkpt lat="43.61874" lon="1.19032">
        <ele>225.297501</ele>
        <time>2013-03-16T15:50:10Z</time>
      </trkpt>
      <trkpt lat="43.61873" lon="1.19033">
        <ele>225.329712</ele>
        <time>2013-03-16T15:50:11Z</time>
      </trkpt>
      <trkpt lat="43.61873" lon="1.19035">
        <ele>225.303604</ele>
        <time>2013-03-16T15:50:26Z</time>
      </trkpt>
      <trkpt lat="43.61874" lon="1.19037">
        <ele>225.255844</ele>
        <time>2013-03-16T15:50:27Z</time>
      </trkpt>
      <trkpt lat="43.61876" lon="1.19037">
        <ele>225.195786</ele>
        <time>2013-03-16T15:50:28Z</time>
      </trkpt>
      <trkpt lat="43.61878" lon="1.19038">
        <ele>225.125931</ele>
        <time>2013-03-16T15:50:29Z</time>
      </trkpt>
      <trkpt lat="43.61879" lon="1.19039">
        <ele>225.063202</ele>
        <time>2013-03-16T15:50:30Z</time>
      </trkpt>
      <trkpt lat="43.61887" lon="1.19045">
        <ele>225.438248</ele>
        <time>2013-03-16T15:50:43Z</time>
      </trkpt>
      <trkpt lat="43.61887" lon="1.19046">
        <ele>225.414291</ele>
        <time>2013-03-16T15:52:24Z</time>
      </trkpt>
      <trkpt lat="43.61887" lon="1.19046">
        <ele>225.407181</ele>
        <time>2013-03-16T15:53:00Z</time>
      </trkpt>
      <trkpt lat="43.61887" lon="1.19046">
        <ele>225.422668</ele>
        <time>2013-03-16T15:53:28Z</time>
      </trkpt>
      <trkpt lat="43.61887" lon="1.19047">
        <ele>225.425583</ele>
        <time>2013-03-16T15:53:32Z</time>
      </trkpt>
      <trkpt lat="43.61887" lon="1.19049">
        <ele>225.39592</ele>
        <time>2013-03-16T15:53:33Z</time>
      </trkpt>
      <trkpt lat="43.61886" lon="1.19051">
        <ele>225.366302</ele>
        <time>2013-03-16T15:53:34Z</time>
      </trkpt>
      <trkpt lat="43.61887" lon="1.19053">
        <ele>225.403503</ele>
        <time>2013-03-16T15:53:35Z</time>
      </trkpt>
      <trkpt lat="43.61887" lon="1.19055">
        <ele>225.441101</ele>
        <time>2013-03-16T15:53:36Z</time>
      </trkpt>
      <trkpt lat="43.61888" lon="1.19057">
        <ele>225.497711</ele>
        <time>2013-03-16T15:53:37Z</time>
      </trkpt>
      <trkpt lat="43.61888" lon="1.1906">
        <ele>225.495987</ele>
        <time>2013-03-16T15:53:38Z</time>
      </trkpt>
      <trkpt lat="43.61888" lon="1.19063">
        <ele>225.494293</ele>
        <time>2013-03-16T15:53:39Z</time>
      </trkpt>
      <trkpt lat="43.61888" lon="1.19066">
        <ele>225.528885</ele>
        <time>2013-03-16T15:53:40Z</time>
      </trkpt>
      <trkpt lat="43.61889" lon="1.1907">
        <ele>225.601318</ele>
        <time>2013-03-16T15:53:41Z</time>
      </trkpt>
      <trkpt lat="43.6189" lon="1.19074">
        <ele>225.685303</ele>
        <time>2013-03-16T15:53:42Z</time>
      </trkpt>
      <trkpt lat="43.61909" lon="1.19111">
        <ele>228.043747</ele>
        <time>2013-03-16T15:53:54Z</time>
      </trkpt>
      <trkpt lat="43.61911" lon="1.1911">
        <ele>228.196243</ele>
        <time>2013-03-16T15:53:55Z</time>
      </trkpt>
      <trkpt lat="43.61913" lon="1.19109">
        <ele>228.322495</ele>
        <time>2013-03-16T15:53:56Z</time>
      </trkpt>
      <trkpt lat="43.61914" lon="1.19107">
        <ele>228.378754</ele>
        <time>2013-03-16T15:53:57Z</time>
      </trkpt>
      <trkpt lat="43.61915" lon="1.19104">
        <ele>228.371246</ele>
        <time>2013-03-16T15:53:58Z</time>
      </trkpt>
      <trkpt lat="43.61916" lon="1.19102">
        <ele>228.383743</ele>
        <time>2013-03-16T15:53:59Z</time>
      </trkpt>
      <trkpt lat="43.61918" lon="1.191">
        <ele>228.537506</ele>
        <time>2013-03-16T15:54:05Z</time>
      </trkpt>
      <trkpt lat="43.61921" lon="1.19102">
        <ele>228.853745</ele>
        <time>2013-03-16T15:54:08Z</time>
      </trkpt>
      <trkpt lat="43.61923" lon="1.19102">
        <ele>228.988754</ele>
        <time>2013-03-16T15:54:09Z</time>
      </trkpt>
      <trkpt lat="43.61924" lon="1.19102">
        <ele>229.126251</ele>
        <time>2013-03-16T15:54:10Z</time>
      </trkpt>
      <trkpt lat="43.61926" lon="1.19103">
        <ele>229.270004</ele>
        <time>2013-03-16T15:54:11Z</time>
      </trkpt>
      <trkpt lat="43.6193" lon="1.19105">
        <ele>229.762497</ele>
        <time>2013-03-16T15:54:17Z</time>
      </trkpt>
      <trkpt lat="43.61931" lon="1.19106">
        <ele>229.951248</ele>
        <time>2013-03-16T15:54:18Z</time>
      </trkpt>
      <trkpt lat="43.61932" lon="1.19106">
        <ele>230.131241</ele>
        <time>2013-03-16T15:54:19Z</time>
      </trkpt>
      <trkpt lat="43.61938" lon="1.19109">
        <ele>230.809998</ele>
        <time>2013-03-16T15:54:23Z</time>
      </trkpt>
      <trkpt lat="43.61939" lon="1.1911">
        <ele>230.998749</ele>
        <time>2013-03-16T15:54:24Z</time>
      </trkpt>
      <trkpt lat="43.61952" lon="1.19121">
        <ele>232.741241</ele>
        <time>2013-03-16T15:54:32Z</time>
      </trkpt>
      <trkpt lat="43.61954" lon="1.19123">
        <ele>233.002502</ele>
        <time>2013-03-16T15:54:33Z</time>
      </trkpt>
      <trkpt lat="43.61956" lon="1.19124">
        <ele>233.306244</ele>
        <time>2013-03-16T15:54:34Z</time>
      </trkpt>
      <trkpt lat="43.61973" lon="1.19138">
        <ele>235.603897</ele>
        <time>2013-03-16T15:54:44Z</time>
      </trkpt>
      <trkpt lat="43.61975" lon="1.19139">
        <ele>235.708557</ele>
        <time>2013-03-16T15:54:45Z</time>
      </trkpt>
      <trkpt lat="43.61976" lon="1.1914">
        <ele>235.820267</ele>
        <time>2013-03-16T15:54:46Z</time>
      </trkpt>
      <trkpt lat="43.61977" lon="1.19142">
        <ele>235.938263</ele>
        <time>2013-03-16T15:54:47Z</time>
      </trkpt>
      <trkpt lat="43.61979" lon="1.19143">
        <ele>236.079544</ele>
        <time>2013-03-16T15:54:48Z</time>
      </trkpt>
      <trkpt lat="43.61981" lon="1.19145">
        <ele>236.216003</ele>
        <time>2013-03-16T15:54:49Z</time>
      </trkpt>
      <trkpt lat="43.62001" lon="1.19163">
        <ele>237.452499</ele>
        <time>2013-03-16T15:54:59Z</time>
      </trkpt>
      <trkpt lat="43.62027" lon="1.19187">
        <ele>238.862564</ele>
        <time>2013-03-16T15:55:11Z</time>
      </trkpt>
      <trkpt lat="43.62028" lon="1.19187">
        <ele>238.930023</ele>
        <time>2013-03-16T15:55:12Z</time>
      </trkpt>
      <trkpt lat="43.6203" lon="1.19189">
        <ele>239.004364</ele>
        <time>2013-03-16T15:55:13Z</time>
      </trkpt>
      <trkpt lat="43.6205" lon="1.19203">
        <ele>239.666504</ele>
        <time>2013-03-16T15:55:23Z</time>
      </trkpt>
      <trkpt lat="43.62078" lon="1.19228">
        <ele>240</ele>
        <time>2013-03-16T15:55:33Z</time>
      </trkpt>
      <trkpt lat="43.62094" lon="1.19238">
        <ele>240</ele>
        <time>2013-03-16T15:55:39Z</time>
      </trkpt>
      <trkpt lat="43.62094" lon="1.19237">
        <ele>240</ele>
        <time>2013-03-16T15:55:40Z</time>
      </trkpt>
      <trkpt lat="43.62095" lon="1.19235">
        <ele>240</ele>
        <time>2013-03-16T15:55:41Z</time>
      </trkpt>
      <trkpt lat="43.62096" lon="1.19234">
        <ele>240</ele>
        <time>2013-03-16T15:55:42Z</time>
      </trkpt>
      <trkpt lat="43.62098" lon="1.19233">
        <ele>240</ele>
        <time>2013-03-16T15:55:43Z</time>
      </trkpt>
      <trkpt lat="43.621" lon="1.19234">
        <ele>240</ele>
        <time>2013-03-16T15:55:45Z</time>
      </trkpt>
      <trkpt lat="43.62102" lon="1.19235">
        <ele>240</ele>
        <time>2013-03-16T15:55:46Z</time>
      </trkpt>
      <trkpt lat="43.62104" lon="1.19236">
        <ele>240</ele>
        <time>2013-03-16T15:55:47Z</time>
      </trkpt>
      <trkpt lat="43.62106" lon="1.19236">
        <ele>240</ele>
        <time>2013-03-16T15:55:48Z</time>
      </trkpt>
      <trkpt lat="43.62109" lon="1.19236">
        <ele>240</ele>
        <time>2013-03-16T15:55:49Z</time>
      </trkpt>
      <trkpt lat="43.6211" lon="1.19236">
        <ele>240</ele>
        <time>2013-03-16T15:55:50Z</time>
      </trkpt>
      <trkpt lat="43.62112" lon="1.19236">
        <ele>240</ele>
        <time>2013-03-16T15:55:51Z</time>
      </trkpt>
      <trkpt lat="43.62113" lon="1.19235">
        <ele>240</ele>
        <time>2013-03-16T15:55:52Z</time>
      </trkpt>
      <trkpt lat="43.62115" lon="1.19234">
        <ele>240</ele>
        <time>2013-03-16T15:55:53Z</time>
      </trkpt>
      <trkpt lat="43.62121" lon="1.19221">
        <ele>240</ele>
        <time>2013-03-16T15:55:59Z</time>
      </trkpt>
      <trkpt lat="43.62122" lon="1.19218">
        <ele>240</ele>
        <time>2013-03-16T15:56:00Z</time>
      </trkpt>
      <trkpt lat="43.62123" lon="1.19215">
        <ele>240</ele>
        <time>2013-03-16T15:56:01Z</time>
      </trkpt>
      <trkpt lat="43.62125" lon="1.19211">
        <ele>240</ele>
        <time>2013-03-16T15:56:02Z</time>
      </trkpt>
      <trkpt lat="43.62126" lon="1.19209">
        <ele>240</ele>
        <time>2013-03-16T15:56:03Z</time>
      </trkpt>
      <trkpt lat="43.62128" lon="1.19205">
        <ele>240</ele>
        <time>2013-03-16T15:56:04Z</time>
      </trkpt>
      <trkpt lat="43.62129" lon="1.19202">
        <ele>240</ele>
        <time>2013-03-16T15:56:05Z</time>
      </trkpt>
      <trkpt lat="43.62131" lon="1.19198">
        <ele>240</ele>
        <time>2013-03-16T15:56:06Z</time>
      </trkpt>
      <trkpt lat="43.62136" lon="1.19183">
        <ele>240</ele>
        <time>2013-03-16T15:56:10Z</time>
      </trkpt>
      <trkpt lat="43.62137" lon="1.1918">
        <ele>240</ele>
        <time>2013-03-16T15:56:11Z</time>
      </trkpt>
      <trkpt lat="43.62138" lon="1.19176">
        <ele>240</ele>
        <time>2013-03-16T15:56:12Z</time>
      </trkpt>
      <trkpt lat="43.62138" lon="1.19173">
        <ele>240</ele>
        <time>2013-03-16T15:56:13Z</time>
      </trkpt>
      <trkpt lat="43.62139" lon="1.1917">
        <ele>240</ele>
        <time>2013-03-16T15:56:14Z</time>
      </trkpt>
      <trkpt lat="43.62141" lon="1.19166">
        <ele>240</ele>
        <time>2013-03-16T15:56:15Z</time>
      </trkpt>
      <trkpt lat="43.62144" lon="1.19163">
        <ele>240</ele>
        <time>2013-03-16T15:56:16Z</time>
      </trkpt>
      <trkpt lat="43.62145" lon="1.1916">
        <ele>240</ele>
        <time>2013-03-16T15:56:17Z</time>
      </trkpt>
      <trkpt lat="43.62169" lon="1.19114">
        <ele>240.330002</ele>
        <time>2013-03-16T15:56:30Z</time>
      </trkpt>
      <trkpt lat="43.62193" lon="1.19056">
        <ele>240.964462</ele>
        <time>2013-03-16T15:56:45Z</time>
      </trkpt>
      <trkpt lat="43.62211" lon="1.19013">
        <ele>242.05928</ele>
        <time>2013-03-16T15:56:56Z</time>
      </trkpt>
      <trkpt lat="43.62234" lon="1.1896">
        <ele>242.892502</ele>
        <time>2013-03-16T15:57:08Z</time>
      </trkpt>
      <trkpt lat="43.62248" lon="1.18931">
        <ele>243.669373</ele>
        <time>2013-03-16T15:57:15Z</time>
      </trkpt>
      <trkpt lat="43.62252" lon="1.18928">
        <ele>243.819366</ele>
        <time>2013-03-16T15:57:16Z</time>
      </trkpt>
      <trkpt lat="43.62256" lon="1.18925">
        <ele>243.948746</ele>
        <time>2013-03-16T15:57:17Z</time>
      </trkpt>
      <trkpt lat="43.62279" lon="1.18919">
        <ele>244.5625</ele>
        <time>2013-03-16T15:57:24Z</time>
      </trkpt>
      <trkpt lat="43.62282" lon="1.18919">
        <ele>244.625</ele>
        <time>2013-03-16T15:57:25Z</time>
      </trkpt>
      <trkpt lat="43.62296" lon="1.18919">
        <ele>244.837021</ele>
        <time>2013-03-16T15:57:28Z</time>
      </trkpt>
      <trkpt lat="43.623" lon="1.1892">
        <ele>244.863998</ele>
        <time>2013-03-16T15:57:29Z</time>
      </trkpt>
      <trkpt lat="43.62304" lon="1.18923">
        <ele>244.872711</ele>
        <time>2013-03-16T15:57:30Z</time>
      </trkpt>
      <trkpt lat="43.62316" lon="1.18929">
        <ele>244.839706</ele>
        <time>2013-03-16T15:57:33Z</time>
      </trkpt>
      <trkpt lat="43.62342" lon="1.18944">
        <ele>244.483749</ele>
        <time>2013-03-16T15:57:41Z</time>
      </trkpt>
      <trkpt lat="43.62345" lon="1.18946">
        <ele>244.419998</ele>
        <time>2013-03-16T15:57:42Z</time>
      </trkpt>
      <trkpt lat="43.62349" lon="1.18947">
        <ele>244.376251</ele>
        <time>2013-03-16T15:57:43Z</time>
      </trkpt>
      <trkpt lat="43.62352" lon="1.18948">
        <ele>244.357498</ele>
        <time>2013-03-16T15:57:44Z</time>
      </trkpt>
      <trkpt lat="43.62356" lon="1.18948">
        <ele>244.361252</ele>
        <time>2013-03-16T15:57:45Z</time>
      </trkpt>
      <trkpt lat="43.62381" lon="1.18952">
        <ele>244.070007</ele>
        <time>2013-03-16T15:57:51Z</time>
      </trkpt>
      <trkpt lat="43.62386" lon="1.18954">
        <ele>243.893753</ele>
        <time>2013-03-16T15:57:52Z</time>
      </trkpt>
      <trkpt lat="43.62395" lon="1.18959">
        <ele>243.505005</ele>
        <time>2013-03-16T15:57:54Z</time>
      </trkpt>
      <trkpt lat="43.62423" lon="1.18971">
        <ele>242.492493</ele>
        <time>2013-03-16T15:57:59Z</time>
      </trkpt>
      <trkpt lat="43.62428" lon="1.18974">
        <ele>242.264999</ele>
        <time>2013-03-16T15:58:00Z</time>
      </trkpt>
      <trkpt lat="43.62483" lon="1.19028">
        <ele>239.602493</ele>
        <time>2013-03-16T15:58:11Z</time>
      </trkpt>
      <trkpt lat="43.62488" lon="1.19033">
        <ele>239.5</ele>
        <time>2013-03-16T15:58:12Z</time>
      </trkpt>
      <trkpt lat="43.62492" lon="1.19039">
        <ele>239.399994</ele>
        <time>2013-03-16T15:58:13Z</time>
      </trkpt>
      <trkpt lat="43.625" lon="1.19051">
        <ele>239.225006</ele>
        <time>2013-03-16T15:58:15Z</time>
      </trkpt>
      <trkpt lat="43.62505" lon="1.19056">
        <ele>239.127502</ele>
        <time>2013-03-16T15:58:16Z</time>
      </trkpt>
      <trkpt lat="43.62509" lon="1.1906">
        <ele>239.022507</ele>
        <time>2013-03-16T15:58:17Z</time>
      </trkpt>
      <trkpt lat="43.62513" lon="1.19064">
        <ele>239</ele>
        <time>2013-03-16T15:58:18Z</time>
      </trkpt>
      <trkpt lat="43.62515" lon="1.19067">
        <ele>239</ele>
        <time>2013-03-16T15:58:19Z</time>
      </trkpt>
      <trkpt lat="43.62517" lon="1.19071">
        <ele>239</ele>
        <time>2013-03-16T15:58:20Z</time>
      </trkpt>
      <trkpt lat="43.62519" lon="1.19075">
        <ele>239</ele>
        <time>2013-03-16T15:58:21Z</time>
      </trkpt>
      <trkpt lat="43.62523" lon="1.19078">
        <ele>239</ele>
        <time>2013-03-16T15:58:22Z</time>
      </trkpt>
      <trkpt lat="43.62527" lon="1.19082">
        <ele>239</ele>
        <time>2013-03-16T15:58:23Z</time>
      </trkpt>
      <trkpt lat="43.62531" lon="1.19086">
        <ele>239</ele>
        <time>2013-03-16T15:58:24Z</time>
      </trkpt>
      <trkpt lat="43.62536" lon="1.1909">
        <ele>239</ele>
        <time>2013-03-16T15:58:25Z</time>
      </trkpt>
      <trkpt lat="43.62549" lon="1.191">
        <ele>239</ele>
        <time>2013-03-16T15:58:28Z</time>
      </trkpt>
      <trkpt lat="43.62553" lon="1.19105">
        <ele>239</ele>
        <time>2013-03-16T15:58:29Z</time>
      </trkpt>
      <trkpt lat="43.62556" lon="1.19111">
        <ele>239</ele>
        <time>2013-03-16T15:58:30Z</time>
      </trkpt>
      <trkpt lat="43.6256" lon="1.19116">
        <ele>239</ele>
        <time>2013-03-16T15:58:31Z</time>
      </trkpt>
      <trkpt lat="43.62564" lon="1.1912">
        <ele>239</ele>
        <time>2013-03-16T15:58:32Z</time>
      </trkpt>
      <trkpt lat="43.62568" lon="1.19123">
        <ele>239</ele>
        <time>2013-03-16T15:58:33Z</time>
      </trkpt>
      <trkpt lat="43.62577" lon="1.19129">
        <ele>239</ele>
        <time>2013-03-16T15:58:35Z</time>
      </trkpt>
      <trkpt lat="43.62586" lon="1.19134">
        <ele>239</ele>
        <time>2013-03-16T15:58:37Z</time>
      </trkpt>
      <trkpt lat="43.62595" lon="1.19141">
        <ele>238.984329</ele>
        <time>2013-03-16T15:58:39Z</time>
      </trkpt>
      <trkpt lat="43.62599" lon="1.19144">
        <ele>238.931305</ele>
        <time>2013-03-16T15:58:40Z</time>
      </trkpt>
      <trkpt lat="43.62602" lon="1.19147">
        <ele>238.882507</ele>
        <time>2013-03-16T15:58:41Z</time>
      </trkpt>
      <trkpt lat="43.62606" lon="1.19149">
        <ele>238.846252</ele>
        <time>2013-03-16T15:58:42Z</time>
      </trkpt>
      <trkpt lat="43.62608" lon="1.19151">
        <ele>238.809998</ele>
        <time>2013-03-16T15:58:43Z</time>
      </trkpt>
      <trkpt lat="43.62614" lon="1.19161">
        <ele>238.657501</ele>
        <time>2013-03-16T15:58:49Z</time>
      </trkpt>
      <trkpt lat="43.62626" lon="1.19165">
        <ele>238.577499</ele>
        <time>2013-03-16T15:58:54Z</time>
      </trkpt>
      <trkpt lat="43.6264" lon="1.19179">
        <ele>238.356873</ele>
        <time>2013-03-16T15:58:58Z</time>
      </trkpt>
      <trkpt lat="43.62643" lon="1.19181">
        <ele>238.311874</ele>
        <time>2013-03-16T15:58:59Z</time>
      </trkpt>
      <trkpt lat="43.62652" lon="1.19186">
        <ele>238.236252</ele>
        <time>2013-03-16T15:59:02Z</time>
      </trkpt>
      <trkpt lat="43.62656" lon="1.19189">
        <ele>238.190002</ele>
        <time>2013-03-16T15:59:03Z</time>
      </trkpt>
      <trkpt lat="43.62659" lon="1.19192">
        <ele>238.141876</ele>
        <time>2013-03-16T15:59:04Z</time>
      </trkpt>
      <trkpt lat="43.62663" lon="1.19195">
        <ele>238.084381</ele>
        <time>2013-03-16T15:59:05Z</time>
      </trkpt>
      <trkpt lat="43.62666" lon="1.19198">
        <ele>238.029999</ele>
        <time>2013-03-16T15:59:06Z</time>
      </trkpt>
      <trkpt lat="43.62669" lon="1.19201">
        <ele>238</ele>
        <time>2013-03-16T15:59:07Z</time>
      </trkpt>
      <trkpt lat="43.62672" lon="1.19203">
        <ele>238</ele>
        <time>2013-03-16T15:59:08Z</time>
      </trkpt>
      <trkpt lat="43.62693" lon="1.19229">
        <ele>238</ele>
        <time>2013-03-16T15:59:16Z</time>
      </trkpt>
      <trkpt lat="43.62695" lon="1.19232">
        <ele>238</ele>
        <time>2013-03-16T15:59:17Z</time>
      </trkpt>
      <trkpt lat="43.62696" lon="1.19235">
        <ele>238</ele>
        <time>2013-03-16T15:59:18Z</time>
      </trkpt>
      <trkpt lat="43.62699" lon="1.19237">
        <ele>238</ele>
        <time>2013-03-16T15:59:19Z</time>
      </trkpt>
      <trkpt lat="43.62703" lon="1.19239">
        <ele>238</ele>
        <time>2013-03-16T15:59:20Z</time>
      </trkpt>
      <trkpt lat="43.62706" lon="1.1924">
        <ele>238</ele>
        <time>2013-03-16T15:59:21Z</time>
      </trkpt>
      <trkpt lat="43.6271" lon="1.19241">
        <ele>238</ele>
        <time>2013-03-16T15:59:22Z</time>
      </trkpt>
      <trkpt lat="43.62714" lon="1.19242">
        <ele>238</ele>
        <time>2013-03-16T15:59:23Z</time>
      </trkpt>
      <trkpt lat="43.62733" lon="1.19253">
        <ele>238</ele>
        <time>2013-03-16T15:59:28Z</time>
      </trkpt>
      <trkpt lat="43.62776" lon="1.1927">
        <ele>237.833755</ele>
        <time>2013-03-16T15:59:39Z</time>
      </trkpt>
      <trkpt lat="43.62776" lon="1.19275">
        <ele>237.762497</ele>
        <time>2013-03-16T15:59:40Z</time>
      </trkpt>
      <trkpt lat="43.62776" lon="1.19279">
        <ele>237.69313</ele>
        <time>2013-03-16T15:59:41Z</time>
      </trkpt>
      <trkpt lat="43.62776" lon="1.19283">
        <ele>237.623749</ele>
        <time>2013-03-16T15:59:42Z</time>
      </trkpt>
      <trkpt lat="43.62774" lon="1.19287">
        <ele>237.558121</ele>
        <time>2013-03-16T15:59:43Z</time>
      </trkpt>
      <trkpt lat="43.62772" lon="1.19291">
        <ele>237.495621</ele>
        <time>2013-03-16T15:59:44Z</time>
      </trkpt>
      <trkpt lat="43.62765" lon="1.1931">
        <ele>237.190628</ele>
        <time>2013-03-16T15:59:48Z</time>
      </trkpt>
      <trkpt lat="43.62755" lon="1.19335">
        <ele>237</ele>
        <time>2013-03-16T15:59:53Z</time>
      </trkpt>
      <trkpt lat="43.62746" lon="1.19357">
        <ele>237</ele>
        <time>2013-03-16T15:59:58Z</time>
      </trkpt>
      <trkpt lat="43.62743" lon="1.19362">
        <ele>237</ele>
        <time>2013-03-16T15:59:59Z</time>
      </trkpt>
      <trkpt lat="43.62741" lon="1.19366">
        <ele>237</ele>
        <time>2013-03-16T16:00:00Z</time>
      </trkpt>
      <trkpt lat="43.62732" lon="1.19385">
        <ele>237</ele>
        <time>2013-03-16T16:00:04Z</time>
      </trkpt>
      <trkpt lat="43.62709" lon="1.19441">
        <ele>237</ele>
        <time>2013-03-16T16:00:15Z</time>
      </trkpt>
      <trkpt lat="43.62707" lon="1.19446">
        <ele>237</ele>
        <time>2013-03-16T16:00:16Z</time>
      </trkpt>
      <trkpt lat="43.62705" lon="1.19451">
        <ele>237</ele>
        <time>2013-03-16T16:00:17Z</time>
      </trkpt>
      <trkpt lat="43.62692" lon="1.1948">
        <ele>237</ele>
        <time>2013-03-16T16:00:23Z</time>
      </trkpt>
      <trkpt lat="43.62692" lon="1.19486">
        <ele>237</ele>
        <time>2013-03-16T16:00:24Z</time>
      </trkpt>
      <trkpt lat="43.62693" lon="1.19492">
        <ele>237</ele>
        <time>2013-03-16T16:00:25Z</time>
      </trkpt>
      <trkpt lat="43.62694" lon="1.19497">
        <ele>237</ele>
        <time>2013-03-16T16:00:26Z</time>
      </trkpt>
      <trkpt lat="43.62698" lon="1.19501">
        <ele>237</ele>
        <time>2013-03-16T16:00:27Z</time>
      </trkpt>
      <trkpt lat="43.62701" lon="1.19504">
        <ele>237</ele>
        <time>2013-03-16T16:00:28Z</time>
      </trkpt>
      <trkpt lat="43.62705" lon="1.19507">
        <ele>237</ele>
        <time>2013-03-16T16:00:29Z</time>
      </trkpt>
      <trkpt lat="43.62708" lon="1.1951">
        <ele>237</ele>
        <time>2013-03-16T16:00:30Z</time>
      </trkpt>
      <trkpt lat="43.62745" lon="1.19542">
        <ele>237</ele>
        <time>2013-03-16T16:00:41Z</time>
      </trkpt>
      <trkpt lat="43.62749" lon="1.19546">
        <ele>237</ele>
        <time>2013-03-16T16:00:42Z</time>
      </trkpt>
      <trkpt lat="43.62752" lon="1.1955">
        <ele>237</ele>
        <time>2013-03-16T16:00:43Z</time>
      </trkpt>
      <trkpt lat="43.62755" lon="1.19553">
        <ele>237</ele>
        <time>2013-03-16T16:00:44Z</time>
      </trkpt>
      <trkpt lat="43.62758" lon="1.19555">
        <ele>237</ele>
        <time>2013-03-16T16:00:45Z</time>
      </trkpt>
      <trkpt lat="43.62761" lon="1.19557">
        <ele>237</ele>
        <time>2013-03-16T16:00:46Z</time>
      </trkpt>
      <trkpt lat="43.62764" lon="1.1956">
        <ele>237</ele>
        <time>2013-03-16T16:00:47Z</time>
      </trkpt>
      <trkpt lat="43.62767" lon="1.19563">
        <ele>237</ele>
        <time>2013-03-16T16:00:48Z</time>
      </trkpt>
      <trkpt lat="43.62771" lon="1.19566">
        <ele>237</ele>
        <time>2013-03-16T16:00:49Z</time>
      </trkpt>
      <trkpt lat="43.62799" lon="1.19588">
        <ele>237</ele>
        <time>2013-03-16T16:00:58Z</time>
      </trkpt>
      <trkpt lat="43.62803" lon="1.19591">
        <ele>237</ele>
        <time>2013-03-16T16:00:59Z</time>
      </trkpt>
      <trkpt lat="43.6284" lon="1.19621">
        <ele>237.192505</ele>
        <time>2013-03-16T16:01:09Z</time>
      </trkpt>
      <trkpt lat="43.62843" lon="1.19624">
        <ele>237.274994</ele>
        <time>2013-03-16T16:01:10Z</time>
      </trkpt>
      <trkpt lat="43.62847" lon="1.19627">
        <ele>237.350006</ele>
        <time>2013-03-16T16:01:11Z</time>
      </trkpt>
      <trkpt lat="43.6288" lon="1.19657">
        <ele>237.553757</ele>
        <time>2013-03-16T16:01:21Z</time>
      </trkpt>
      <trkpt lat="43.62883" lon="1.19659">
        <ele>237.51062</ele>
        <time>2013-03-16T16:01:22Z</time>
      </trkpt>
      <trkpt lat="43.62884" lon="1.19662">
        <ele>237.471252</ele>
        <time>2013-03-16T16:01:23Z</time>
      </trkpt>
      <trkpt lat="43.62886" lon="1.19664">
        <ele>237.440002</ele>
        <time>2013-03-16T16:01:24Z</time>
      </trkpt>
      <trkpt lat="43.62887" lon="1.19665">
        <ele>237.413757</ele>
        <time>2013-03-16T16:01:25Z</time>
      </trkpt>
      <trkpt lat="43.62889" lon="1.19667">
        <ele>237.38562</ele>
        <time>2013-03-16T16:01:26Z</time>
      </trkpt>
      <trkpt lat="43.62891" lon="1.19668">
        <ele>237.36438</ele>
        <time>2013-03-16T16:01:27Z</time>
      </trkpt>
      <trkpt lat="43.62894" lon="1.1967">
        <ele>237.327499</ele>
        <time>2013-03-16T16:01:29Z</time>
      </trkpt>
      <trkpt lat="43.62896" lon="1.19672">
        <ele>237.299377</ele>
        <time>2013-03-16T16:01:30Z</time>
      </trkpt>
      <trkpt lat="43.62898" lon="1.19674">
        <ele>237.270004</ele>
        <time>2013-03-16T16:01:31Z</time>
      </trkpt>
      <trkpt lat="43.629" lon="1.19676">
        <ele>237.233749</ele>
        <time>2013-03-16T16:01:32Z</time>
      </trkpt>
      <trkpt lat="43.62901" lon="1.19677">
        <ele>237.213745</ele>
        <time>2013-03-16T16:01:33Z</time>
      </trkpt>
      <trkpt lat="43.62903" lon="1.19678">
        <ele>237.206879</ele>
        <time>2013-03-16T16:01:34Z</time>
      </trkpt>
      <trkpt lat="43.62905" lon="1.19678">
        <ele>237.195007</ele>
        <time>2013-03-16T16:01:35Z</time>
      </trkpt>
      <trkpt lat="43.62907" lon="1.19679">
        <ele>237.190628</ele>
        <time>2013-03-16T16:01:36Z</time>
      </trkpt>
      <trkpt lat="43.62909" lon="1.19679">
        <ele>237.177505</ele>
        <time>2013-03-16T16:01:37Z</time>
      </trkpt>
      <trkpt lat="43.62911" lon="1.1968">
        <ele>237.160629</ele>
        <time>2013-03-16T16:01:38Z</time>
      </trkpt>
      <trkpt lat="43.62913" lon="1.19681">
        <ele>237.153122</ele>
        <time>2013-03-16T16:01:39Z</time>
      </trkpt>
      <trkpt lat="43.62915" lon="1.19681">
        <ele>237.151245</ele>
        <time>2013-03-16T16:01:40Z</time>
      </trkpt>
      <trkpt lat="43.62917" lon="1.19681">
        <ele>237.151871</ele>
        <time>2013-03-16T16:01:41Z</time>
      </trkpt>
      <trkpt lat="43.62919" lon="1.1968">
        <ele>237.158127</ele>
        <time>2013-03-16T16:01:42Z</time>
      </trkpt>
      <trkpt lat="43.62926" lon="1.19678">
        <ele>237.098755</ele>
        <time>2013-03-16T16:01:45Z</time>
      </trkpt>
      <trkpt lat="43.62928" lon="1.19676">
        <ele>237.086884</ele>
        <time>2013-03-16T16:01:46Z</time>
      </trkpt>
      <trkpt lat="43.6293" lon="1.19674">
        <ele>237.067505</ele>
        <time>2013-03-16T16:01:47Z</time>
      </trkpt>
      <trkpt lat="43.62937" lon="1.19671">
        <ele>236.962494</ele>
        <time>2013-03-16T16:01:50Z</time>
      </trkpt>
      <trkpt lat="43.62939" lon="1.19672">
        <ele>236.890625</ele>
        <time>2013-03-16T16:01:51Z</time>
      </trkpt>
      <trkpt lat="43.62942" lon="1.19672">
        <ele>236.816254</ele>
        <time>2013-03-16T16:01:52Z</time>
      </trkpt>
      <trkpt lat="43.62945" lon="1.19672">
        <ele>236.758118</ele>
        <time>2013-03-16T16:01:53Z</time>
      </trkpt>
      <trkpt lat="43.62948" lon="1.19672">
        <ele>236.700623</ele>
        <time>2013-03-16T16:01:54Z</time>
      </trkpt>
      <trkpt lat="43.62951" lon="1.19673">
        <ele>236.616241</ele>
        <time>2013-03-16T16:01:55Z</time>
      </trkpt>
      <trkpt lat="43.62954" lon="1.19674">
        <ele>236.53688</ele>
        <time>2013-03-16T16:01:56Z</time>
      </trkpt>
      <trkpt lat="43.62956" lon="1.19674">
        <ele>236.470001</ele>
        <time>2013-03-16T16:01:57Z</time>
      </trkpt>
      <trkpt lat="43.62959" lon="1.19675">
        <ele>236.390625</ele>
        <time>2013-03-16T16:01:58Z</time>
      </trkpt>
      <trkpt lat="43.62963" lon="1.19677">
        <ele>236.285004</ele>
        <time>2013-03-16T16:01:59Z</time>
      </trkpt>
      <trkpt lat="43.62966" lon="1.1968">
        <ele>236.16687</ele>
        <time>2013-03-16T16:02:00Z</time>
      </trkpt>
      <trkpt lat="43.62969" lon="1.19683">
        <ele>236.044373</ele>
        <time>2013-03-16T16:02:01Z</time>
      </trkpt>
      <trkpt lat="43.62972" lon="1.19686">
        <ele>235.919998</ele>
        <time>2013-03-16T16:02:02Z</time>
      </trkpt>
      <trkpt lat="43.62995" lon="1.19706">
        <ele>235.372498</ele>
        <time>2013-03-16T16:02:10Z</time>
      </trkpt>
      <trkpt lat="43.62997" lon="1.19707">
        <ele>235.327499</ele>
        <time>2013-03-16T16:02:11Z</time>
      </trkpt>
      <trkpt lat="43.63" lon="1.19709">
        <ele>235.264999</ele>
        <time>2013-03-16T16:02:12Z</time>
      </trkpt>
      <trkpt lat="43.63043" lon="1.19723">
        <ele>234.3125</ele>
        <time>2013-03-16T16:02:24Z</time>
      </trkpt>
      <trkpt lat="43.6305" lon="1.19727">
        <ele>234.147507</ele>
        <time>2013-03-16T16:02:26Z</time>
      </trkpt>
      <trkpt lat="43.63054" lon="1.19729">
        <ele>234.065002</ele>
        <time>2013-03-16T16:02:27Z</time>
      </trkpt>
      <trkpt lat="43.63057" lon="1.19733">
        <ele>234</ele>
        <time>2013-03-16T16:02:28Z</time>
      </trkpt>
      <trkpt lat="43.63085" lon="1.19763">
        <ele>234</ele>
        <time>2013-03-16T16:02:39Z</time>
      </trkpt>
      <trkpt lat="43.6311" lon="1.19781">
        <ele>233.923904</ele>
        <time>2013-03-16T16:02:47Z</time>
      </trkpt>
      <trkpt lat="43.63112" lon="1.19781">
        <ele>233.903015</ele>
        <time>2013-03-16T16:02:48Z</time>
      </trkpt>
      <trkpt lat="43.63115" lon="1.19777">
        <ele>233.847214</ele>
        <time>2013-03-16T16:02:50Z</time>
      </trkpt>
      <trkpt lat="43.63132" lon="1.19785">
        <ele>233.733719</ele>
        <time>2013-03-16T16:02:55Z</time>
      </trkpt>
      <trkpt lat="43.63169" lon="1.19825">
        <ele>233.644806</ele>
        <time>2013-03-16T16:03:07Z</time>
      </trkpt>
      <trkpt lat="43.63175" lon="1.19834">
        <ele>233.653381</ele>
        <time>2013-03-16T16:03:09Z</time>
      </trkpt>
      <trkpt lat="43.63185" lon="1.19846">
        <ele>233.68364</ele>
        <time>2013-03-16T16:03:12Z</time>
      </trkpt>
      <trkpt lat="43.63189" lon="1.19849">
        <ele>233.685516</ele>
        <time>2013-03-16T16:03:13Z</time>
      </trkpt>
      <trkpt lat="43.63205" lon="1.19857">
        <ele>233.789993</ele>
        <time>2013-03-16T16:03:17Z</time>
      </trkpt>
      <trkpt lat="43.6321" lon="1.19858">
        <ele>233.799377</ele>
        <time>2013-03-16T16:03:18Z</time>
      </trkpt>
      <trkpt lat="43.63214" lon="1.19857">
        <ele>233.785004</ele>
        <time>2013-03-16T16:03:19Z</time>
      </trkpt>
      <trkpt lat="43.63219" lon="1.19855">
        <ele>233.76062</ele>
        <time>2013-03-16T16:03:20Z</time>
      </trkpt>
      <trkpt lat="43.63223" lon="1.19853">
        <ele>233.731247</ele>
        <time>2013-03-16T16:03:21Z</time>
      </trkpt>
      <trkpt lat="43.63226" lon="1.19851">
        <ele>233.699997</ele>
        <time>2013-03-16T16:03:22Z</time>
      </trkpt>
      <trkpt lat="43.63232" lon="1.19848">
        <ele>233.653122</ele>
        <time>2013-03-16T16:03:24Z</time>
      </trkpt>
      <trkpt lat="43.63238" lon="1.19847">
        <ele>233.64563</ele>
        <time>2013-03-16T16:03:26Z</time>
      </trkpt>
      <trkpt lat="43.63241" lon="1.19848">
        <ele>233.649368</ele>
        <time>2013-03-16T16:03:27Z</time>
      </trkpt>
      <trkpt lat="43.63244" lon="1.19848">
        <ele>233.660004</ele>
        <time>2013-03-16T16:03:28Z</time>
      </trkpt>
      <trkpt lat="43.63276" lon="1.19841">
        <ele>233.552505</ele>
        <time>2013-03-16T16:03:38Z</time>
      </trkpt>
      <trkpt lat="43.63279" lon="1.19838">
        <ele>233.500626</ele>
        <time>2013-03-16T16:03:39Z</time>
      </trkpt>
      <trkpt lat="43.63281" lon="1.19835">
        <ele>233.451248</ele>
        <time>2013-03-16T16:03:40Z</time>
      </trkpt>
      <trkpt lat="43.63284" lon="1.19832">
        <ele>233.421097</ele>
        <time>2013-03-16T16:03:41Z</time>
      </trkpt>
      <trkpt lat="43.63287" lon="1.19829">
        <ele>233.416565</ele>
        <time>2013-03-16T16:03:42Z</time>
      </trkpt>
      <trkpt lat="43.63289" lon="1.19826">
        <ele>233.423065</ele>
        <time>2013-03-16T16:03:43Z</time>
      </trkpt>
      <trkpt lat="43.63292" lon="1.19824">
        <ele>233.427917</ele>
        <time>2013-03-16T16:03:44Z</time>
      </trkpt>
      <trkpt lat="43.63294" lon="1.19821">
        <ele>233.435287</ele>
        <time>2013-03-16T16:03:45Z</time>
      </trkpt>
      <trkpt lat="43.63296" lon="1.19819">
        <ele>233.441315</ele>
        <time>2013-03-16T16:03:46Z</time>
      </trkpt>
      <trkpt lat="43.63298" lon="1.19817">
        <ele>233.461716</ele>
        <time>2013-03-16T16:03:47Z</time>
      </trkpt>
      <trkpt lat="43.63301" lon="1.19815">
        <ele>233.494812</ele>
        <time>2013-03-16T16:03:48Z</time>
      </trkpt>
      <trkpt lat="43.63333" lon="1.19786">
        <ele>233.683746</ele>
        <time>2013-03-16T16:03:58Z</time>
      </trkpt>
      <trkpt lat="43.63363" lon="1.19766">
        <ele>233.368744</ele>
        <time>2013-03-16T16:04:07Z</time>
      </trkpt>
      <trkpt lat="43.63367" lon="1.19762">
        <ele>233.300629</ele>
        <time>2013-03-16T16:04:08Z</time>
      </trkpt>
      <trkpt lat="43.6337" lon="1.19757">
        <ele>233.21875</ele>
        <time>2013-03-16T16:04:09Z</time>
      </trkpt>
      <trkpt lat="43.63373" lon="1.19752">
        <ele>233.140625</ele>
        <time>2013-03-16T16:04:10Z</time>
      </trkpt>
      <trkpt lat="43.63375" lon="1.19747">
        <ele>233.068756</ele>
        <time>2013-03-16T16:04:11Z</time>
      </trkpt>
      <trkpt lat="43.63378" lon="1.19743">
        <ele>233</ele>
        <time>2013-03-16T16:04:12Z</time>
      </trkpt>
      <trkpt lat="43.63381" lon="1.19738">
        <ele>233</ele>
        <time>2013-03-16T16:04:13Z</time>
      </trkpt>
      <trkpt lat="43.63384" lon="1.19734">
        <ele>233</ele>
        <time>2013-03-16T16:04:14Z</time>
      </trkpt>
      <trkpt lat="43.63387" lon="1.1973">
        <ele>233</ele>
        <time>2013-03-16T16:04:15Z</time>
      </trkpt>
      <trkpt lat="43.6339" lon="1.19725">
        <ele>233</ele>
        <time>2013-03-16T16:04:16Z</time>
      </trkpt>
      <trkpt lat="43.63393" lon="1.1972">
        <ele>233</ele>
        <time>2013-03-16T16:04:17Z</time>
      </trkpt>
      <trkpt lat="43.63396" lon="1.19715">
        <ele>233</ele>
        <time>2013-03-16T16:04:18Z</time>
      </trkpt>
      <trkpt lat="43.6341" lon="1.19697">
        <ele>233</ele>
        <time>2013-03-16T16:04:22Z</time>
      </trkpt>
      <trkpt lat="43.63414" lon="1.19693">
        <ele>233</ele>
        <time>2013-03-16T16:04:23Z</time>
      </trkpt>
      <trkpt lat="43.63447" lon="1.19661">
        <ele>233</ele>
        <time>2013-03-16T16:04:31Z</time>
      </trkpt>
      <trkpt lat="43.63459" lon="1.1965">
        <ele>233</ele>
        <time>2013-03-16T16:04:34Z</time>
      </trkpt>
      <trkpt lat="43.63491" lon="1.19616">
        <ele>232.309998</ele>
        <time>2013-03-16T16:04:42Z</time>
      </trkpt>
      <trkpt lat="43.63495" lon="1.1961">
        <ele>232.225006</ele>
        <time>2013-03-16T16:04:43Z</time>
      </trkpt>
      <trkpt lat="43.63499" lon="1.19605">
        <ele>232.142502</ele>
        <time>2013-03-16T16:04:44Z</time>
      </trkpt>
      <trkpt lat="43.63502" lon="1.196">
        <ele>232.057495</ele>
        <time>2013-03-16T16:04:45Z</time>
      </trkpt>
      <trkpt lat="43.63506" lon="1.19595">
        <ele>232</ele>
        <time>2013-03-16T16:04:46Z</time>
      </trkpt>
      <trkpt lat="43.63509" lon="1.1959">
        <ele>232</ele>
        <time>2013-03-16T16:04:47Z</time>
      </trkpt>
      <trkpt lat="43.63514" lon="1.19585">
        <ele>232</ele>
        <time>2013-03-16T16:04:48Z</time>
      </trkpt>
      <trkpt lat="43.63518" lon="1.1958">
        <ele>232</ele>
        <time>2013-03-16T16:04:49Z</time>
      </trkpt>
      <trkpt lat="43.63534" lon="1.19561">
        <ele>232</ele>
        <time>2013-03-16T16:04:53Z</time>
      </trkpt>
      <trkpt lat="43.63547" lon="1.19547">
        <ele>232</ele>
        <time>2013-03-16T16:04:56Z</time>
      </trkpt>
      <trkpt lat="43.6355" lon="1.19542">
        <ele>232</ele>
        <time>2013-03-16T16:04:57Z</time>
      </trkpt>
      <trkpt lat="43.63553" lon="1.19536">
        <ele>232</ele>
        <time>2013-03-16T16:04:58Z</time>
      </trkpt>
      <trkpt lat="43.63556" lon="1.1953">
        <ele>232</ele>
        <time>2013-03-16T16:04:59Z</time>
      </trkpt>
      <trkpt lat="43.63559" lon="1.19524">
        <ele>232</ele>
        <time>2013-03-16T16:05:00Z</time>
      </trkpt>
      <trkpt lat="43.63562" lon="1.19518">
        <ele>232</ele>
        <time>2013-03-16T16:05:01Z</time>
      </trkpt>
      <trkpt lat="43.63565" lon="1.19512">
        <ele>232</ele>
        <time>2013-03-16T16:05:02Z</time>
      </trkpt>
      <trkpt lat="43.63571" lon="1.19503">
        <ele>232</ele>
        <time>2013-03-16T16:05:04Z</time>
      </trkpt>
      <trkpt lat="43.63575" lon="1.19498">
        <ele>232</ele>
        <time>2013-03-16T16:05:05Z</time>
      </trkpt>
      <trkpt lat="43.63579" lon="1.19493">
        <ele>232</ele>
        <time>2013-03-16T16:05:06Z</time>
      </trkpt>
      <trkpt lat="43.63582" lon="1.19489">
        <ele>232</ele>
        <time>2013-03-16T16:05:07Z</time>
      </trkpt>
      <trkpt lat="43.63586" lon="1.19485">
        <ele>232</ele>
        <time>2013-03-16T16:05:08Z</time>
      </trkpt>
      <trkpt lat="43.6359" lon="1.19482">
        <ele>232</ele>
        <time>2013-03-16T16:05:09Z</time>
      </trkpt>
      <trkpt lat="43.63594" lon="1.19479">
        <ele>231.982498</ele>
        <time>2013-03-16T16:05:10Z</time>
      </trkpt>
      <trkpt lat="43.63598" lon="1.19477">
        <ele>231.895004</ele>
        <time>2013-03-16T16:05:11Z</time>
      </trkpt>
      <trkpt lat="43.63632" lon="1.1946">
        <ele>231.134995</ele>
        <time>2013-03-16T16:05:21Z</time>
      </trkpt>
      <trkpt lat="43.63674" lon="1.19466">
        <ele>231</ele>
        <time>2013-03-16T16:05:32Z</time>
      </trkpt>
      <trkpt lat="43.63711" lon="1.19506">
        <ele>231</ele>
        <time>2013-03-16T16:05:44Z</time>
      </trkpt>
      <trkpt lat="43.63728" lon="1.19528">
        <ele>231</ele>
        <time>2013-03-16T16:05:50Z</time>
      </trkpt>
      <trkpt lat="43.63731" lon="1.19531">
        <ele>230.983994</ele>
        <time>2013-03-16T16:05:51Z</time>
      </trkpt>
      <trkpt lat="43.63759" lon="1.19568">
        <ele>231</ele>
        <time>2013-03-16T16:06:00Z</time>
      </trkpt>
      <trkpt lat="43.6376" lon="1.19573">
        <ele>231</ele>
        <time>2013-03-16T16:06:01Z</time>
      </trkpt>
      <trkpt lat="43.6376" lon="1.19577">
        <ele>231</ele>
        <time>2013-03-16T16:06:02Z</time>
      </trkpt>
      <trkpt lat="43.63761" lon="1.19582">
        <ele>231</ele>
        <time>2013-03-16T16:06:03Z</time>
      </trkpt>
      <trkpt lat="43.63763" lon="1.19586">
        <ele>231</ele>
        <time>2013-03-16T16:06:04Z</time>
      </trkpt>
      <trkpt lat="43.63765" lon="1.1959">
        <ele>231</ele>
        <time>2013-03-16T16:06:05Z</time>
      </trkpt>
      <trkpt lat="43.63768" lon="1.19594">
        <ele>231</ele>
        <time>2013-03-16T16:06:06Z</time>
      </trkpt>
      <trkpt lat="43.63784" lon="1.19639">
        <ele>231.364136</ele>
        <time>2013-03-16T16:06:16Z</time>
      </trkpt>
      <trkpt lat="43.63794" lon="1.19659">
        <ele>231.460449</ele>
        <time>2013-03-16T16:06:20Z</time>
      </trkpt>
      <trkpt lat="43.63806" lon="1.19688">
        <ele>231.494247</ele>
        <time>2013-03-16T16:06:27Z</time>
      </trkpt>
      <trkpt lat="43.63808" lon="1.19693">
        <ele>231.509842</ele>
        <time>2013-03-16T16:06:28Z</time>
      </trkpt>
      <trkpt lat="43.6381" lon="1.19697">
        <ele>231.538956</ele>
        <time>2013-03-16T16:06:29Z</time>
      </trkpt>
      <trkpt lat="43.63812" lon="1.19701">
        <ele>231.578323</ele>
        <time>2013-03-16T16:06:30Z</time>
      </trkpt>
      <trkpt lat="43.63812" lon="1.19706">
        <ele>231.632858</ele>
        <time>2013-03-16T16:06:31Z</time>
      </trkpt>
      <trkpt lat="43.63812" lon="1.1971">
        <ele>231.695419</ele>
        <time>2013-03-16T16:06:32Z</time>
      </trkpt>
      <trkpt lat="43.63803" lon="1.1974">
        <ele>232</ele>
        <time>2013-03-16T16:06:38Z</time>
      </trkpt>
      <trkpt lat="43.63804" lon="1.19744">
        <ele>232</ele>
        <time>2013-03-16T16:06:39Z</time>
      </trkpt>
      <trkpt lat="43.63806" lon="1.19747">
        <ele>232</ele>
        <time>2013-03-16T16:06:40Z</time>
      </trkpt>
      <trkpt lat="43.63809" lon="1.19749">
        <ele>232</ele>
        <time>2013-03-16T16:06:41Z</time>
      </trkpt>
      <trkpt lat="43.63812" lon="1.1975">
        <ele>232</ele>
        <time>2013-03-16T16:06:42Z</time>
      </trkpt>
      <trkpt lat="43.63815" lon="1.1975">
        <ele>232</ele>
        <time>2013-03-16T16:06:43Z</time>
      </trkpt>
      <trkpt lat="43.63819" lon="1.19751">
        <ele>232</ele>
        <time>2013-03-16T16:06:44Z</time>
      </trkpt>
      <trkpt lat="43.63822" lon="1.19753">
        <ele>231.982544</ele>
        <time>2013-03-16T16:06:45Z</time>
      </trkpt>
      <trkpt lat="43.63826" lon="1.19755">
        <ele>231.932022</ele>
        <time>2013-03-16T16:06:46Z</time>
      </trkpt>
      <trkpt lat="43.6383" lon="1.19756">
        <ele>231.882645</ele>
        <time>2013-03-16T16:06:47Z</time>
      </trkpt>
      <trkpt lat="43.63833" lon="1.19758">
        <ele>231.836487</ele>
        <time>2013-03-16T16:06:48Z</time>
      </trkpt>
      <trkpt lat="43.63859" lon="1.19778">
        <ele>231.76358</ele>
        <time>2013-03-16T16:06:58Z</time>
      </trkpt>
      <trkpt lat="43.63862" lon="1.19778">
        <ele>231.758347</ele>
        <time>2013-03-16T16:07:09Z</time>
      </trkpt>
      <trkpt lat="43.63863" lon="1.19779">
        <ele>231.75769</ele>
        <time>2013-03-16T16:07:13Z</time>
      </trkpt>
      <trkpt lat="43.63868" lon="1.19784">
        <ele>231.816284</ele>
        <time>2013-03-16T16:07:25Z</time>
      </trkpt>
      <trkpt lat="43.6387" lon="1.1979">
        <ele>231.910217</ele>
        <time>2013-03-16T16:07:26Z</time>
      </trkpt>
      <trkpt lat="43.63873" lon="1.19796">
        <ele>232.024368</ele>
        <time>2013-03-16T16:07:27Z</time>
      </trkpt>
      <trkpt lat="43.63877" lon="1.19801">
        <ele>232.09375</ele>
        <time>2013-03-16T16:07:28Z</time>
      </trkpt>
      <trkpt lat="43.63881" lon="1.19803">
        <ele>232.138748</ele>
        <time>2013-03-16T16:07:29Z</time>
      </trkpt>
      <trkpt lat="43.63884" lon="1.19807">
        <ele>232.204376</ele>
        <time>2013-03-16T16:07:30Z</time>
      </trkpt>
      <trkpt lat="43.63887" lon="1.19811">
        <ele>232.270004</ele>
        <time>2013-03-16T16:07:31Z</time>
      </trkpt>
      <trkpt lat="43.6389" lon="1.19814">
        <ele>232.320618</ele>
        <time>2013-03-16T16:07:32Z</time>
      </trkpt>
      <trkpt lat="43.63893" lon="1.19818">
        <ele>232.373123</ele>
        <time>2013-03-16T16:07:33Z</time>
      </trkpt>
      <trkpt lat="43.63895" lon="1.19821">
        <ele>232.427505</ele>
        <time>2013-03-16T16:07:34Z</time>
      </trkpt>
      <trkpt lat="43.63908" lon="1.19849">
        <ele>232.883743</ele>
        <time>2013-03-16T16:07:45Z</time>
      </trkpt>
      <trkpt lat="43.63912" lon="1.19843">
        <ele>232.785004</ele>
        <time>2013-03-16T16:07:50Z</time>
      </trkpt>
      <trkpt lat="43.63916" lon="1.19829">
        <ele>232.461243</ele>
        <time>2013-03-16T16:07:55Z</time>
      </trkpt>
      <trkpt lat="43.63923" lon="1.19798">
        <ele>231.81813</ele>
        <time>2013-03-16T16:08:03Z</time>
      </trkpt>
      <trkpt lat="43.63924" lon="1.19792">
        <ele>231.664993</ele>
        <time>2013-03-16T16:08:04Z</time>
      </trkpt>
      <trkpt lat="43.63925" lon="1.19786">
        <ele>231.452499</ele>
        <time>2013-03-16T16:08:05Z</time>
      </trkpt>
      <trkpt lat="43.63926" lon="1.1978">
        <ele>231.253754</ele>
        <time>2013-03-16T16:08:06Z</time>
      </trkpt>
      <trkpt lat="43.63926" lon="1.19776">
        <ele>231.088745</ele>
        <time>2013-03-16T16:08:07Z</time>
      </trkpt>
      <trkpt lat="43.63927" lon="1.19772">
        <ele>230.948746</ele>
        <time>2013-03-16T16:08:08Z</time>
      </trkpt>
      <trkpt lat="43.63928" lon="1.19768">
        <ele>230.811249</ele>
        <time>2013-03-16T16:08:09Z</time>
      </trkpt>
      <trkpt lat="43.63928" lon="1.19764">
        <ele>230.661255</ele>
        <time>2013-03-16T16:08:10Z</time>
      </trkpt>
      <trkpt lat="43.63929" lon="1.1976">
        <ele>230.516251</ele>
        <time>2013-03-16T16:08:11Z</time>
      </trkpt>
      <trkpt lat="43.63931" lon="1.19758">
        <ele>230.403748</ele>
        <time>2013-03-16T16:08:12Z</time>
      </trkpt>
      <trkpt lat="43.63933" lon="1.19756">
        <ele>230.311249</ele>
        <time>2013-03-16T16:08:13Z</time>
      </trkpt>
      <trkpt lat="43.63934" lon="1.19753">
        <ele>230.191254</ele>
        <time>2013-03-16T16:08:14Z</time>
      </trkpt>
      <trkpt lat="43.63934" lon="1.19749">
        <ele>230.03125</ele>
        <time>2013-03-16T16:08:15Z</time>
      </trkpt>
      <trkpt lat="43.63934" lon="1.19743">
        <ele>229.863754</ele>
        <time>2013-03-16T16:08:16Z</time>
      </trkpt>
      <trkpt lat="43.63934" lon="1.1974">
        <ele>229.741241</ele>
        <time>2013-03-16T16:08:17Z</time>
      </trkpt>
      <trkpt lat="43.63934" lon="1.19737">
        <ele>229.645004</ele>
        <time>2013-03-16T16:08:18Z</time>
      </trkpt>
      <trkpt lat="43.63934" lon="1.19697">
        <ele>229.482498</ele>
        <time>2013-03-16T16:08:26Z</time>
      </trkpt>
      <trkpt lat="43.63936" lon="1.19675">
        <ele>229.432495</ele>
        <time>2013-03-16T16:08:33Z</time>
      </trkpt>
      <trkpt lat="43.63935" lon="1.1966">
        <ele>229.369049</ele>
        <time>2013-03-16T16:08:44Z</time>
      </trkpt>
      <trkpt lat="43.63936" lon="1.19631">
        <ele>229.157516</ele>
        <time>2013-03-16T16:08:51Z</time>
      </trkpt>
      <trkpt lat="43.63937" lon="1.19628">
        <ele>229.128189</ele>
        <time>2013-03-16T16:08:52Z</time>
      </trkpt>
      <trkpt lat="43.63938" lon="1.19625">
        <ele>229.103043</ele>
        <time>2013-03-16T16:08:53Z</time>
      </trkpt>
      <trkpt lat="43.63945" lon="1.19594">
        <ele>229</ele>
        <time>2013-03-16T16:08:59Z</time>
      </trkpt>
      <trkpt lat="43.63947" lon="1.19588">
        <ele>229</ele>
        <time>2013-03-16T16:09:00Z</time>
      </trkpt>
      <trkpt lat="43.63949" lon="1.19582">
        <ele>229</ele>
        <time>2013-03-16T16:09:01Z</time>
      </trkpt>
      <trkpt lat="43.63959" lon="1.19554">
        <ele>228.984039</ele>
        <time>2013-03-16T16:09:07Z</time>
      </trkpt>
      <trkpt lat="43.63963" lon="1.1953">
        <ele>229.053024</ele>
        <time>2013-03-16T16:09:13Z</time>
      </trkpt>
      <trkpt lat="43.63969" lon="1.19501">
        <ele>229.246719</ele>
        <time>2013-03-16T16:09:20Z</time>
      </trkpt>
      <trkpt lat="43.6398" lon="1.19477">
        <ele>229.634491</ele>
        <time>2013-03-16T16:09:29Z</time>
      </trkpt>
      <trkpt lat="43.63986" lon="1.19459">
        <ele>229.837357</ele>
        <time>2013-03-16T16:09:36Z</time>
      </trkpt>
      <trkpt lat="43.63993" lon="1.1942">
        <ele>230</ele>
        <time>2013-03-16T16:09:49Z</time>
      </trkpt>
      <trkpt lat="43.6402" lon="1.19373">
        <ele>230.512497</ele>
        <time>2013-03-16T16:10:05Z</time>
      </trkpt>
      <trkpt lat="43.64068" lon="1.19311">
        <ele>231</ele>
        <time>2013-03-16T16:10:24Z</time>
      </trkpt>
      <trkpt lat="43.6409" lon="1.19286">
        <ele>231.235565</ele>
        <time>2013-03-16T16:10:31Z</time>
      </trkpt>
      <trkpt lat="43.64094" lon="1.19282">
        <ele>231.354431</ele>
        <time>2013-03-16T16:10:32Z</time>
      </trkpt>
      <trkpt lat="43.64097" lon="1.19278">
        <ele>231.456665</ele>
        <time>2013-03-16T16:10:33Z</time>
      </trkpt>
      <trkpt lat="43.64101" lon="1.19275">
        <ele>231.555298</ele>
        <time>2013-03-16T16:10:34Z</time>
      </trkpt>
      <trkpt lat="43.64104" lon="1.1927">
        <ele>231.644852</ele>
        <time>2013-03-16T16:10:35Z</time>
      </trkpt>
      <trkpt lat="43.64106" lon="1.19265">
        <ele>231.718231</ele>
        <time>2013-03-16T16:10:36Z</time>
      </trkpt>
      <trkpt lat="43.64108" lon="1.1926">
        <ele>231.782959</ele>
        <time>2013-03-16T16:10:37Z</time>
      </trkpt>
      <trkpt lat="43.64112" lon="1.19256">
        <ele>231.843704</ele>
        <time>2013-03-16T16:10:38Z</time>
      </trkpt>
      <trkpt lat="43.64116" lon="1.19253">
        <ele>231.896805</ele>
        <time>2013-03-16T16:10:39Z</time>
      </trkpt>
      <trkpt lat="43.6412" lon="1.1925">
        <ele>231.937515</ele>
        <time>2013-03-16T16:10:40Z</time>
      </trkpt>
      <trkpt lat="43.64124" lon="1.19246">
        <ele>231.96875</ele>
        <time>2013-03-16T16:10:41Z</time>
      </trkpt>
      <trkpt lat="43.64128" lon="1.19241">
        <ele>231.99086</ele>
        <time>2013-03-16T16:10:42Z</time>
      </trkpt>
      <trkpt lat="43.64131" lon="1.19236">
        <ele>232</ele>
        <time>2013-03-16T16:10:43Z</time>
      </trkpt>
      <trkpt lat="43.64134" lon="1.19231">
        <ele>231.997757</ele>
        <time>2013-03-16T16:10:44Z</time>
      </trkpt>
      <trkpt lat="43.64138" lon="1.19227">
        <ele>231.983368</ele>
        <time>2013-03-16T16:10:45Z</time>
      </trkpt>
      <trkpt lat="43.64142" lon="1.19223">
        <ele>231.957245</ele>
        <time>2013-03-16T16:10:46Z</time>
      </trkpt>
      <trkpt lat="43.64146" lon="1.19219">
        <ele>231.921387</ele>
        <time>2013-03-16T16:10:47Z</time>
      </trkpt>
      <trkpt lat="43.6415" lon="1.19215">
        <ele>231.87442</ele>
        <time>2013-03-16T16:10:48Z</time>
      </trkpt>
      <trkpt lat="43.64154" lon="1.19211">
        <ele>231.816055</ele>
        <time>2013-03-16T16:10:49Z</time>
      </trkpt>
      <trkpt lat="43.64159" lon="1.19207">
        <ele>231.745819</ele>
        <time>2013-03-16T16:10:50Z</time>
      </trkpt>
      <trkpt lat="43.64162" lon="1.19203">
        <ele>231.66246</ele>
        <time>2013-03-16T16:10:51Z</time>
      </trkpt>
      <trkpt lat="43.64172" lon="1.19189">
        <ele>231.340256</ele>
        <time>2013-03-16T16:10:54Z</time>
      </trkpt>
      <trkpt lat="43.64176" lon="1.19184">
        <ele>231.231873</ele>
        <time>2013-03-16T16:10:55Z</time>
      </trkpt>
      <trkpt lat="43.64239" lon="1.19113">
        <ele>230.642532</ele>
        <time>2013-03-16T16:11:10Z</time>
      </trkpt>
      <trkpt lat="43.64246" lon="1.19106">
        <ele>230.365845</ele>
        <time>2013-03-16T16:11:12Z</time>
      </trkpt>
      <trkpt lat="43.6425" lon="1.19103">
        <ele>230.223389</ele>
        <time>2013-03-16T16:11:13Z</time>
      </trkpt>
      <trkpt lat="43.64253" lon="1.19102">
        <ele>230.103882</ele>
        <time>2013-03-16T16:11:14Z</time>
      </trkpt>
      <trkpt lat="43.64257" lon="1.19101">
        <ele>229.993515</ele>
        <time>2013-03-16T16:11:15Z</time>
      </trkpt>
      <trkpt lat="43.64261" lon="1.19101">
        <ele>229.902374</ele>
        <time>2013-03-16T16:11:16Z</time>
      </trkpt>
      <trkpt lat="43.64265" lon="1.19102">
        <ele>229.881256</ele>
        <time>2013-03-16T16:11:17Z</time>
      </trkpt>
      <trkpt lat="43.6427" lon="1.19102">
        <ele>229.982498</ele>
        <time>2013-03-16T16:11:18Z</time>
      </trkpt>
      <trkpt lat="43.64274" lon="1.19102">
        <ele>230.086243</ele>
        <time>2013-03-16T16:11:19Z</time>
      </trkpt>
      <trkpt lat="43.64324" lon="1.19107">
        <ele>231.362686</ele>
        <time>2013-03-16T16:11:31Z</time>
      </trkpt>
      <trkpt lat="43.64391" lon="1.19098">
        <ele>231.985336</ele>
        <time>2013-03-16T16:11:47Z</time>
      </trkpt>
      <trkpt lat="43.64478" lon="1.19079">
        <ele>232.087189</ele>
        <time>2013-03-16T16:12:06Z</time>
      </trkpt>
      <trkpt lat="43.64561" lon="1.19073">
        <ele>231.17244</ele>
        <time>2013-03-16T16:12:23Z</time>
      </trkpt>
      <trkpt lat="43.64657" lon="1.19043">
        <ele>231</ele>
        <time>2013-03-16T16:12:40Z</time>
      </trkpt>
      <trkpt lat="43.64737" lon="1.19029">
        <ele>231</ele>
        <time>2013-03-16T16:12:54Z</time>
      </trkpt>
      <trkpt lat="43.64821" lon="1.19005">
        <ele>230.582504</ele>
        <time>2013-03-16T16:13:08Z</time>
      </trkpt>
      <trkpt lat="43.64916" lon="1.18995">
        <ele>228.455002</ele>
        <time>2013-03-16T16:13:23Z</time>
      </trkpt>
      <trkpt lat="43.64946" lon="1.18996">
        <ele>227.635208</ele>
        <time>2013-03-16T16:13:27Z</time>
      </trkpt>
      <trkpt lat="43.64953" lon="1.18995">
        <ele>227.353378</ele>
        <time>2013-03-16T16:13:28Z</time>
      </trkpt>
      <trkpt lat="43.64959" lon="1.18991">
        <ele>227.137466</ele>
        <time>2013-03-16T16:13:29Z</time>
      </trkpt>
      <trkpt lat="43.64964" lon="1.18987">
        <ele>227.016174</ele>
        <time>2013-03-16T16:13:30Z</time>
      </trkpt>
      <trkpt lat="43.64969" lon="1.18982">
        <ele>226.96962</ele>
        <time>2013-03-16T16:13:31Z</time>
      </trkpt>
      <trkpt lat="43.64973" lon="1.18978">
        <ele>226.952744</ele>
        <time>2013-03-16T16:13:32Z</time>
      </trkpt>
      <trkpt lat="43.64977" lon="1.18974">
        <ele>226.928665</ele>
        <time>2013-03-16T16:13:33Z</time>
      </trkpt>
      <trkpt lat="43.6498" lon="1.18973">
        <ele>226.892212</ele>
        <time>2013-03-16T16:13:34Z</time>
      </trkpt>
      <trkpt lat="43.64983" lon="1.18971">
        <ele>226.799026</ele>
        <time>2013-03-16T16:13:35Z</time>
      </trkpt>
      <trkpt lat="43.64987" lon="1.18971">
        <ele>226.67244</ele>
        <time>2013-03-16T16:13:36Z</time>
      </trkpt>
      <trkpt lat="43.65027" lon="1.1897">
        <ele>224.811172</ele>
        <time>2013-03-16T16:13:47Z</time>
      </trkpt>
      <trkpt lat="43.65063" lon="1.1897">
        <ele>223.811478</ele>
        <time>2013-03-16T16:13:55Z</time>
      </trkpt>
      <trkpt lat="43.65068" lon="1.1897">
        <ele>223.633926</ele>
        <time>2013-03-16T16:13:56Z</time>
      </trkpt>
      <trkpt lat="43.65125" lon="1.18972">
        <ele>224.360001</ele>
        <time>2013-03-16T16:14:09Z</time>
      </trkpt>
      <trkpt lat="43.65154" lon="1.18981">
        <ele>223.710007</ele>
        <time>2013-03-16T16:14:18Z</time>
      </trkpt>
      <trkpt lat="43.65194" lon="1.18999">
        <ele>222.941086</ele>
        <time>2013-03-16T16:14:29Z</time>
      </trkpt>
      <trkpt lat="43.65198" lon="1.19001">
        <ele>222.969116</ele>
        <time>2013-03-16T16:14:30Z</time>
      </trkpt>
      <trkpt lat="43.65202" lon="1.19002">
        <ele>223.034882</ele>
        <time>2013-03-16T16:14:31Z</time>
      </trkpt>
      <trkpt lat="43.65206" lon="1.19003">
        <ele>223.138962</ele>
        <time>2013-03-16T16:14:32Z</time>
      </trkpt>
      <trkpt lat="43.6521" lon="1.19004">
        <ele>223.073746</ele>
        <time>2013-03-16T16:14:33Z</time>
      </trkpt>
      <trkpt lat="43.65214" lon="1.19005">
        <ele>222.979996</ele>
        <time>2013-03-16T16:14:34Z</time>
      </trkpt>
      <trkpt lat="43.65242" lon="1.19008">
        <ele>222.653748</ele>
        <time>2013-03-16T16:14:41Z</time>
      </trkpt>
      <trkpt lat="43.65314" lon="1.19016">
        <ele>219.070633</ele>
        <time>2013-03-16T16:14:53Z</time>
      </trkpt>
      <trkpt lat="43.65419" lon="1.19045">
        <ele>206.87944</ele>
        <time>2013-03-16T16:15:03Z</time>
      </trkpt>
      <trkpt lat="43.65579" lon="1.1909">
        <ele>190.682892</ele>
        <time>2013-03-16T16:15:15Z</time>
      </trkpt>
      <trkpt lat="43.65671" lon="1.19129">
        <ele>181.518066</ele>
        <time>2013-03-16T16:15:23Z</time>
      </trkpt>
      <trkpt lat="43.65678" lon="1.1913">
        <ele>181.397507</ele>
        <time>2013-03-16T16:15:24Z</time>
      </trkpt>
      <trkpt lat="43.65682" lon="1.1913">
        <ele>181.353973</ele>
        <time>2013-03-16T16:15:25Z</time>
      </trkpt>
      <trkpt lat="43.65685" lon="1.1913">
        <ele>181.349762</ele>
        <time>2013-03-16T16:15:26Z</time>
      </trkpt>
      <trkpt lat="43.65686" lon="1.19128">
        <ele>181.380905</ele>
        <time>2013-03-16T16:15:27Z</time>
      </trkpt>
      <trkpt lat="43.65686" lon="1.19128">
        <ele>181.393494</ele>
        <time>2013-03-16T16:15:35Z</time>
      </trkpt>
    </trkseg>
  </trk>
</gpx>